Wetterdaten: Montag, 05.11.2018
Datum Zeit Temp. A. Pool Temp. Temp. 5cm Feuchte A. Luftdruck Regen Wind Richtung Richtung Sonnenschein ET UV Solar Taupunkt Windchill Windben Empfang
05.11.2018 00:00 10,4 C 10,0 C 8,3 C 97 % 1013,3 hPa 0,0 l/m 3,5 km/h (1 Bft) O-SO 103 0 min 0,000 mm 0,0 UV-I 0 W/m 9,9 C 10,4 C 4,8 km/h (1 Bft) 91,67 %
05.11.2018 00:02 10,4 C 10,0 C 8,3 C 97 % 1013,4 hPa 0,0 l/m 2,6 km/h (1 Bft) O-SO 121 0 min 0,000 mm 0,0 UV-I 0 W/m 9,9 C 10,4 C 3,2 km/h (1 Bft) 13,33 %
05.11.2018 00:04 10,4 C 10,0 C 8,9 C 97 % 1013,3 hPa 0,0 l/m 3,9 km/h (1 Bft) O-SO 122 0 min 0,000 mm 0,0 UV-I 0 W/m 9,9 C 10,4 C 6,4 km/h (2 Bft) 83,72 %
05.11.2018 00:06 10,3 C 10,0 C 8,3 C 97 % 1013,3 hPa 0,0 l/m 4,1 km/h (1 Bft) O-SO 119 0 min 0,000 mm 0,0 UV-I 0 W/m 9,8 C 10,3 C 6,4 km/h (2 Bft) 100,00 %
05.11.2018 00:08 10,2 C 10,0 C 8,3 C 97 % 1013,4 hPa 0,0 l/m 5,1 km/h (1 Bft) O-SO 114 0 min 0,000 mm 0,0 UV-I 0 W/m 9,7 C 10,2 C 6,4 km/h (2 Bft) 100,00 %
05.11.2018 00:10 10,2 C 10,0 C 8,9 C 97 % 1013,3 hPa 0,0 l/m 3,8 km/h (1 Bft) O-SO 109 0 min 0,000 mm 0,0 UV-I 0 W/m 9,7 C 10,2 C 6,4 km/h (2 Bft) 100,00 %
05.11.2018 00:12 10,3 C 10,0 C 8,9 C 97 % 1013,4 hPa 0,0 l/m 5,3 km/h (1 Bft) SO 126 0 min 0,000 mm 0,0 UV-I 0 W/m 9,8 C 10,3 C 9,7 km/h (2 Bft) 100,00 %
05.11.2018 00:14 10,3 C 10,0 C 8,3 C 97 % 1013,3 hPa 0,0 l/m 4,2 km/h (1 Bft) O 101 0 min 0,000 mm 0,0 UV-I 0 W/m 9,8 C 10,3 C 6,4 km/h (2 Bft) 98,00 %
05.11.2018 00:16 10,3 C 10,0 C 8,3 C 97 % 1013,2 hPa 0,0 l/m 2,9 km/h (1 Bft) O-SO 105 0 min 0,000 mm 0,0 UV-I 0 W/m 9,8 C 10,3 C 6,4 km/h (2 Bft) 100,00 %
05.11.2018 00:18 10,3 C 10,0 C 8,3 C 97 % 1013,1 hPa 0,0 l/m 2,3 km/h (1 Bft) O-SO 105 0 min 0,000 mm 0,0 UV-I 0 W/m 9,8 C 10,3 C 3,2 km/h (1 Bft) 100,00 %
05.11.2018 00:20 10,4 C 10,0 C 8,3 C 97 % 1013,2 hPa 0,0 l/m 4,6 km/h (1 Bft) O-SO 115 0 min 0,000 mm 0,0 UV-I 0 W/m 9,9 C 10,4 C 6,4 km/h (2 Bft) 100,00 %
05.11.2018 00:22 10,4 C 10,0 C 8,9 C 97 % 1013,2 hPa 0,0 l/m 4,9 km/h (1 Bft) O-SO 123 0 min 0,000 mm 0,0 UV-I 0 W/m 9,9 C 10,4 C 8,0 km/h (2 Bft) 97,87 %
05.11.2018 00:24 10,4 C 10,0 C 8,9 C 97 % 1013,1 hPa 0,0 l/m 3,3 km/h (1 Bft) O 85 0 min 0,000 mm 0,0 UV-I 0 W/m 9,9 C 10,4 C 4,8 km/h (1 Bft) 100,00 %
05.11.2018 00:26 10,4 C 10,0 C 8,9 C 97 % 1013,1 hPa 0,0 l/m 4,3 km/h (1 Bft) O 101 0 min 0,000 mm 0,0 UV-I 0 W/m 9,9 C 10,4 C 6,4 km/h (2 Bft) 100,00 %
05.11.2018 00:28 10,4 C 10,0 C 8,9 C 97 % 1013,0 hPa 0,0 l/m 2,4 km/h (1 Bft) O 100 0 min 0,000 mm 0,0 UV-I 0 W/m 9,9 C 10,4 C 4,8 km/h (1 Bft) 100,00 %
05.11.2018 00:30 10,5 C 10,0 C 8,9 C 97 % 1012,9 hPa 0,0 l/m 1,6 km/h (1 Bft) O 100 0 min 0,000 mm 0,0 UV-I 0 W/m 10,0 C 10,5 C 4,8 km/h (1 Bft) 100,00 %
05.11.2018 00:32 10,4 C 10,0 C 8,9 C 97 % 1012,8 hPa 0,0 l/m 0,8 km/h (0 Bft) O 100 0 min 0,000 mm 0,0 UV-I 0 W/m 9,9 C 10,4 C 3,2 km/h (1 Bft) 96,00 %
05.11.2018 00:34 10,2 C 10,0 C 8,3 C 97 % 1012,9 hPa 0,0 l/m 2,2 km/h (1 Bft) O 99 0 min 0,000 mm 0,0 UV-I 0 W/m 9,7 C 10,2 C 3,2 km/h (1 Bft) 97,87 %
05.11.2018 00:36 10,1 C 10,0 C 8,3 C 97 % 1013,0 hPa 0,0 l/m 2,3 km/h (1 Bft) O 100 0 min 0,000 mm 0,0 UV-I 0 W/m 9,6 C 10,1 C 4,8 km/h (1 Bft) 95,74 %
05.11.2018 00:38 10,0 C 10,0 C 8,3 C 97 % 1012,9 hPa 0,0 l/m 2,1 km/h (1 Bft) O 100 0 min 0,000 mm 0,0 UV-I 0 W/m 9,5 C 10,0 C 3,2 km/h (1 Bft) 97,87 %
05.11.2018 00:40 9,9 C 10,0 C 8,3 C 97 % 1013,0 hPa 0,0 l/m 1,3 km/h (1 Bft) O 100 0 min 0,000 mm 0,0 UV-I 0 W/m 9,4 C 9,9 C 3,2 km/h (1 Bft) 97,87 %
05.11.2018 00:42 9,9 C 10,0 C 8,3 C 97 % 1013,0 hPa 0,0 l/m 1,1 km/h (1 Bft) O 100 0 min 0,000 mm 0,0 UV-I 0 W/m 9,4 C 9,9 C 3,2 km/h (1 Bft) 93,62 %
05.11.2018 00:44 9,8 C 10,0 C 8,3 C 97 % 1013,0 hPa 0,0 l/m 0,9 km/h (0 Bft) O 100 0 min 0,000 mm 0,0 UV-I 0 W/m 9,3 C 9,8 C 1,6 km/h (1 Bft) 95,74 %
05.11.2018 00:46 9,8 C 10,0 C 7,8 C 97 % 1013,0 hPa 0,0 l/m 0,8 km/h (0 Bft) O 100 0 min 0,000 mm 0,0 UV-I 0 W/m 9,3 C 9,8 C 1,6 km/h (1 Bft) 93,62 %
05.11.2018 00:48 9,7 C 10,0 C 7,8 C 97 % 1013,0 hPa 0,0 l/m 1,6 km/h (1 Bft) O 100 0 min 0,000 mm 0,0 UV-I 0 W/m 9,2 C 9,7 C 3,2 km/h (1 Bft) 91,49 %
05.11.2018 00:50 9,8 C 10,0 C 7,8 C 97 % 1012,9 hPa 0,0 l/m 2,5 km/h (1 Bft) O 100 0 min 0,000 mm 0,0 UV-I 0 W/m 9,3 C 9,8 C 3,2 km/h (1 Bft) 95,74 %
05.11.2018 00:52 9,8 C 10,0 C 7,8 C 97 % 1012,9 hPa 0,0 l/m 2,2 km/h (1 Bft) O 100 0 min 0,000 mm 0,0 UV-I 0 W/m 9,3 C 9,8 C 3,2 km/h (1 Bft) 95,74 %
05.11.2018 00:54 9,8 C 10,0 C 8,3 C 97 % 1013,0 hPa 0,0 l/m 1,9 km/h (1 Bft) O 100 0 min 0,000 mm 0,0 UV-I 0 W/m 9,3 C 9,8 C 3,2 km/h (1 Bft) 95,74 %
05.11.2018 00:56 9,7 C 10,0 C 7,8 C 97 % 1012,9 hPa 0,0 l/m 2,1 km/h (1 Bft) O 100 0 min 0,000 mm 0,0 UV-I 0 W/m 9,2 C 9,7 C 4,8 km/h (1 Bft) 96,00 %
05.11.2018 00:58 9,7 C 10,0 C 7,8 C 97 % 1012,9 hPa 0,0 l/m 1,9 km/h (1 Bft) O 100 0 min 0,000 mm 0,0 UV-I 0 W/m 9,2 C 9,7 C 3,2 km/h (1 Bft) 95,74 %
05.11.2018 01:00 9,6 C 10,0 C 7,8 C 97 % 1012,9 hPa 0,0 l/m 2,3 km/h (1 Bft) O 100 0 min 0,000 mm 0,0 UV-I 0 W/m 9,1 C 9,6 C 3,2 km/h (1 Bft) 94,87 %
05.11.2018 01:02 9,5 C 10,0 C 7,8 C 97 % 1012,8 hPa 0,0 l/m 2,6 km/h (1 Bft) O 100 0 min 0,000 mm 0,0 UV-I 0 W/m 9,0 C 9,5 C 3,2 km/h (1 Bft) 98,08 %
05.11.2018 01:04 9,6 C 10,0 C 7,2 C 97 % 1012,9 hPa 0,0 l/m 1,5 km/h (1 Bft) O 100 0 min 0,000 mm 0,0 UV-I 0 W/m 9,1 C 9,6 C 3,2 km/h (1 Bft) 97,92 %
05.11.2018 01:06 9,7 C 10,0 C 7,8 C 97 % 1012,9 hPa 0,0 l/m 1,8 km/h (1 Bft) O 100 0 min 0,000 mm 0,0 UV-I 0 W/m 9,2 C 9,7 C 3,2 km/h (1 Bft) 98,00 %
05.11.2018 01:08 9,6 C 10,0 C 7,8 C 97 % 1012,8 hPa 0,0 l/m 1,3 km/h (1 Bft) O 100 0 min 0,000 mm 0,0 UV-I 0 W/m 9,1 C 9,6 C 3,2 km/h (1 Bft) 100,00 %
05.11.2018 01:10 9,6 C 10,0 C 7,8 C 97 % 1012,9 hPa 0,0 l/m 2,5 km/h (1 Bft) O 101 0 min 0,000 mm 0,0 UV-I 0 W/m 9,1 C 9,6 C 4,8 km/h (1 Bft) 100,00 %
05.11.2018 01:12 9,4 C 10,0 C 7,8 C 97 % 1012,9 hPa 0,0 l/m 2,8 km/h (1 Bft) O 101 0 min 0,000 mm 0,0 UV-I 0 W/m 8,9 C 9,4 C 4,8 km/h (1 Bft) 100,00 %
05.11.2018 01:14 9,4 C 10,0 C 7,8 C 97 % 1012,9 hPa 0,0 l/m 2,5 km/h (1 Bft) O 101 0 min 0,000 mm 0,0 UV-I 0 W/m 8,9 C 9,4 C 3,2 km/h (1 Bft) 95,74 %
05.11.2018 01:16 9,4 C 10,0 C 7,8 C 97 % 1012,8 hPa 0,0 l/m 3,7 km/h (1 Bft) O 101 0 min 0,000 mm 0,0 UV-I 0 W/m 8,9 C 9,4 C 4,8 km/h (1 Bft) 97,87 %
05.11.2018 01:18 9,6 C 10,0 C 7,8 C 97 % 1012,7 hPa 0,0 l/m 4,3 km/h (1 Bft) O 91 0 min 0,000 mm 0,0 UV-I 0 W/m 9,1 C 9,6 C 4,8 km/h (1 Bft) 100,00 %
05.11.2018 01:20 9,8 C 10,0 C 7,8 C 97 % 1012,7 hPa 0,0 l/m 3,3 km/h (1 Bft) O 90 0 min 0,000 mm 0,0 UV-I 0 W/m 9,3 C 9,8 C 4,8 km/h (1 Bft) 97,87 %
05.11.2018 01:22 10,0 C 10,0 C 7,8 C 98 % 1012,7 hPa 0,0 l/m 2,5 km/h (1 Bft) O 91 0 min 0,000 mm 0,0 UV-I 0 W/m 9,7 C 10,0 C 4,8 km/h (1 Bft) 100,00 %
05.11.2018 01:24 10,0 C 10,0 C 7,8 C 98 % 1012,8 hPa 0,0 l/m 2,3 km/h (1 Bft) O 91 0 min 0,000 mm 0,0 UV-I 0 W/m 9,7 C 10,0 C 3,2 km/h (1 Bft) 100,00 %
05.11.2018 01:26 10,0 C 10,0 C 7,8 C 98 % 1012,8 hPa 0,0 l/m 1,9 km/h (1 Bft) O 91 0 min 0,000 mm 0,0 UV-I 0 W/m 9,7 C 10,0 C 3,2 km/h (1 Bft) 97,37 %
05.11.2018 01:28 10,0 C 10,0 C 7,8 C 98 % 1012,8 hPa 0,0 l/m 2,0 km/h (1 Bft) O 91 0 min 0,000 mm 0,0 UV-I 0 W/m 9,7 C 10,0 C 3,2 km/h (1 Bft) 97,87 %
05.11.2018 01:30 9,9 C 10,0 C 7,2 C 98 % 1012,8 hPa 0,0 l/m 2,0 km/h (1 Bft) O 90 0 min 0,000 mm 0,0 UV-I 0 W/m 9,6 C 9,9 C 3,2 km/h (1 Bft) 95,74 %
05.11.2018 01:32 9,9 C 10,0 C 7,2 C 98 % 1012,8 hPa 0,0 l/m 1,9 km/h (1 Bft) O 90 0 min 0,000 mm 0,0 UV-I 0 W/m 9,6 C 9,9 C 3,2 km/h (1 Bft) 97,87 %
05.11.2018 01:34 9,9 C 10,0 C 7,2 C 98 % 1012,8 hPa 0,0 l/m 2,1 km/h (1 Bft) O 90 0 min 0,000 mm 0,0 UV-I 0 W/m 9,6 C 9,9 C 3,2 km/h (1 Bft) 95,74 %
05.11.2018 01:36 9,9 C 10,0 C 7,2 C 98 % 1012,8 hPa 0,0 l/m 2,5 km/h (1 Bft) O 90 0 min 0,000 mm 0,0 UV-I 0 W/m 9,6 C 9,9 C 3,2 km/h (1 Bft) 98,00 %
05.11.2018 01:38 9,8 C 10,0 C 7,2 C 97 % 1012,8 hPa 0,0 l/m 1,1 km/h (1 Bft) O 90 0 min 0,000 mm 0,0 UV-I 0 W/m 9,3 C 9,8 C 1,6 km/h (1 Bft) 95,92 %
05.11.2018 01:40 9,6 C 10,0 C 7,8 C 97 % 1012,9 hPa 0,0 l/m 0,7 km/h (0 Bft) O 91 0 min 0,000 mm 0,0 UV-I 0 W/m 9,1 C 9,6 C 1,6 km/h (1 Bft) 97,87 %
05.11.2018 01:42 9,4 C 10,0 C 7,2 C 97 % 1012,8 hPa 0,0 l/m 0,5 km/h (0 Bft) O 91 0 min 0,000 mm 0,0 UV-I 0 W/m 8,9 C 9,4 C 1,6 km/h (1 Bft) 97,44 %
05.11.2018 01:44 9,3 C 10,0 C 7,2 C 97 % 1012,8 hPa 0,0 l/m 2,4 km/h (1 Bft) O 90 0 min 0,000 mm 0,0 UV-I 0 W/m 8,8 C 9,3 C 3,2 km/h (1 Bft) 97,87 %
05.11.2018 01:46 9,6 C 10,0 C 7,8 C 97 % 1012,7 hPa 0,0 l/m 3,5 km/h (1 Bft) O 90 0 min 0,000 mm 0,0 UV-I 0 W/m 9,1 C 9,6 C 4,8 km/h (1 Bft) 95,74 %
05.11.2018 01:48 9,7 C 10,0 C 7,8 C 97 % 1012,7 hPa 0,0 l/m 3,2 km/h (1 Bft) O 90 0 min 0,000 mm 0,0 UV-I 0 W/m 9,2 C 9,7 C 4,8 km/h (1 Bft) 97,87 %
05.11.2018 01:50 9,7 C 10,0 C 7,8 C 97 % 1012,7 hPa 0,0 l/m 4,3 km/h (1 Bft) O 84 0 min 0,000 mm 0,0 UV-I 0 W/m 9,2 C 9,7 C 6,4 km/h (2 Bft) 95,74 %
05.11.2018 01:52 9,8 C 10,0 C 7,8 C 97 % 1012,7 hPa 0,0 l/m 3,1 km/h (1 Bft) O 84 0 min 0,000 mm 0,0 UV-I 0 W/m 9,3 C 9,8 C 4,8 km/h (1 Bft) 97,87 %
05.11.2018 01:54 9,8 C 10,0 C 7,8 C 97 % 1012,6 hPa 0,0 l/m 3,9 km/h (1 Bft) O 86 0 min 0,000 mm 0,0 UV-I 0 W/m 9,3 C 9,8 C 6,4 km/h (2 Bft) 97,87 %
05.11.2018 01:56 9,8 C 10,0 C 8,3 C 97 % 1012,6 hPa 0,0 l/m 3,7 km/h (1 Bft) O 98 0 min 0,000 mm 0,0 UV-I 0 W/m 9,3 C 9,8 C 6,4 km/h (2 Bft) 95,74 %
05.11.2018 01:58 9,7 C 10,0 C 8,3 C 97 % 1012,6 hPa 0,0 l/m 2,4 km/h (1 Bft) O 98 0 min 0,000 mm 0,0 UV-I 0 W/m 9,2 C 9,7 C 3,2 km/h (1 Bft) 97,87 %
05.11.2018 02:00 9,7 C 10,0 C 8,3 C 97 % 1012,6 hPa 0,0 l/m 0,6 km/h (0 Bft) O 98 0 min 0,000 mm 0,0 UV-I 0 W/m 9,2 C 9,7 C 1,6 km/h (1 Bft) 93,62 %
05.11.2018 02:02 9,7 C 10,0 C 7,8 C 97 % 1012,7 hPa 0,0 l/m 0,6 km/h (0 Bft) O 98 0 min 0,000 mm 0,0 UV-I 0 W/m 9,2 C 9,7 C 3,2 km/h (1 Bft) 96,00 %
05.11.2018 02:04 9,7 C 10,0 C 7,8 C 97 % 1012,6 hPa 0,0 l/m 2,9 km/h (1 Bft) O 98 0 min 0,000 mm 0,0 UV-I 0 W/m 9,2 C 9,7 C 3,2 km/h (1 Bft) 95,74 %
05.11.2018 02:06 9,7 C 10,0 C 7,8 C 97 % 1012,6 hPa 0,0 l/m 3,9 km/h (1 Bft) O 98 0 min 0,000 mm 0,0 UV-I 0 W/m 9,2 C 9,7 C 4,8 km/h (1 Bft) 95,74 %
05.11.2018 02:08 9,7 C 10,0 C 7,8 C 97 % 1012,6 hPa 0,0 l/m 4,4 km/h (1 Bft) O-NO 64 0 min 0,000 mm 0,0 UV-I 0 W/m 9,2 C 9,7 C 6,4 km/h (2 Bft) 91,49 %
05.11.2018 02:10 9,7 C 10,0 C 7,8 C 97 % 1012,5 hPa 0,0 l/m 4,8 km/h (1 Bft) O-NO 67 0 min 0,000 mm 0,0 UV-I 0 W/m 9,2 C 9,7 C 6,4 km/h (2 Bft) 93,62 %
05.11.2018 02:12 9,6 C 10,0 C 8,3 C 98 % 1012,5 hPa 0,0 l/m 3,6 km/h (1 Bft) O-NO 67 0 min 0,000 mm 0,0 UV-I 0 W/m 9,3 C 9,6 C 4,8 km/h (1 Bft) 95,74 %
05.11.2018 02:14 9,7 C 10,0 C 8,3 C 97 % 1012,6 hPa 0,0 l/m 4,2 km/h (1 Bft) O 88 0 min 0,000 mm 0,0 UV-I 0 W/m 9,2 C 9,7 C 6,4 km/h (2 Bft) 95,74 %
05.11.2018 02:16 9,7 C 10,0 C 8,3 C 97 % 1012,6 hPa 0,0 l/m 3,4 km/h (1 Bft) O 88 0 min 0,000 mm 0,0 UV-I 0 W/m 9,2 C 9,7 C 6,4 km/h (2 Bft) 94,00 %
05.11.2018 02:18 9,8 C 10,0 C 8,3 C 97 % 1012,6 hPa 0,0 l/m 3,5 km/h (1 Bft) O-SO 107 0 min 0,000 mm 0,0 UV-I 0 W/m 9,3 C 9,8 C 6,4 km/h (2 Bft) 97,22 %
05.11.2018 02:20 9,7 C 10,0 C 8,3 C 97 % 1012,6 hPa 0,0 l/m 3,6 km/h (1 Bft) O-SO 107 0 min 0,000 mm 0,0 UV-I 0 W/m 9,2 C 9,7 C 6,4 km/h (2 Bft) 93,62 %
05.11.2018 02:22 9,7 C 10,0 C 7,8 C 97 % 1012,6 hPa 0,0 l/m 2,7 km/h (1 Bft) O-SO 107 0 min 0,000 mm 0,0 UV-I 0 W/m 9,2 C 9,7 C 4,8 km/h (1 Bft) 96,00 %
05.11.2018 02:24 9,7 C 10,0 C 7,8 C 97 % 1012,6 hPa 0,0 l/m 1,6 km/h (1 Bft) O-SO 107 0 min 0,000 mm 0,0 UV-I 0 W/m 9,2 C 9,7 C 3,2 km/h (1 Bft) 95,74 %
05.11.2018 02:26 9,7 C 10,0 C 7,8 C 97 % 1012,5 hPa 0,0 l/m 2,0 km/h (1 Bft) O-SO 107 0 min 0,000 mm 0,0 UV-I 0 W/m 9,2 C 9,7 C 3,2 km/h (1 Bft) 97,87 %
05.11.2018 02:28 9,7 C 10,0 C 7,2 C 97 % 1012,5 hPa 0,0 l/m 0,3 km/h (0 Bft) O-SO 107 0 min 0,000 mm 0,0 UV-I 0 W/m 9,2 C 9,7 C 1,6 km/h (1 Bft) 97,87 %
05.11.2018 02:30 9,7 C 10,0 C 7,2 C 97 % 1012,6 hPa 0,0 l/m 1,4 km/h (1 Bft) O-SO 107 0 min 0,000 mm 0,0 UV-I 0 W/m 9,2 C 9,7 C 1,6 km/h (1 Bft) 97,87 %
05.11.2018 02:32 9,6 C 10,0 C 7,2 C 97 % 1012,6 hPa 0,0 l/m 1,3 km/h (1 Bft) O-SO 107 0 min 0,000 mm 0,0 UV-I 0 W/m 9,1 C 9,6 C 1,6 km/h (1 Bft) 95,74 %
05.11.2018 02:34 9,7 C 10,0 C 7,2 C 97 % 1012,5 hPa 0,0 l/m 1,5 km/h (1 Bft) O-SO 107 0 min 0,000 mm 0,0 UV-I 0 W/m 9,2 C 9,7 C 3,2 km/h (1 Bft) 97,87 %
05.11.2018 02:36 9,7 C 10,0 C 7,2 C 97 % 1012,4 hPa 0,0 l/m 2,9 km/h (1 Bft) O-SO 107 0 min 0,000 mm 0,0 UV-I 0 W/m 9,2 C 9,7 C 4,8 km/h (1 Bft) 95,83 %
05.11.2018 02:38 9,7 C 10,0 C 7,2 C 97 % 1012,4 hPa 0,0 l/m 2,2 km/h (1 Bft) O-SO 107 0 min 0,000 mm 0,0 UV-I 0 W/m 9,2 C 9,7 C 3,2 km/h (1 Bft) 97,87 %
05.11.2018 02:40 9,7 C 10,0 C 7,2 C 97 % 1012,2 hPa 0,0 l/m 2,5 km/h (1 Bft) O-SO 107 0 min 0,000 mm 0,0 UV-I 0 W/m 9,2 C 9,7 C 3,2 km/h (1 Bft) 97,87 %
05.11.2018 02:42 9,7 C 10,0 C 7,2 C 97 % 1012,2 hPa 0,0 l/m 2,0 km/h (1 Bft) O-SO 107 0 min 0,000 mm 0,0 UV-I 0 W/m 9,2 C 9,7 C 3,2 km/h (1 Bft) 97,87 %
05.11.2018 02:44 9,6 C 10,0 C 7,2 C 97 % 1012,3 hPa 0,0 l/m 2,4 km/h (1 Bft) O-SO 107 0 min 0,000 mm 0,0 UV-I 0 W/m 9,1 C 9,6 C 4,8 km/h (1 Bft) 97,87 %
05.11.2018 02:46 9,6 C 10,0 C 7,2 C 97 % 1012,3 hPa 0,0 l/m 1,9 km/h (1 Bft) O-SO 107 0 min 0,000 mm 0,0 UV-I 0 W/m 9,1 C 9,6 C 3,2 km/h (1 Bft) 95,74 %
05.11.2018 02:48 9,6 C 10,0 C 7,2 C 97 % 1012,3 hPa 0,0 l/m 0,7 km/h (0 Bft) O-SO 107 0 min 0,000 mm 0,0 UV-I 0 W/m 9,1 C 9,6 C 3,2 km/h (1 Bft) 95,74 %
05.11.2018 02:50 9,5 C 10,0 C 7,8 C 97 % 1012,3 hPa 0,0 l/m 2,1 km/h (1 Bft) O-SO 107 0 min 0,000 mm 0,0 UV-I 0 W/m 9,0 C 9,5 C 3,2 km/h (1 Bft) 97,62 %
05.11.2018 02:52 9,4 C 10,0 C 7,8 C 97 % 1012,2 hPa 0,0 l/m 2,8 km/h (1 Bft) O-NO 65 0 min 0,000 mm 0,0 UV-I 0 W/m 8,9 C 9,4 C 4,8 km/h (1 Bft) 97,87 %
05.11.2018 02:54 9,4 C 10,0 C 7,8 C 97 % 1012,2 hPa 0,0 l/m 3,1 km/h (1 Bft) O-NO 65 0 min 0,000 mm 0,0 UV-I 0 W/m 8,9 C 9,4 C 4,8 km/h (1 Bft) 97,87 %
05.11.2018 02:56 9,6 C 10,0 C 7,8 C 97 % 1012,2 hPa 0,0 l/m 4,4 km/h (1 Bft) O-NO 66 0 min 0,000 mm 0,0 UV-I 0 W/m 9,1 C 9,6 C 6,4 km/h (2 Bft) 97,87 %
05.11.2018 02:58 9,7 C 10,0 C 8,3 C 97 % 1012,1 hPa 0,0 l/m 5,9 km/h (2 Bft) O-NO 69 0 min 0,000 mm 0,0 UV-I 0 W/m 9,2 C 9,7 C 8,0 km/h (2 Bft) 95,74 %
05.11.2018 03:00 9,8 C 10,0 C 8,3 C 97 % 1012,1 hPa 0,0 l/m 4,1 km/h (1 Bft) O-NO 74 0 min 0,000 mm 0,0 UV-I 0 W/m 9,3 C 9,8 C 6,4 km/h (2 Bft) 96,00 %
05.11.2018 03:02 9,8 C 10,0 C 8,9 C 97 % 1012,1 hPa 0,0 l/m 5,8 km/h (2 Bft) O-NO 71 0 min 0,000 mm 0,0 UV-I 0 W/m 9,3 C 9,8 C 8,0 km/h (2 Bft) 96,00 %
05.11.2018 03:04 9,7 C 10,0 C 8,3 C 97 % 1012,1 hPa 0,0 l/m 6,7 km/h (2 Bft) O-NO 65 0 min 0,000 mm 0,0 UV-I 0 W/m 9,2 C 9,5 C 11,3 km/h (2 Bft) 94,74 %
05.11.2018 03:06 9,7 C 10,0 C 8,3 C 97 % 1012,1 hPa 0,0 l/m 6,1 km/h (2 Bft) O-SO 113 0 min 0,000 mm 0,0 UV-I 0 W/m 9,2 C 9,7 C 11,3 km/h (2 Bft) 95,74 %
05.11.2018 03:08 9,6 C 10,0 C 8,3 C 97 % 1012,1 hPa 0,0 l/m 5,4 km/h (1 Bft) O 92 0 min 0,000 mm 0,0 UV-I 0 W/m 9,1 C 9,6 C 6,4 km/h (2 Bft) 93,62 %
05.11.2018 03:10 9,6 C 10,0 C 8,3 C 97 % 1012,1 hPa 0,0 l/m 3,6 km/h (1 Bft) O-NO 73 0 min 0,000 mm 0,0 UV-I 0 W/m 9,1 C 9,6 C 6,4 km/h (2 Bft) 97,87 %
05.11.2018 03:12 9,6 C 10,0 C 8,3 C 97 % 1012,0 hPa 0,0 l/m 4,5 km/h (1 Bft) O 98 0 min 0,000 mm 0,0 UV-I 0 W/m 9,1 C 9,6 C 6,4 km/h (2 Bft) 97,96 %
05.11.2018 03:14 9,6 C 10,0 C 8,3 C 97 % 1012,0 hPa 0,0 l/m 5,2 km/h (1 Bft) O-NO 65 0 min 0,000 mm 0,0 UV-I 0 W/m 9,1 C 9,6 C 8,0 km/h (2 Bft) 100,00 %
05.11.2018 03:16 9,6 C 10,0 C 8,3 C 97 % 1012,0 hPa 0,0 l/m 6,0 km/h (2 Bft) O-NO 77 0 min 0,000 mm 0,0 UV-I 0 W/m 9,1 C 9,6 C 8,0 km/h (2 Bft) 100,00 %
05.11.2018 03:18 9,6 C 10,0 C 8,3 C 97 % 1011,9 hPa 0,0 l/m 8,6 km/h (2 Bft) O-NO 77 0 min 0,000 mm 0,0 UV-I 0 W/m 9,1 C 8,0 C 11,3 km/h (2 Bft) 96,00 %
05.11.2018 03:20 9,7 C 10,0 C 8,3 C 97 % 1012,0 hPa 0,0 l/m 7,2 km/h (2 Bft) O 92 0 min 0,000 mm 0,0 UV-I 0 W/m 9,2 C 9,1 C 12,9 km/h (3 Bft) 100,00 %
05.11.2018 03:22 9,7 C 10,0 C 8,9 C 97 % 1012,0 hPa 0,0 l/m 7,6 km/h (2 Bft) O 82 0 min 0,000 mm 0,0 UV-I 0 W/m 9,2 C 8,8 C 11,3 km/h (2 Bft) 97,87 %
05.11.2018 03:24 9,6 C 10,0 C 8,3 C 97 % 1011,9 hPa 0,0 l/m 6,1 km/h (2 Bft) O-NO 75 0 min 0,000 mm 0,0 UV-I 0 W/m 9,1 C 9,6 C 11,3 km/h (2 Bft) 97,87 %
05.11.2018 03:26 9,7 C 10,0 C 8,3 C 97 % 1011,9 hPa 0,0 l/m 5,0 km/h (1 Bft) O 96 0 min 0,000 mm 0,0 UV-I 0 W/m 9,2 C 9,7 C 8,0 km/h (2 Bft) 97,87 %
05.11.2018 03:28 9,7 C 10,0 C 8,3 C 97 % 1011,9 hPa 0,0 l/m 3,3 km/h (1 Bft) O 92 0 min 0,000 mm 0,0 UV-I 0 W/m 9,2 C 9,7 C 6,4 km/h (2 Bft) 93,62 %
05.11.2018 03:30 9,6 C 10,0 C 8,3 C 97 % 1011,9 hPa 0,0 l/m 4,6 km/h (1 Bft) O-NO 61 0 min 0,000 mm 0,0 UV-I 0 W/m 9,1 C 9,6 C 6,4 km/h (2 Bft) 95,74 %
05.11.2018 03:32 9,5 C 10,0 C 8,3 C 97 % 1012,0 hPa 0,0 l/m 3,2 km/h (1 Bft) O-NO 66 0 min 0,000 mm 0,0 UV-I 0 W/m 9,0 C 9,5 C 6,4 km/h (2 Bft) 97,87 %
05.11.2018 03:34 9,6 C 10,0 C 8,3 C 97 % 1011,9 hPa 0,0 l/m 4,2 km/h (1 Bft) O-NO 63 0 min 0,000 mm 0,0 UV-I 0 W/m 9,1 C 9,6 C 6,4 km/h (2 Bft) 97,87 %
05.11.2018 03:36 9,6 C 10,0 C 7,8 C 97 % 1011,9 hPa 0,0 l/m 2,3 km/h (1 Bft) O-NO 63 0 min 0,000 mm 0,0 UV-I 0 W/m 9,1 C 9,6 C 3,2 km/h (1 Bft) 97,22 %
05.11.2018 03:38 9,5 C 10,0 C 7,8 C 97 % 1012,0 hPa 0,0 l/m 3,8 km/h (1 Bft) O 97 0 min 0,000 mm 0,0 UV-I 0 W/m 9,0 C 9,5 C 6,4 km/h (2 Bft) 97,96 %
05.11.2018 03:40 9,5 C 10,0 C 7,8 C 97 % 1012,0 hPa 0,0 l/m 2,7 km/h (1 Bft) O 98 0 min 0,000 mm 0,0 UV-I 0 W/m 9,0 C 9,5 C 3,2 km/h (1 Bft) 95,74 %
05.11.2018 03:42 9,6 C 10,0 C 7,8 C 97 % 1012,0 hPa 0,0 l/m 3,4 km/h (1 Bft) O 97 0 min 0,000 mm 0,0 UV-I 0 W/m 9,1 C 9,6 C 4,8 km/h (1 Bft) 96,00 %
05.11.2018 03:44 9,6 C 10,0 C 7,8 C 97 % 1012,0 hPa 0,0 l/m 2,3 km/h (1 Bft) O 97 0 min 0,000 mm 0,0 UV-I 0 W/m 9,1 C 9,6 C 3,2 km/h (1 Bft) 98,00 %
05.11.2018 03:46 9,6 C 10,0 C 7,2 C 97 % 1012,0 hPa 0,0 l/m 3,0 km/h (1 Bft) O 97 0 min 0,000 mm 0,0 UV-I 0 W/m 9,1 C 9,6 C 4,8 km/h (1 Bft) 100,00 %
05.11.2018 03:48 9,6 C 10,0 C 7,2 C 97 % 1012,0 hPa 0,0 l/m 2,1 km/h (1 Bft) O 97 0 min 0,000 mm 0,0 UV-I 0 W/m 9,1 C 9,6 C 3,2 km/h (1 Bft) 100,00 %
05.11.2018 03:50 9,6 C 10,0 C 7,2 C 97 % 1012,0 hPa 0,0 l/m 2,8 km/h (1 Bft) O 97 0 min 0,000 mm 0,0 UV-I 0 W/m 9,1 C 9,6 C 4,8 km/h (1 Bft) 100,00 %
05.11.2018 03:52 9,6 C 10,0 C 7,2 C 97 % 1012,0 hPa 0,0 l/m 2,3 km/h (1 Bft) O 97 0 min 0,000 mm 0,0 UV-I 0 W/m 9,1 C 9,6 C 4,8 km/h (1 Bft) 100,00 %
05.11.2018 03:54 9,6 C 10,0 C 7,2 C 97 % 1012,0 hPa 0,0 l/m 1,7 km/h (1 Bft) O 97 0 min 0,000 mm 0,0 UV-I 0 W/m 9,1 C 9,6 C 3,2 km/h (1 Bft) 97,87 %
05.11.2018 03:56 9,6 C 10,0 C 7,2 C 97 % 1012,0 hPa 0,0 l/m 1,9 km/h (1 Bft) O 97 0 min 0,000 mm 0,0 UV-I 0 W/m 9,1 C 9,6 C 3,2 km/h (1 Bft) 97,87 %
05.11.2018 03:58 9,7 C 10,0 C 6,7 C 97 % 1012,0 hPa 0,0 l/m 1,3 km/h (1 Bft) O 97 0 min 0,000 mm 0,0 UV-I 0 W/m 9,2 C 9,7 C 3,2 km/h (1 Bft) 100,00 %
05.11.2018 04:00 9,6 C 10,0 C 6,7 C 97 % 1012,0 hPa 0,0 l/m 2,2 km/h (1 Bft) O 97 0 min 0,000 mm 0,0 UV-I 0 W/m 9,1 C 9,6 C 3,2 km/h (1 Bft) 100,00 %
05.11.2018 04:02 9,6 C 10,0 C 6,7 C 97 % 1012,0 hPa 0,0 l/m 0,1 km/h (0 Bft) O 97 0 min 0,000 mm 0,0 UV-I 0 W/m 9,1 C 9,6 C 1,6 km/h (1 Bft) 100,00 %
05.11.2018 04:04 9,4 C 10,0 C 6,7 C 96 % 1011,9 hPa 0,0 l/m 0,3 km/h (0 Bft) O 97 0 min 0,000 mm 0,0 UV-I 0 W/m 8,8 C 9,4 C 1,6 km/h (1 Bft) 97,87 %
05.11.2018 04:06 9,5 C 10,0 C 6,7 C 96 % 1011,9 hPa 0,0 l/m 2,0 km/h (1 Bft) O 97 0 min 0,000 mm 0,0 UV-I 0 W/m 8,9 C 9,5 C 3,2 km/h (1 Bft) 100,00 %
05.11.2018 04:08 9,4 C 10,0 C 6,7 C 96 % 1011,9 hPa 0,0 l/m 2,0 km/h (1 Bft) O 97 0 min 0,000 mm 0,0 UV-I 0 W/m 8,8 C 9,4 C 3,2 km/h (1 Bft) 97,92 %
05.11.2018 04:10 9,4 C 10,0 C 6,7 C 96 % 1012,0 hPa 0,0 l/m 0,7 km/h (0 Bft) O 97 0 min 0,000 mm 0,0 UV-I 0 W/m 8,8 C 9,4 C 1,6 km/h (1 Bft) 100,00 %
05.11.2018 04:12 9,3 C 10,0 C 6,7 C 96 % 1012,0 hPa 0,0 l/m 1,2 km/h (1 Bft) O 97 0 min 0,000 mm 0,0 UV-I 0 W/m 8,7 C 9,3 C 3,2 km/h (1 Bft) 100,00 %
05.11.2018 04:14 9,4 C 10,0 C 7,2 C 97 % 1011,8 hPa 0,0 l/m 3,9 km/h (1 Bft) NO 45 0 min 0,000 mm 0,0 UV-I 0 W/m 8,9 C 9,4 C 4,8 km/h (1 Bft) 100,00 %
05.11.2018 04:16 9,3 C 10,0 C 7,2 C 96 % 1011,8 hPa 0,0 l/m 4,7 km/h (1 Bft) NO 47 0 min 0,000 mm 0,0 UV-I 0 W/m 8,7 C 9,3 C 6,4 km/h (2 Bft) 97,87 %
05.11.2018 04:18 9,3 C 10,0 C 7,2 C 96 % 1012,0 hPa 0,0 l/m 2,6 km/h (1 Bft) NO 47 0 min 0,000 mm 0,0 UV-I 0 W/m 8,7 C 9,3 C 4,8 km/h (1 Bft) 95,74 %
05.11.2018 04:20 9,3 C 10,0 C 7,2 C 97 % 1011,9 hPa 0,0 l/m 2,6 km/h (1 Bft) O 93 0 min 0,000 mm 0,0 UV-I 0 W/m 8,8 C 9,3 C 4,8 km/h (1 Bft) 100,00 %
05.11.2018 04:22 9,3 C 10,0 C 7,2 C 97 % 1011,9 hPa 0,0 l/m 2,0 km/h (1 Bft) O 92 0 min 0,000 mm 0,0 UV-I 0 W/m 8,8 C 9,3 C 3,2 km/h (1 Bft) 98,39 %
05.11.2018 04:24 9,3 C 10,0 C 7,2 C 96 % 1011,9 hPa 0,0 l/m 2,5 km/h (1 Bft) O 93 0 min 0,000 mm 0,0 UV-I 0 W/m 8,7 C 9,3 C 4,8 km/h (1 Bft) 100,00 %
05.11.2018 04:26 9,3 C 10,0 C 7,2 C 97 % 1012,0 hPa 0,0 l/m 2,5 km/h (1 Bft) O 93 0 min 0,000 mm 0,0 UV-I 0 W/m 8,8 C 9,3 C 4,8 km/h (1 Bft) 97,96 %
05.11.2018 04:28 9,3 C 10,0 C 7,2 C 97 % 1011,9 hPa 0,0 l/m 3,5 km/h (1 Bft) O 93 0 min 0,000 mm 0,0 UV-I 0 W/m 8,8 C 9,3 C 6,4 km/h (2 Bft) 100,00 %
05.11.2018 04:30 9,4 C 10,0 C 7,2 C 97 % 1011,9 hPa 0,0 l/m 5,3 km/h (1 Bft) O-SO 113 0 min 0,000 mm 0,0 UV-I 0 W/m 8,9 C 9,4 C 9,7 km/h (2 Bft) 100,00 %
05.11.2018 04:32 9,6 C 10,0 C 7,8 C 97 % 1011,9 hPa 0,0 l/m 3,0 km/h (1 Bft) O 86 0 min 0,000 mm 0,0 UV-I 0 W/m 9,1 C 9,6 C 9,7 km/h (2 Bft) 100,00 %
05.11.2018 04:34 9,6 C 10,0 C 7,8 C 96 % 1012,0 hPa 0,0 l/m 3,0 km/h (1 Bft) O-SO 104 0 min 0,000 mm 0,0 UV-I 0 W/m 9,0 C 9,6 C 6,4 km/h (2 Bft) 100,00 %
05.11.2018 04:36 9,6 C 10,0 C 7,8 C 96 % 1011,9 hPa 0,0 l/m 1,7 km/h (1 Bft) O-SO 104 0 min 0,000 mm 0,0 UV-I 0 W/m 9,0 C 9,6 C 3,2 km/h (1 Bft) 100,00 %
05.11.2018 04:38 9,6 C 10,0 C 7,8 C 96 % 1011,9 hPa 0,0 l/m 3,1 km/h (1 Bft) NO 51 0 min 0,000 mm 0,0 UV-I 0 W/m 9,0 C 9,6 C 6,4 km/h (2 Bft) 100,00 %
05.11.2018 04:40 9,6 C 10,0 C 7,8 C 96 % 1011,9 hPa 0,0 l/m 5,0 km/h (1 Bft) O-NO 73 0 min 0,000 mm 0,0 UV-I 0 W/m 9,0 C 9,6 C 11,3 km/h (2 Bft) 100,00 %
05.11.2018 04:42 9,6 C 10,0 C 7,8 C 96 % 1011,9 hPa 0,0 l/m 4,2 km/h (1 Bft) O-NO 67 0 min 0,000 mm 0,0 UV-I 0 W/m 9,0 C 9,6 C 6,4 km/h (2 Bft) 97,87 %
05.11.2018 04:44 9,5 C 10,0 C 7,8 C 96 % 1011,8 hPa 0,0 l/m 4,1 km/h (1 Bft) O 86 0 min 0,000 mm 0,0 UV-I 0 W/m 8,9 C 9,5 C 6,4 km/h (2 Bft) 95,74 %
05.11.2018 04:46 9,6 C 10,0 C 7,8 C 96 % 1011,9 hPa 0,0 l/m 4,5 km/h (1 Bft) O-SO 105 0 min 0,000 mm 0,0 UV-I 0 W/m 9,0 C 9,6 C 6,4 km/h (2 Bft) 95,74 %
05.11.2018 04:48 9,7 C 10,0 C 7,8 C 96 % 1011,9 hPa 0,0 l/m 4,1 km/h (1 Bft) O 84 0 min 0,000 mm 0,0 UV-I 0 W/m 9,1 C 9,7 C 6,4 km/h (2 Bft) 95,83 %
05.11.2018 04:50 9,7 C 10,0 C 7,8 C 96 % 1011,8 hPa 0,0 l/m 4,5 km/h (1 Bft) O 94 0 min 0,000 mm 0,0 UV-I 0 W/m 9,1 C 9,7 C 6,4 km/h (2 Bft) 93,62 %
05.11.2018 04:52 9,7 C 10,0 C 7,8 C 96 % 1011,8 hPa 0,0 l/m 5,3 km/h (1 Bft) O 84 0 min 0,000 mm 0,0 UV-I 0 W/m 9,1 C 9,7 C 8,0 km/h (2 Bft) 93,62 %
05.11.2018 04:54 9,7 C 10,0 C 7,8 C 96 % 1011,8 hPa 0,0 l/m 6,5 km/h (2 Bft) O-NO 71 0 min 0,000 mm 0,0 UV-I 0 W/m 9,1 C 9,7 C 11,3 km/h (2 Bft) 93,62 %
05.11.2018 04:56 9,7 C 10,0 C 8,3 C 96 % 1011,8 hPa 0,0 l/m 7,8 km/h (2 Bft) O 80 0 min 0,000 mm 0,0 UV-I 0 W/m 9,1 C 8,7 C 11,3 km/h (2 Bft) 96,00 %
05.11.2018 04:58 9,8 C 10,0 C 7,8 C 95 % 1011,8 hPa 0,0 l/m 5,7 km/h (1 Bft) O 85 0 min 0,000 mm 0,0 UV-I 0 W/m 9,0 C 9,8 C 9,7 km/h (2 Bft) 93,62 %
05.11.2018 05:00 9,8 C 10,0 C 8,3 C 95 % 1011,8 hPa 0,0 l/m 6,9 km/h (2 Bft) O 80 0 min 0,000 mm 0,0 UV-I 0 W/m 9,0 C 9,4 C 11,3 km/h (2 Bft) 95,74 %
05.11.2018 05:02 9,8 C 10,0 C 8,3 C 95 % 1011,8 hPa 0,0 l/m 7,6 km/h (2 Bft) O 96 0 min 0,000 mm 0,0 UV-I 0 W/m 9,0 C 8,9 C 11,3 km/h (2 Bft) 95,74 %
05.11.2018 05:04 9,8 C 10,0 C 8,3 C 95 % 1011,8 hPa 0,0 l/m 8,3 km/h (2 Bft) O-NO 74 0 min 0,000 mm 0,0 UV-I 0 W/m 9,0 C 8,4 C 12,9 km/h (3 Bft) 97,56 %
05.11.2018 05:06 9,8 C 10,0 C 8,3 C 95 % 1011,8 hPa 0,0 l/m 8,0 km/h (2 Bft) O-NO 69 0 min 0,000 mm 0,0 UV-I 0 W/m 9,0 C 8,6 C 11,3 km/h (2 Bft) 96,00 %
05.11.2018 05:08 9,8 C 10,0 C 8,3 C 95 % 1011,8 hPa 0,0 l/m 7,3 km/h (2 Bft) O-NO 71 0 min 0,000 mm 0,0 UV-I 0 W/m 9,0 C 9,1 C 11,3 km/h (2 Bft) 97,87 %
05.11.2018 05:10 9,8 C 10,0 C 8,3 C 95 % 1011,8 hPa 0,0 l/m 5,9 km/h (2 Bft) O 92 0 min 0,000 mm 0,0 UV-I 0 W/m 9,0 C 9,8 C 9,7 km/h (2 Bft) 97,96 %
05.11.2018 05:12 9,8 C 10,0 C 8,3 C 95 % 1011,8 hPa 0,0 l/m 5,0 km/h (1 Bft) O 80 0 min 0,000 mm 0,0 UV-I 0 W/m 9,0 C 9,8 C 9,7 km/h (2 Bft) 97,87 %
05.11.2018 05:14 9,8 C 10,0 C 8,3 C 95 % 1011,7 hPa 0,0 l/m 3,9 km/h (1 Bft) O 86 0 min 0,000 mm 0,0 UV-I 0 W/m 9,0 C 9,8 C 6,4 km/h (2 Bft) 97,87 %
05.11.2018 05:16 9,8 C 10,0 C 8,3 C 95 % 1011,7 hPa 0,0 l/m 5,1 km/h (1 Bft) O-NO 74 0 min 0,000 mm 0,0 UV-I 0 W/m 9,0 C 9,8 C 12,9 km/h (3 Bft) 94,29 %
05.11.2018 05:18 9,8 C 10,0 C 8,3 C 95 % 1011,7 hPa 0,0 l/m 6,5 km/h (2 Bft) O-NO 69 0 min 0,000 mm 0,0 UV-I 0 W/m 9,0 C 9,8 C 9,7 km/h (2 Bft) 96,23 %
05.11.2018 05:20 9,8 C 10,0 C 8,3 C 95 % 1011,8 hPa 0,0 l/m 6,3 km/h (2 Bft) SO 140 0 min 0,000 mm 0,0 UV-I 0 W/m 9,0 C 9,8 C 11,3 km/h (2 Bft) 100,00 %
05.11.2018 05:22 9,9 C 10,0 C 8,3 C 95 % 1011,8 hPa 0,0 l/m 4,1 km/h (1 Bft) O-SO 115 0 min 0,000 mm 0,0 UV-I 0 W/m 9,1 C 9,9 C 8,0 km/h (2 Bft) 100,00 %
05.11.2018 05:24 9,9 C 10,0 C 8,3 C 95 % 1011,8 hPa 0,0 l/m 7,7 km/h (2 Bft) O-SO 117 0 min 0,000 mm 0,0 UV-I 0 W/m 9,1 C 9,0 C 11,3 km/h (2 Bft) 100,00 %
05.11.2018 05:26 10,0 C 10,0 C 8,3 C 95 % 1011,8 hPa 0,0 l/m 6,7 km/h (2 Bft) O 91 0 min 0,000 mm 0,0 UV-I 0 W/m 9,2 C 9,8 C 12,9 km/h (3 Bft) 98,00 %
05.11.2018 05:28 10,1 C 10,0 C 8,3 C 95 % 1011,7 hPa 0,0 l/m 9,0 km/h (2 Bft) O 92 0 min 0,000 mm 0,0 UV-I 0 W/m 9,3 C 8,3 C 14,5 km/h (3 Bft) 98,00 %
05.11.2018 05:30 10,1 C 10,0 C 8,9 C 95 % 1011,8 hPa 0,0 l/m 9,6 km/h (2 Bft) O 100 0 min 0,000 mm 0,0 UV-I 0 W/m 9,3 C 7,9 C 14,5 km/h (3 Bft) 95,74 %
05.11.2018 05:32 10,0 C 10,0 C 8,3 C 94 % 1011,7 hPa 0,0 l/m 7,7 km/h (2 Bft) O 84 0 min 0,000 mm 0,0 UV-I 0 W/m 9,1 C 9,1 C 12,9 km/h (3 Bft) 98,00 %
05.11.2018 05:34 10,0 C 10,0 C 8,3 C 94 % 1011,6 hPa 0,0 l/m 7,4 km/h (2 Bft) O 79 0 min 0,000 mm 0,0 UV-I 0 W/m 9,1 C 9,3 C 11,3 km/h (2 Bft) 93,62 %
05.11.2018 05:36 10,0 C 10,0 C 8,3 C 94 % 1011,7 hPa 0,0 l/m 8,7 km/h (2 Bft) O-SO 105 0 min 0,000 mm 0,0 UV-I 0 W/m 9,1 C 8,4 C 12,9 km/h (3 Bft) 95,74 %
05.11.2018 05:38 9,9 C 10,0 C 8,3 C 94 % 1011,7 hPa 0,0 l/m 9,9 km/h (2 Bft) O-SO 113 0 min 0,000 mm 0,0 UV-I 0 W/m 9,0 C 7,5 C 12,9 km/h (3 Bft) 97,87 %
05.11.2018 05:40 9,9 C 10,0 C 8,3 C 94 % 1011,7 hPa 0,0 l/m 5,8 km/h (2 Bft) O 96 0 min 0,000 mm 0,0 UV-I 0 W/m 9,0 C 9,9 C 9,7 km/h (2 Bft) 97,87 %
05.11.2018 05:42 9,9 C 10,0 C 8,3 C 94 % 1011,7 hPa 0,0 l/m 7,8 km/h (2 Bft) O 91 0 min 0,000 mm 0,0 UV-I 0 W/m 9,0 C 8,9 C 11,3 km/h (2 Bft) 94,74 %
05.11.2018 05:44 9,9 C 10,0 C 8,3 C 94 % 1011,7 hPa 0,0 l/m 6,8 km/h (2 Bft) O 88 0 min 0,000 mm 0,0 UV-I 0 W/m 9,0 C 9,6 C 12,9 km/h (3 Bft) 97,87 %
05.11.2018 05:46 9,9 C 10,0 C 8,3 C 94 % 1011,7 hPa 0,0 l/m 7,0 km/h (2 Bft) O-NO 76 0 min 0,000 mm 0,0 UV-I 0 W/m 9,0 C 9,5 C 11,3 km/h (2 Bft) 98,00 %
05.11.2018 05:48 10,0 C 10,0 C 8,9 C 94 % 1011,7 hPa 0,0 l/m 7,0 km/h (2 Bft) NO 42 0 min 0,000 mm 0,0 UV-I 0 W/m 9,1 C 9,6 C 12,9 km/h (3 Bft) 97,87 %
05.11.2018 05:50 10,0 C 10,0 C 8,3 C 94 % 1011,8 hPa 0,0 l/m 8,4 km/h (2 Bft) O-SO 107 0 min 0,000 mm 0,0 UV-I 0 W/m 9,1 C 8,6 C 12,9 km/h (3 Bft) 97,87 %
05.11.2018 05:52 10,0 C 10,0 C 8,3 C 94 % 1011,7 hPa 0,0 l/m 10,1 km/h (2 Bft) O-SO 106 0 min 0,000 mm 0,0 UV-I 0 W/m 9,1 C 7,5 C 12,9 km/h (3 Bft) 93,62 %
05.11.2018 05:54 10,0 C 10,0 C 8,3 C 94 % 1011,7 hPa 0,0 l/m 8,4 km/h (2 Bft) O 81 0 min 0,000 mm 0,0 UV-I 0 W/m 9,1 C 8,6 C 12,9 km/h (3 Bft) 95,74 %
05.11.2018 05:56 9,9 C 10,0 C 8,3 C 94 % 1011,6 hPa 0,0 l/m 10,1 km/h (2 Bft) O-NO 78 0 min 0,000 mm 0,0 UV-I 0 W/m 9,0 C 7,4 C 12,9 km/h (3 Bft) 96,00 %
05.11.2018 05:58 9,9 C 10,0 C 8,3 C 94 % 1011,6 hPa 0,0 l/m 11,4 km/h (2 Bft) O-NO 67 0 min 0,000 mm 0,0 UV-I 0 W/m 9,0 C 6,7 C 16,1 km/h (3 Bft) 95,74 %
05.11.2018 06:00 9,9 C 10,0 C 8,3 C 94 % 1011,6 hPa 0,0 l/m 11,0 km/h (2 Bft) O 79 0 min 0,000 mm 0,0 UV-I 0 W/m 9,0 C 6,9 C 14,5 km/h (3 Bft) 97,87 %
05.11.2018 06:02 9,9 C 10,0 C 8,3 C 94 % 1011,8 hPa 0,0 l/m 7,8 km/h (2 Bft) O 89 0 min 0,000 mm 0,0 UV-I 0 W/m 9,0 C 8,9 C 14,5 km/h (3 Bft) 91,49 %
05.11.2018 06:04 9,9 C 10,0 C 8,3 C 94 % 1011,8 hPa 0,0 l/m 5,2 km/h (1 Bft) O 92 0 min 0,000 mm 0,0 UV-I 0 W/m 9,0 C 9,9 C 8,0 km/h (2 Bft) 95,74 %
05.11.2018 06:06 9,8 C 10,0 C 8,3 C 94 % 1011,8 hPa 0,0 l/m 5,2 km/h (1 Bft) O 84 0 min 0,000 mm 0,0 UV-I 0 W/m 8,9 C 9,8 C 8,0 km/h (2 Bft) 95,74 %
05.11.2018 06:08 9,8 C 10,0 C 8,3 C 94 % 1011,8 hPa 0,0 l/m 3,7 km/h (1 Bft) O 82 0 min 0,000 mm 0,0 UV-I 0 W/m 8,9 C 9,8 C 6,4 km/h (2 Bft) 97,92 %
05.11.2018 06:10 9,7 C 10,0 C 7,8 C 94 % 1011,9 hPa 0,0 l/m 4,0 km/h (1 Bft) O-NO 74 0 min 0,000 mm 0,0 UV-I 0 W/m 8,8 C 9,7 C 8,0 km/h (2 Bft) 94,74 %
05.11.2018 06:12 9,6 C 10,0 C 7,8 C 94 % 1011,8 hPa 0,0 l/m 5,5 km/h (1 Bft) O-NO 74 0 min 0,000 mm 0,0 UV-I 0 W/m 8,7 C 9,6 C 11,3 km/h (2 Bft) 95,74 %
05.11.2018 06:14 9,6 C 10,0 C 7,8 C 94 % 1011,8 hPa 0,0 l/m 3,7 km/h (1 Bft) O 86 0 min 0,000 mm 0,0 UV-I 0 W/m 8,7 C 9,6 C 4,8 km/h (1 Bft) 95,92 %
05.11.2018 06:16 9,5 C 10,0 C 7,8 C 94 % 1011,7 hPa 0,0 l/m 4,8 km/h (1 Bft) NO 51 0 min 0,000 mm 0,0 UV-I 0 W/m 8,6 C 9,5 C 8,0 km/h (2 Bft) 91,49 %
05.11.2018 06:18 9,4 C 10,0 C 7,8 C 94 % 1011,7 hPa 0,0 l/m 8,2 km/h (2 Bft) NO 55 0 min 0,000 mm 0,0 UV-I 0 W/m 8,5 C 8,1 C 9,7 km/h (2 Bft) 91,49 %
05.11.2018 06:20 9,3 C 10,0 C 7,8 C 94 % 1011,7 hPa 0,0 l/m 8,9 km/h (2 Bft) NO 42 0 min 0,000 mm 0,0 UV-I 0 W/m 8,4 C 7,5 C 14,5 km/h (3 Bft) 94,00 %
05.11.2018 06:22 9,3 C 10,0 C 7,8 C 94 % 1011,7 hPa 0,0 l/m 8,6 km/h (2 Bft) NO 55 0 min 0,000 mm 0,0 UV-I 0 W/m 8,4 C 7,7 C 14,5 km/h (3 Bft) 95,74 %
05.11.2018 06:24 9,3 C 10,0 C 7,8 C 95 % 1011,7 hPa 0,0 l/m 4,8 km/h (1 Bft) O 80 0 min 0,000 mm 0,0 UV-I 0 W/m 8,5 C 9,3 C 14,5 km/h (3 Bft) 95,74 %
05.11.2018 06:26 9,3 C 10,0 C 7,8 C 95 % 1011,6 hPa 0,0 l/m 4,8 km/h (1 Bft) O-NO 61 0 min 0,000 mm 0,0 UV-I 0 W/m 8,5 C 9,3 C 6,4 km/h (2 Bft) 98,00 %
05.11.2018 06:28 9,2 C 10,0 C 7,8 C 94 % 1011,7 hPa 0,0 l/m 7,0 km/h (2 Bft) O-NO 59 0 min 0,000 mm 0,0 UV-I 0 W/m 8,3 C 8,8 C 8,0 km/h (2 Bft) 97,37 %
05.11.2018 06:30 9,2 C 10,0 C 7,2 C 94 % 1011,7 hPa 0,0 l/m 5,4 km/h (1 Bft) NO 41 0 min 0,000 mm 0,0 UV-I 0 W/m 8,3 C 9,2 C 8,0 km/h (2 Bft) 95,74 %
05.11.2018 06:32 9,1 C 10,0 C 7,2 C 94 % 1011,7 hPa 0,0 l/m 6,3 km/h (2 Bft) O-NO 63 0 min 0,000 mm 0,0 UV-I 0 W/m 8,2 C 9,1 C 8,0 km/h (2 Bft) 97,87 %
05.11.2018 06:34 9,1 C 10,0 C 7,2 C 95 % 1011,9 hPa 0,0 l/m 3,9 km/h (1 Bft) O 80 0 min 0,000 mm 0,0 UV-I 0 W/m 8,3 C 9,1 C 8,0 km/h (2 Bft) 97,87 %
05.11.2018 06:36 9,1 C 10,0 C 7,2 C 95 % 1011,8 hPa 0,0 l/m 5,1 km/h (1 Bft) NO 51 0 min 0,000 mm 0,0 UV-I 0 W/m 8,3 C 9,1 C 8,0 km/h (2 Bft) 95,74 %
05.11.2018 06:38 8,9 C 10,0 C 7,2 C 95 % 1011,8 hPa 0,0 l/m 6,7 km/h (2 Bft) O 87 0 min 0,000 mm 0,0 UV-I 0 W/m 8,1 C 8,7 C 9,7 km/h (2 Bft) 97,87 %
05.11.2018 06:40 9,0 C 10,0 C 7,2 C 95 % 1011,8 hPa 0,0 l/m 6,3 km/h (2 Bft) O-NO 62 0 min 0,000 mm 0,0 UV-I 0 W/m 8,2 C 9,0 C 12,9 km/h (3 Bft) 100,00 %
05.11.2018 06:42 8,9 C 10,0 C 7,2 C 95 % 1011,8 hPa 0,0 l/m 7,6 km/h (2 Bft) O-NO 67 0 min 0,000 mm 0,0 UV-I 0 W/m 8,1 C 8,0 C 11,3 km/h (2 Bft) 100,00 %
05.11.2018 06:44 9,1 C 10,0 C 7,8 C 95 % 1011,9 hPa 0,0 l/m 7,9 km/h (2 Bft) O-NO 74 0 min 0,000 mm 0,0 UV-I 0 W/m 8,3 C 8,0 C 12,9 km/h (3 Bft) 97,87 %
05.11.2018 06:46 9,1 C 10,0 C 7,8 C 95 % 1011,8 hPa 0,0 l/m 7,4 km/h (2 Bft) O-NO 71 0 min 0,000 mm 0,0 UV-I 0 W/m 8,3 C 8,3 C 12,9 km/h (3 Bft) 97,87 %
05.11.2018 06:48 9,1 C 10,0 C 7,8 C 95 % 1011,9 hPa 0,0 l/m 8,8 km/h (2 Bft) O-NO 69 0 min 0,000 mm 0,0 UV-I 0 W/m 8,3 C 7,4 C 12,9 km/h (3 Bft) 95,74 %
05.11.2018 06:50 9,1 C 10,0 C 7,8 C 95 % 1012,0 hPa 0,0 l/m 8,4 km/h (2 Bft) O-NO 76 0 min 0,000 mm 0,0 UV-I 0 W/m 8,3 C 7,6 C 14,5 km/h (3 Bft) 95,74 %
05.11.2018 06:52 9,2 C 10,0 C 7,8 C 95 % 1011,8 hPa 0,0 l/m 10,2 km/h (2 Bft) O-NO 63 0 min 0,000 mm 0,0 UV-I 3 W/m 8,4 C 6,6 C 14,5 km/h (3 Bft) 95,74 %
05.11.2018 06:54 9,2 C 10,0 C 7,8 C 95 % 1011,8 hPa 0,0 l/m 10,4 km/h (2 Bft) O 83 0 min 0,000 mm 0,0 UV-I 5 W/m 8,4 C 6,5 C 14,5 km/h (3 Bft) 97,87 %
05.11.2018 06:56 9,2 C 10,0 C 7,8 C 95 % 1011,9 hPa 0,0 l/m 6,6 km/h (2 Bft) O 83 0 min 0,000 mm 0,0 UV-I 5 W/m 8,4 C 9,1 C 11,3 km/h (2 Bft) 95,74 %
05.11.2018 06:58 9,2 C 10,0 C 7,8 C 95 % 1011,9 hPa 0,0 l/m 8,3 km/h (2 Bft) O 83 0 min 0,000 mm 0,0 UV-I 5 W/m 8,4 C 7,8 C 14,5 km/h (3 Bft) 98,00 %
05.11.2018 07:00 9,2 C 10,0 C 7,8 C 95 % 1011,9 hPa 0,0 l/m 12,4 km/h (3 Bft) O 96 0 min 0,000 mm 0,0 UV-I 5 W/m 8,4 C 5,4 C 17,7 km/h (3 Bft) 95,74 %
05.11.2018 07:02 9,2 C 10,0 C 8,3 C 95 % 1011,9 hPa 0,0 l/m 12,0 km/h (2 Bft) O 86 0 min 0,000 mm 0,0 UV-I 5 W/m 8,4 C 5,6 C 17,7 km/h (3 Bft) 97,56 %
05.11.2018 07:04 9,2 C 10,0 C 8,3 C 95 % 1012,0 hPa 0,0 l/m 12,7 km/h (3 Bft) O-NO 76 0 min 0,000 mm 0,0 UV-I 6 W/m 8,4 C 5,2 C 17,7 km/h (3 Bft) 96,00 %
05.11.2018 07:06 9,2 C 10,0 C 8,3 C 95 % 1011,9 hPa 0,0 l/m 13,5 km/h (3 Bft) O 81 0 min 0,000 mm 0,0 UV-I 7 W/m 8,4 C 4,8 C 17,7 km/h (3 Bft) 95,74 %
05.11.2018 07:08 9,3 C 10,0 C 8,3 C 95 % 1012,0 hPa 0,0 l/m 11,4 km/h (2 Bft) O 84 0 min 0,000 mm 0,0 UV-I 7 W/m 8,5 C 6,0 C 16,1 km/h (3 Bft) 97,87 %
05.11.2018 07:10 9,3 C 10,0 C 8,3 C 95 % 1011,8 hPa 0,0 l/m 10,1 km/h (2 Bft) NO 55 0 min 0,000 mm 0,0 UV-I 9 W/m 8,5 C 6,8 C 19,3 km/h (3 Bft) 96,00 %
05.11.2018 07:12 9,2 C 10,0 C 8,3 C 95 % 1011,8 hPa 0,0 l/m 12,4 km/h (3 Bft) O-NO 77 0 min 0,000 mm 0,0 UV-I 10 W/m 8,4 C 5,4 C 17,7 km/h (3 Bft) 93,62 %
05.11.2018 07:14 9,3 C 10,0 C 8,3 C 95 % 1012,1 hPa 0,0 l/m 9,2 km/h (2 Bft) O 87 0 min 0,000 mm 0,0 UV-I 11 W/m 8,5 C 7,3 C 16,1 km/h (3 Bft) 95,74 %
05.11.2018 07:16 9,3 C 10,0 C 8,3 C 95 % 1012,1 hPa 0,0 l/m 7,3 km/h (2 Bft) SO 128 0 min 0,000 mm 0,0 UV-I 12 W/m 8,5 C 8,6 C 12,9 km/h (3 Bft) 95,74 %
05.11.2018 07:18 9,2 C 10,0 C 8,3 C 95 % 1011,9 hPa 0,0 l/m 11,8 km/h (2 Bft) O 79 0 min 0,000 mm 0,0 UV-I 12 W/m 8,4 C 5,7 C 17,7 km/h (3 Bft) 93,62 %
05.11.2018 07:20 9,3 C 10,0 C 8,3 C 95 % 1011,9 hPa 0,0 l/m 10,2 km/h (2 Bft) O-NO 73 0 min 0,000 mm 0,0 UV-I 14 W/m 8,5 C 6,7 C 14,5 km/h (3 Bft) 97,87 %
05.11.2018 07:22 9,3 C 10,0 C 8,3 C 95 % 1011,9 hPa 0,0 l/m 11,6 km/h (2 Bft) O-NO 61 0 min 0,000 mm 0,0 UV-I 15 W/m 8,5 C 5,9 C 16,1 km/h (3 Bft) 97,44 %
05.11.2018 07:24 9,3 C 10,0 C 8,3 C 95 % 1012,1 hPa 0,0 l/m 9,4 km/h (2 Bft) O-SO 119 0 min 0,000 mm 0,0 UV-I 18 W/m 8,5 C 7,2 C 16,1 km/h (3 Bft) 94,00 %
05.11.2018 07:26 9,3 C 10,0 C 8,3 C 95 % 1012,3 hPa 0,0 l/m 7,8 km/h (2 Bft) SO 124 0 min 0,000 mm 0,0 UV-I 18 W/m 8,5 C 8,3 C 14,5 km/h (3 Bft) 93,62 %
05.11.2018 07:28 9,4 C 10,0 C 8,3 C 95 % 1011,9 hPa 0,0 l/m 11,1 km/h (2 Bft) O-NO 65 0 min 0,000 mm 0,0 UV-I 19 W/m 8,6 C 6,3 C 14,5 km/h (3 Bft) 98,00 %
05.11.2018 07:30 9,4 C 10,0 C 8,3 C 95 % 1011,7 hPa 0,0 l/m 18,5 km/h (3 Bft) NO 40 0 min 0,000 mm 0,0 UV-I 19 W/m 8,6 C 3,0 C 25,7 km/h (4 Bft) 93,62 %
05.11.2018 07:32 9,4 C 10,0 C 8,3 C 95 % 1012,2 hPa 0,0 l/m 13,0 km/h (3 Bft) S 184 0 min 0,000 mm 0,0 UV-I 19 W/m 8,6 C 5,3 C 22,5 km/h (4 Bft) 93,62 %
05.11.2018 07:34 9,4 C 10,0 C 8,3 C 95 % 1012,0 hPa 0,0 l/m 8,4 km/h (2 Bft) O-NO 62 0 min 0,000 mm 0,0 UV-I 21 W/m 8,6 C 7,9 C 19,3 km/h (3 Bft) 95,74 %
05.11.2018 07:36 9,4 C 10,0 C 8,3 C 95 % 1011,8 hPa 0,0 l/m 16,2 km/h (3 Bft) NO 49 0 min 0,000 mm 0,0 UV-I 21 W/m 8,6 C 3,9 C 24,1 km/h (4 Bft) 96,00 %
05.11.2018 07:38 9,4 C 10,0 C 8,9 C 95 % 1011,9 hPa 0,0 l/m 16,5 km/h (3 Bft) O-NO 70 0 min 0,000 mm 0,0 UV-I 23 W/m 8,6 C 3,8 C 25,7 km/h (4 Bft) 100,00 %
05.11.2018 07:40 9,5 C 10,0 C 8,9 C 95 % 1012,2 hPa 0,0 l/m 10,8 km/h (2 Bft) S-SO 155 0 min 0,000 mm 0,0 UV-I 24 W/m 8,7 C 6,6 C 19,3 km/h (3 Bft) 89,36 %
05.11.2018 07:42 9,6 C 10,0 C 8,9 C 95 % 1012,0 hPa 0,0 l/m 9,6 km/h (2 Bft) O-NO 69 0 min 0,000 mm 0,0 UV-I 25 W/m 8,8 C 7,4 C 17,7 km/h (3 Bft) 96,00 %
05.11.2018 07:44 9,6 C 10,0 C 8,3 C 95 % 1011,8 hPa 0,0 l/m 18,6 km/h (3 Bft) O 97 0 min 0,000 mm 0,0 UV-I 27 W/m 8,8 C 3,2 C 25,7 km/h (4 Bft) 100,00 %
05.11.2018 07:46 9,6 C 10,0 C 8,9 C 95 % 1011,9 hPa 0,0 l/m 17,1 km/h (3 Bft) O 87 0 min 0,000 mm 0,0 UV-I 30 W/m 8,8 C 3,8 C 24,1 km/h (4 Bft) 96,00 %
05.11.2018 07:48 9,6 C 10,0 C 8,9 C 95 % 1012,0 hPa 0,0 l/m 12,5 km/h (3 Bft) O-NO 75 0 min 0,000 mm 0,0 UV-I 32 W/m 8,8 C 5,8 C 24,1 km/h (4 Bft) 100,00 %
05.11.2018 07:50 9,7 C 10,0 C 8,9 C 95 % 1012,2 hPa 0,0 l/m 8,0 km/h (2 Bft) O-SO 123 0 min 0,000 mm 0,0 UV-I 36 W/m 8,9 C 8,5 C 17,7 km/h (3 Bft) 100,00 %
05.11.2018 07:52 9,7 C 10,0 C 8,9 C 95 % 1012,2 hPa 0,0 l/m 3,5 km/h (1 Bft) O 99 0 min 0,000 mm 0,0 UV-I 39 W/m 8,9 C 9,7 C 6,4 km/h (2 Bft) 100,00 %
05.11.2018 07:54 9,7 C 10,0 C 8,9 C 94 % 1012,1 hPa 0,0 l/m 6,6 km/h (2 Bft) O 86 0 min 0,000 mm 0,0 UV-I 41 W/m 8,8 C 9,6 C 11,3 km/h (2 Bft) 100,00 %
05.11.2018 07:56 9,7 C 10,0 C 8,9 C 94 % 1012,1 hPa 0,0 l/m 13,4 km/h (3 Bft) O-NO 67 0 min 0,000 mm 0,0 UV-I 45 W/m 8,8 C 5,5 C 19,3 km/h (3 Bft) 100,00 %
05.11.2018 07:58 9,7 C 10,0 C 8,9 C 94 % 1012,2 hPa 0,0 l/m 11,4 km/h (2 Bft) O-NO 77 0 min 0,000 mm 0,0 UV-I 50 W/m 8,8 C 6,5 C 14,5 km/h (3 Bft) 97,87 %
05.11.2018 08:00 9,7 C 10,0 C 8,9 C 94 % 1012,3 hPa 0,0 l/m 12,2 km/h (2 Bft) O-SO 113 0 min 0,025 mm 0,0 UV-I 58 W/m 8,8 C 6,1 C 16,1 km/h (3 Bft) 100,00 %
05.11.2018 08:02 9,7 C 10,0 C 8,9 C 94 % 1012,3 hPa 0,0 l/m 7,1 km/h (2 Bft) O 83 0 min 0,000 mm 0,0 UV-I 60 W/m 8,8 C 9,2 C 11,3 km/h (2 Bft) 97,87 %
05.11.2018 08:04 9,8 C 10,0 C 8,9 C 94 % 1012,1 hPa 0,0 l/m 11,6 km/h (2 Bft) O 90 0 min 0,000 mm 0,0 UV-I 64 W/m 8,9 C 6,5 C 20,9 km/h (4 Bft) 100,00 %
05.11.2018 08:06 9,8 C 10,0 C 8,9 C 94 % 1012,1 hPa 0,0 l/m 15,9 km/h (3 Bft) O-NO 77 0 min 0,000 mm 0,0 UV-I 75 W/m 8,9 C 4,5 C 19,3 km/h (3 Bft) 100,00 %
05.11.2018 08:08 9,8 C 10,0 C 9,4 C 94 % 1012,1 hPa 0,0 l/m 15,8 km/h (3 Bft) O-NO 71 0 min 0,000 mm 0,0 UV-I 82 W/m 8,9 C 4,6 C 22,5 km/h (4 Bft) 98,11 %
05.11.2018 08:10 9,9 C 10,0 C 9,4 C 94 % 1012,1 hPa 0,0 l/m 12,8 km/h (3 Bft) O-NO 78 0 min 0,000 mm 0,0 UV-I 88 W/m 9,0 C 6,0 C 17,7 km/h (3 Bft) 100,00 %
05.11.2018 08:12 9,9 C 10,0 C 9,4 C 94 % 1012,2 hPa 0,0 l/m 8,3 km/h (2 Bft) SO 136 0 min 0,000 mm 0,0 UV-I 95 W/m 9,0 C 8,5 C 16,1 km/h (3 Bft) 100,00 %
05.11.2018 08:14 9,9 C 10,0 C 9,4 C 94 % 1012,2 hPa 0,0 l/m 7,3 km/h (2 Bft) O-NO 76 0 min 0,000 mm 0,0 UV-I 99 W/m 9,0 C 9,2 C 12,9 km/h (3 Bft) 100,00 %
05.11.2018 08:16 10,0 C 10,0 C 9,4 C 94 % 1012,3 hPa 0,0 l/m 10,0 km/h (2 Bft) O 101 0 min 0,000 mm 0,0 UV-I 98 W/m 9,1 C 7,6 C 16,1 km/h (3 Bft) 100,00 %
05.11.2018 08:18 10,1 C 10,0 C 9,4 C 94 % 1012,2 hPa 0,0 l/m 12,9 km/h (3 Bft) NO 53 0 min 0,000 mm 0,0 UV-I 106 W/m 9,2 C 6,2 C 17,7 km/h (3 Bft) 97,87 %
05.11.2018 08:20 10,1 C 10,0 C 10,0 C 94 % 1012,3 hPa 0,0 l/m 11,5 km/h (2 Bft) O 80 2 min 0,000 mm 0,0 UV-I 113 W/m 9,2 C 6,9 C 16,1 km/h (3 Bft) 94,74 %
05.11.2018 08:22 10,1 C 10,0 C 10,0 C 94 % 1012,3 hPa 0,0 l/m 12,8 km/h (3 Bft) O 80 2 min 0,000 mm 0,0 UV-I 129 W/m 9,2 C 6,2 C 20,9 km/h (4 Bft) 98,04 %
05.11.2018 08:24 10,2 C 10,0 C 10,0 C 94 % 1012,4 hPa 0,0 l/m 11,7 km/h (2 Bft) O 84 2 min 0,000 mm 0,0 UV-I 144 W/m 9,3 C 6,9 C 16,1 km/h (3 Bft) 100,00 %
05.11.2018 08:26 10,3 C 10,0 C 10,0 C 94 % 1012,3 hPa 0,0 l/m 14,2 km/h (3 Bft) O 88 2 min 0,000 mm 0,0 UV-I 160 W/m 9,4 C 5,8 C 20,9 km/h (4 Bft) 93,62 %
05.11.2018 08:28 10,3 C 10,0 C 10,6 C 94 % 1012,3 hPa 0,0 l/m 14,7 km/h (3 Bft) O 96 2 min 0,000 mm 0,0 UV-I 184 W/m 9,4 C 5,6 C 22,5 km/h (4 Bft) 96,00 %
05.11.2018 08:30 10,4 C 10,0 C 10,6 C 94 % 1012,4 hPa 0,0 l/m 12,5 km/h (3 Bft) O-NO 75 2 min 0,000 mm 0,0 UV-I 201 W/m 9,5 C 6,7 C 16,1 km/h (3 Bft) 100,00 %
05.11.2018 08:32 10,6 C 10,0 C 10,6 C 94 % 1012,4 hPa 0,0 l/m 14,4 km/h (3 Bft) O-SO 102 2 min 0,000 mm 0,0 UV-I 216 W/m 9,7 C 6,1 C 20,9 km/h (4 Bft) 100,00 %
05.11.2018 08:34 10,7 C 10,0 C 10,6 C 93 % 1012,3 hPa 0,0 l/m 14,6 km/h (3 Bft) O-NO 68 2 min 0,000 mm 0,0 UV-I 227 W/m 9,6 C 6,1 C 20,9 km/h (4 Bft) 100,00 %
05.11.2018 08:36 10,8 C 10,0 C 11,1 C 93 % 1012,4 hPa 0,0 l/m 12,7 km/h (3 Bft) O 90 2 min 0,000 mm 0,0 UV-I 229 W/m 9,7 C 7,1 C 17,7 km/h (3 Bft) 95,74 %
05.11.2018 08:38 10,9 C 10,0 C 11,1 C 93 % 1012,3 hPa 0,0 l/m 13,6 km/h (3 Bft) O-NO 71 2 min 0,000 mm 0,0 UV-I 244 W/m 9,8 C 6,8 C 19,3 km/h (3 Bft) 100,00 %
05.11.2018 08:40 11,0 C 10,0 C 11,1 C 93 % 1012,3 hPa 0,0 l/m 14,2 km/h (3 Bft) O 92 2 min 0,000 mm 0,0 UV-I 242 W/m 9,9 C 6,7 C 19,3 km/h (3 Bft) 97,87 %
05.11.2018 08:42 11,1 C 10,0 C 11,1 C 93 % 1012,2 hPa 0,0 l/m 15,2 km/h (3 Bft) O 80 2 min 0,000 mm 0,0 UV-I 249 W/m 10,0 C 6,4 C 25,7 km/h (4 Bft) 95,74 %
05.11.2018 08:44 11,1 C 10,0 C 11,1 C 92 % 1012,2 hPa 0,0 l/m 17,2 km/h (3 Bft) O 84 2 min 0,000 mm 0,0 UV-I 255 W/m 9,8 C 5,6 C 24,1 km/h (4 Bft) 95,74 %
05.11.2018 08:46 11,2 C 10,0 C 11,1 C 92 % 1012,2 hPa 0,0 l/m 19,5 km/h (3 Bft) O 84 2 min 0,000 mm 0,0 UV-I 254 W/m 9,9 C 5,0 C 25,7 km/h (4 Bft) 95,74 %
05.11.2018 08:48 11,2 C 10,0 C 11,1 C 92 % 1012,2 hPa 0,0 l/m 19,8 km/h (3 Bft) O 80 2 min 0,000 mm 0,0 UV-I 263 W/m 9,9 C 4,9 C 27,4 km/h (4 Bft) 95,74 %
05.11.2018 08:50 11,3 C 10,0 C 11,7 C 92 % 1012,2 hPa 0,0 l/m 16,3 km/h (3 Bft) O-NO 78 2 min 0,000 mm 0,0 UV-I 270 W/m 10,0 C 6,2 C 22,5 km/h (4 Bft) 95,74 %
05.11.2018 08:52 11,4 C 10,0 C 11,7 C 92 % 1012,2 hPa 0,0 l/m 22,1 km/h (4 Bft) O 92 2 min 0,000 mm 0,0 UV-I 281 W/m 10,1 C 4,5 C 29,0 km/h (5 Bft) 95,74 %
05.11.2018 08:54 11,4 C 10,0 C 11,7 C 91 % 1012,2 hPa 0,0 l/m 19,5 km/h (3 Bft) O-NO 70 2 min 0,000 mm 0,0 UV-I 294 W/m 10,0 C 5,3 C 25,7 km/h (4 Bft) 93,62 %
05.11.2018 08:56 11,5 C 10,0 C 11,7 C 91 % 1012,2 hPa 0,0 l/m 21,6 km/h (4 Bft) O-NO 71 2 min 0,000 mm 0,0 UV-I 294 W/m 10,1 C 4,8 C 29,0 km/h (5 Bft) 96,00 %
05.11.2018 08:58 11,6 C 10,0 C 11,7 C 91 % 1012,1 hPa 0,0 l/m 21,6 km/h (4 Bft) O-NO 78 2 min 0,000 mm 0,0 UV-I 317 W/m 10,2 C 4,9 C 25,7 km/h (4 Bft) 95,74 %
05.11.2018 09:00 11,6 C 10,0 C 12,2 C 91 % 1012,2 hPa 0,0 l/m 19,3 km/h (3 Bft) O 90 2 min 0,102 mm 0,0 UV-I 308 W/m 10,2 C 5,6 C 24,1 km/h (4 Bft) 95,74 %
05.11.2018 09:02 11,7 C 10,0 C 12,2 C 91 % 1012,3 hPa 0,0 l/m 17,4 km/h (3 Bft) O 82 2 min 0,000 mm 0,0 UV-I 304 W/m 10,3 C 6,3 C 25,7 km/h (4 Bft) 94,00 %
05.11.2018 09:04 11,7 C 10,0 C 12,2 C 91 % 1012,2 hPa 0,0 l/m 16,8 km/h (3 Bft) O-NO 72 2 min 0,000 mm 0,0 UV-I 311 W/m 10,3 C 6,5 C 24,1 km/h (4 Bft) 97,87 %
05.11.2018 09:06 11,8 C 10,0 C 12,8 C 91 % 1012,2 hPa 0,0 l/m 17,8 km/h (3 Bft) O-NO 75 2 min 0,000 mm 0,0 UV-I 318 W/m 10,4 C 6,3 C 24,1 km/h (4 Bft) 95,74 %
05.11.2018 09:08 11,9 C 10,0 C 12,8 C 90 % 1012,2 hPa 0,0 l/m 19,7 km/h (3 Bft) O-SO 117 2 min 0,000 mm 0,3 UV-I 331 W/m 10,3 C 5,8 C 25,7 km/h (4 Bft) 95,74 %
05.11.2018 09:10 11,9 C 10,0 C 13,3 C 90 % 1012,2 hPa 0,0 l/m 21,4 km/h (4 Bft) O-NO 78 2 min 0,000 mm 0,5 UV-I 334 W/m 10,3 C 5,3 C 27,4 km/h (4 Bft) 97,87 %
05.11.2018 09:12 12,0 C 10,0 C 13,3 C 90 % 1012,2 hPa 0,0 l/m 18,1 km/h (3 Bft) O-NO 77 2 min 0,000 mm 0,5 UV-I 345 W/m 10,4 C 6,5 C 24,1 km/h (4 Bft) 97,87 %
05.11.2018 09:14 12,1 C 10,0 C 13,3 C 90 % 1012,3 hPa 0,0 l/m 17,8 km/h (3 Bft) O 95 2 min 0,000 mm 0,5 UV-I 349 W/m 10,5 C 6,7 C 27,4 km/h (4 Bft) 97,87 %
05.11.2018 09:16 12,3 C 10,0 C 13,9 C 89 % 1012,2 hPa 0,0 l/m 14,3 km/h (3 Bft) NO 38 2 min 0,000 mm 0,5 UV-I 351 W/m 10,5 C 8,2 C 17,7 km/h (3 Bft) 100,00 %
05.11.2018 09:18 12,3 C 10,0 C 13,9 C 89 % 1012,3 hPa 0,0 l/m 17,5 km/h (3 Bft) O-NO 76 2 min 0,000 mm 0,5 UV-I 358 W/m 10,5 C 7,0 C 22,5 km/h (4 Bft) 100,00 %
05.11.2018 09:20 12,4 C 10,0 C 13,9 C 88 % 1012,2 hPa 0,0 l/m 18,1 km/h (3 Bft) O-NO 58 2 min 0,000 mm 0,5 UV-I 369 W/m 10,5 C 7,0 C 25,7 km/h (4 Bft) 100,00 %
05.11.2018 09:22 12,4 C 10,0 C 13,9 C 88 % 1012,2 hPa 0,0 l/m 17,2 km/h (3 Bft) O-NO 73 2 min 0,000 mm 0,6 UV-I 380 W/m 10,5 C 7,3 C 24,1 km/h (4 Bft) 97,87 %
05.11.2018 09:24 12,5 C 10,0 C 13,9 C 88 % 1012,2 hPa 0,0 l/m 13,4 km/h (3 Bft) O-NO 78 2 min 0,000 mm 0,6 UV-I 379 W/m 10,6 C 8,8 C 17,7 km/h (3 Bft) 100,00 %
05.11.2018 09:26 12,6 C 10,0 C 13,9 C 88 % 1012,2 hPa 0,0 l/m 16,1 km/h (3 Bft) O 82 2 min 0,000 mm 0,6 UV-I 344 W/m 10,7 C 7,9 C 20,9 km/h (4 Bft) 98,00 %
05.11.2018 09:28 12,7 C 10,0 C 13,9 C 88 % 1012,2 hPa 0,0 l/m 17,2 km/h (3 Bft) O-NO 70 2 min 0,000 mm 0,6 UV-I 394 W/m 10,8 C 7,6 C 22,5 km/h (4 Bft) 100,00 %
05.11.2018 09:30 12,8 C 10,0 C 13,9 C 87 % 1012,2 hPa 0,0 l/m 16,6 km/h (3 Bft) O 85 2 min 0,000 mm 0,6 UV-I 400 W/m 10,7 C 8,0 C 20,9 km/h (4 Bft) 100,00 %
05.11.2018 09:32 12,8 C 10,0 C 13,9 C 87 % 1012,2 hPa 0,0 l/m 15,9 km/h (3 Bft) O 83 2 min 0,000 mm 0,6 UV-I 363 W/m 10,7 C 8,2 C 20,9 km/h (4 Bft) 100,00 %
05.11.2018 09:34 12,9 C 10,0 C 13,9 C 87 % 1012,2 hPa 0,0 l/m 18,6 km/h (3 Bft) O 90 2 min 0,000 mm 0,6 UV-I 288 W/m 10,8 C 7,4 C 25,7 km/h (4 Bft) 100,00 %
05.11.2018 09:36 12,8 C 10,0 C 13,9 C 86 % 1012,2 hPa 0,0 l/m 17,0 km/h (3 Bft) O 90 2 min 0,000 mm 0,6 UV-I 274 W/m 10,5 C 7,8 C 24,1 km/h (4 Bft) 97,87 %
05.11.2018 09:38 12,8 C 10,0 C 13,9 C 86 % 1012,1 hPa 0,0 l/m 17,0 km/h (3 Bft) O 91 2 min 0,000 mm 0,6 UV-I 232 W/m 10,5 C 7,8 C 24,1 km/h (4 Bft) 100,00 %
05.11.2018 09:40 12,8 C 10,0 C 13,9 C 86 % 1011,9 hPa 0,0 l/m 16,4 km/h (3 Bft) O-NO 67 2 min 0,000 mm 0,6 UV-I 223 W/m 10,5 C 8,0 C 22,5 km/h (4 Bft) 92,00 %
05.11.2018 09:42 12,8 C 10,0 C 13,9 C 86 % 1011,9 hPa 0,0 l/m 17,2 km/h (3 Bft) O-NO 62 2 min 0,000 mm 0,6 UV-I 217 W/m 10,5 C 7,8 C 24,1 km/h (4 Bft) 97,87 %
05.11.2018 09:44 12,8 C 10,0 C 13,9 C 86 % 1012,0 hPa 0,0 l/m 17,6 km/h (3 Bft) O-NO 69 2 min 0,000 mm 0,6 UV-I 214 W/m 10,5 C 7,6 C 25,7 km/h (4 Bft) 92,86 %
05.11.2018 09:46 12,8 C 10,0 C 13,9 C 86 % 1011,9 hPa 0,0 l/m 18,4 km/h (3 Bft) O 92 2 min 0,000 mm 0,6 UV-I 220 W/m 10,5 C 7,4 C 29,0 km/h (5 Bft) 100,00 %
05.11.2018 09:48 12,8 C 10,0 C 13,9 C 86 % 1011,9 hPa 0,0 l/m 18,3 km/h (3 Bft) O-NO 69 2 min 0,000 mm 0,6 UV-I 229 W/m 10,5 C 7,4 C 24,1 km/h (4 Bft) 100,00 %
05.11.2018 09:50 13,0 C 10,0 C 14,4 C 87 % 1011,8 hPa 0,0 l/m 17,3 km/h (3 Bft) O-NO 78 2 min 0,000 mm 0,6 UV-I 253 W/m 10,9 C 8,0 C 22,5 km/h (4 Bft) 100,00 %
05.11.2018 09:52 13,1 C 10,0 C 14,4 C 86 % 1011,9 hPa 0,0 l/m 19,5 km/h (3 Bft) O 88 2 min 0,000 mm 0,7 UV-I 440 W/m 10,8 C 7,4 C 25,7 km/h (4 Bft) 100,00 %
05.11.2018 09:54 13,2 C 10,0 C 15,0 C 86 % 1012,0 hPa 0,0 l/m 19,1 km/h (3 Bft) O-SO 115 2 min 0,000 mm 0,7 UV-I 454 W/m 10,9 C 7,7 C 24,1 km/h (4 Bft) 98,00 %
05.11.2018 09:56 13,3 C 10,0 C 15,6 C 86 % 1011,8 hPa 0,0 l/m 15,9 km/h (3 Bft) O-NO 70 2 min 0,000 mm 0,7 UV-I 457 W/m 11,0 C 8,8 C 25,7 km/h (4 Bft) 100,00 %
05.11.2018 09:58 13,4 C 10,0 C 15,6 C 85 % 1011,8 hPa 0,0 l/m 21,5 km/h (4 Bft) O-NO 70 2 min 0,000 mm 0,8 UV-I 454 W/m 10,9 C 7,3 C 32,2 km/h (5 Bft) 100,00 %
05.11.2018 10:00 13,5 C 10,0 C 15,0 C 84 % 1011,9 hPa 0,0 l/m 20,1 km/h (4 Bft) O 84 2 min 0,178 mm 0,8 UV-I 426 W/m 10,8 C 7,8 C 29,0 km/h (5 Bft) 98,11 %
05.11.2018 10:02 13,6 C 10,0 C 15,6 C 85 % 1011,9 hPa 0,0 l/m 17,9 km/h (3 Bft) O 82 2 min 0,000 mm 0,8 UV-I 465 W/m 11,1 C 8,5 C 24,1 km/h (4 Bft) 97,87 %
05.11.2018 10:04 13,7 C 10,0 C 16,1 C 85 % 1011,8 hPa 0,0 l/m 17,9 km/h (3 Bft) O-NO 71 2 min 0,000 mm 0,8 UV-I 450 W/m 11,2 C 8,7 C 22,5 km/h (4 Bft) 97,87 %
05.11.2018 10:06 13,7 C 10,0 C 16,1 C 84 % 1011,8 hPa 0,0 l/m 21,8 km/h (4 Bft) O 93 2 min 0,000 mm 0,8 UV-I 407 W/m 11,0 C 7,6 C 27,4 km/h (4 Bft) 97,87 %
05.11.2018 10:08 13,6 C 10,0 C 16,1 C 84 % 1011,8 hPa 0,0 l/m 24,5 km/h (4 Bft) O 93 2 min 0,000 mm 0,8 UV-I 402 W/m 10,9 C 6,8 C 32,2 km/h (5 Bft) 93,62 %
05.11.2018 10:10 13,6 C 10,0 C 16,1 C 84 % 1011,8 hPa 0,0 l/m 23,9 km/h (4 Bft) O-NO 61 2 min 0,000 mm 0,8 UV-I 470 W/m 10,9 C 7,0 C 30,6 km/h (5 Bft) 98,00 %
05.11.2018 10:12 13,7 C 10,0 C 16,7 C 84 % 1011,7 hPa 0,0 l/m 21,2 km/h (4 Bft) O 91 2 min 0,000 mm 0,8 UV-I 456 W/m 11,0 C 7,7 C 27,4 km/h (4 Bft) 97,56 %
05.11.2018 10:14 13,7 C 10,0 C 16,7 C 84 % 1011,8 hPa 0,0 l/m 21,6 km/h (4 Bft) O-NO 76 2 min 0,000 mm 0,8 UV-I 347 W/m 11,0 C 7,6 C 30,6 km/h (5 Bft) 97,87 %
05.11.2018 10:16 13,7 C 10,0 C 17,2 C 84 % 1011,8 hPa 0,0 l/m 21,0 km/h (4 Bft) O 91 2 min 0,000 mm 0,8 UV-I 401 W/m 11,0 C 7,8 C 24,1 km/h (4 Bft) 97,87 %
05.11.2018 10:18 13,7 C 10,0 C 17,2 C 84 % 1011,8 hPa 0,0 l/m 22,0 km/h (4 Bft) O-SO 102 2 min 0,000 mm 0,9 UV-I 435 W/m 11,0 C 7,5 C 29,0 km/h (5 Bft) 97,87 %
05.11.2018 10:20 13,7 C 10,0 C 17,2 C 83 % 1011,8 hPa 0,0 l/m 18,6 km/h (3 Bft) O 98 2 min 0,000 mm 0,9 UV-I 429 W/m 10,9 C 8,5 C 24,1 km/h (4 Bft) 94,00 %
05.11.2018 10:22 13,8 C 10,0 C 17,2 C 83 % 1011,8 hPa 0,0 l/m 18,7 km/h (3 Bft) O 92 2 min 0,000 mm 0,9 UV-I 422 W/m 11,0 C 8,6 C 25,7 km/h (4 Bft) 95,74 %
05.11.2018 10:24 13,8 C 10,0 C 17,2 C 83 % 1011,8 hPa 0,0 l/m 22,7 km/h (4 Bft) O 87 2 min 0,000 mm 0,9 UV-I 396 W/m 11,0 C 7,5 C 32,2 km/h (5 Bft) 97,22 %
05.11.2018 10:26 13,8 C 10,0 C 16,7 C 83 % 1011,8 hPa 0,0 l/m 18,6 km/h (3 Bft) O 90 2 min 0,000 mm 0,8 UV-I 317 W/m 11,0 C 8,6 C 25,7 km/h (4 Bft) 98,00 %
05.11.2018 10:28 13,8 C 10,0 C 16,1 C 82 % 1011,6 hPa 0,0 l/m 22,4 km/h (4 Bft) O 90 2 min 0,000 mm 0,8 UV-I 358 W/m 10,8 C 7,6 C 30,6 km/h (5 Bft) 97,87 %
05.11.2018 10:30 13,9 C 10,0 C 16,7 C 82 % 1011,7 hPa 0,0 l/m 22,4 km/h (4 Bft) O 86 2 min 0,000 mm 0,9 UV-I 399 W/m 10,9 C 7,7 C 30,6 km/h (5 Bft) 93,62 %
05.11.2018 10:32 14,0 C 10,0 C 17,2 C 83 % 1011,6 hPa 0,0 l/m 17,9 km/h (3 Bft) O-NO 71 2 min 0,000 mm 0,9 UV-I 437 W/m 11,2 C 9,0 C 25,7 km/h (4 Bft) 95,74 %
05.11.2018 10:34 14,1 C 10,0 C 17,8 C 83 % 1011,7 hPa 0,0 l/m 15,9 km/h (3 Bft) O-NO 77 2 min 0,000 mm 0,9 UV-I 407 W/m 11,3 C 9,8 C 22,5 km/h (4 Bft) 94,00 %
05.11.2018 10:36 14,2 C 10,0 C 17,8 C 82 % 1011,7 hPa 0,0 l/m 18,8 km/h (3 Bft) O-SO 123 2 min 0,000 mm 0,9 UV-I 423 W/m 11,2 C 9,0 C 27,4 km/h (4 Bft) 93,62 %
05.11.2018 10:38 14,3 C 10,0 C 18,3 C 82 % 1011,8 hPa 0,0 l/m 14,3 km/h (3 Bft) O 100 2 min 0,000 mm 1,0 UV-I 452 W/m 11,3 C 10,6 C 19,3 km/h (3 Bft) 96,00 %
05.11.2018 10:40 14,3 C 10,0 C 18,3 C 82 % 1011,8 hPa 0,0 l/m 13,8 km/h (3 Bft) O-NO 76 2 min 0,000 mm 1,0 UV-I 459 W/m 11,3 C 10,8 C 24,1 km/h (4 Bft) 93,62 %
05.11.2018 10:42 14,4 C 10,0 C 18,3 C 81 % 1011,8 hPa 0,0 l/m 18,9 km/h (3 Bft) NO 43 2 min 0,000 mm 1,0 UV-I 479 W/m 11,2 C 9,3 C 24,1 km/h (4 Bft) 95,74 %
05.11.2018 10:44 14,4 C 10,0 C 18,3 C 81 % 1011,8 hPa 0,0 l/m 16,7 km/h (3 Bft) O 92 2 min 0,000 mm 1,0 UV-I 461 W/m 11,2 C 9,9 C 24,1 km/h (4 Bft) 93,62 %
05.11.2018 10:46 14,6 C 10,0 C 18,3 C 81 % 1011,8 hPa 0,0 l/m 16,5 km/h (3 Bft) O-NO 66 2 min 0,000 mm 1,0 UV-I 437 W/m 11,4 C 10,2 C 22,5 km/h (4 Bft) 95,12 %
05.11.2018 10:48 14,6 C 10,0 C 17,8 C 80 % 1011,8 hPa 0,0 l/m 18,4 km/h (3 Bft) O 93 2 min 0,000 mm 1,0 UV-I 432 W/m 11,2 C 9,7 C 24,1 km/h (4 Bft) 94,00 %
05.11.2018 10:50 14,6 C 10,0 C 17,8 C 81 % 1011,7 hPa 0,0 l/m 18,3 km/h (3 Bft) O 89 2 min 0,000 mm 1,0 UV-I 435 W/m 11,4 C 9,7 C 25,7 km/h (4 Bft) 95,74 %
05.11.2018 10:52 14,7 C 10,0 C 17,2 C 80 % 1011,7 hPa 0,0 l/m 17,0 km/h (3 Bft) O-NO 69 2 min 0,000 mm 1,0 UV-I 383 W/m 11,3 C 10,2 C 24,1 km/h (4 Bft) 97,87 %
05.11.2018 10:54 14,7 C 10,0 C 17,2 C 79 % 1011,6 hPa 0,0 l/m 18,8 km/h (3 Bft) O-NO 73 2 min 0,000 mm 0,9 UV-I 346 W/m 11,1 C 9,7 C 25,7 km/h (4 Bft) 92,00 %
05.11.2018 10:56 14,7 C 10,0 C 16,7 C 80 % 1011,6 hPa 0,0 l/m 21,2 km/h (4 Bft) O 82 2 min 0,000 mm 0,9 UV-I 389 W/m 11,3 C 9,1 C 29,0 km/h (5 Bft) 97,37 %
05.11.2018 10:58 14,7 C 10,0 C 17,2 C 80 % 1011,5 hPa 0,0 l/m 21,2 km/h (4 Bft) O 86 2 min 0,000 mm 1,0 UV-I 468 W/m 11,3 C 9,1 C 27,4 km/h (4 Bft) 93,62 %
05.11.2018 11:00 14,8 C 10,0 C 17,2 C 80 % 1011,6 hPa 0,0 l/m 21,2 km/h (4 Bft) O 94 2 min 0,254 mm 1,0 UV-I 510 W/m 11,4 C 9,2 C 29,0 km/h (5 Bft) 95,83 %
05.11.2018 11:02 14,8 C 10,0 C 17,2 C 79 % 1011,5 hPa 0,0 l/m 22,3 km/h (4 Bft) O 86 2 min 0,000 mm 1,0 UV-I 489 W/m 11,2 C 8,9 C 30,6 km/h (5 Bft) 97,87 %
05.11.2018 11:04 14,9 C 10,0 C 17,2 C 79 % 1011,5 hPa 0,0 l/m 23,9 km/h (4 Bft) O-SO 104 2 min 0,000 mm 1,0 UV-I 450 W/m 11,3 C 8,7 C 30,6 km/h (5 Bft) 97,87 %
05.11.2018 11:06 14,9 C 10,0 C 17,2 C 79 % 1011,5 hPa 0,0 l/m 19,0 km/h (3 Bft) O 84 2 min 0,000 mm 1,0 UV-I 427 W/m 11,3 C 9,9 C 29,0 km/h (5 Bft) 97,87 %
05.11.2018 11:08 14,9 C 10,0 C 17,2 C 79 % 1011,4 hPa 0,0 l/m 17,7 km/h (3 Bft) O 99 2 min 0,000 mm 1,0 UV-I 403 W/m 11,3 C 10,2 C 24,1 km/h (4 Bft) 95,74 %
05.11.2018 11:10 14,9 C 10,0 C 17,8 C 79 % 1011,5 hPa 0,0 l/m 15,7 km/h (3 Bft) O 88 2 min 0,000 mm 1,0 UV-I 420 W/m 11,3 C 10,8 C 22,5 km/h (4 Bft) 97,87 %
05.11.2018 11:12 15,0 C 10,0 C 17,8 C 79 % 1011,4 hPa 0,0 l/m 16,8 km/h (3 Bft) O-NO 65 2 min 0,000 mm 1,0 UV-I 455 W/m 11,4 C 10,6 C 22,5 km/h (4 Bft) 96,00 %
05.11.2018 11:14 15,1 C 10,0 C 17,8 C 79 % 1011,4 hPa 0,0 l/m 22,2 km/h (4 Bft) O-NO 64 2 min 0,000 mm 1,0 UV-I 505 W/m 11,5 C 9,3 C 29,0 km/h (5 Bft) 95,74 %
05.11.2018 11:16 15,1 C 10,0 C 18,3 C 79 % 1011,3 hPa 0,0 l/m 21,9 km/h (4 Bft) O 86 2 min 0,000 mm 1,1 UV-I 521 W/m 11,5 C 9,4 C 29,0 km/h (5 Bft) 97,56 %
05.11.2018 11:18 15,2 C 10,0 C 18,3 C 78 % 1011,3 hPa 0,0 l/m 20,7 km/h (4 Bft) O-SO 108 2 min 0,000 mm 1,1 UV-I 507 W/m 11,4 C 9,8 C 29,0 km/h (5 Bft) 97,87 %
05.11.2018 11:20 15,2 C 10,0 C 18,3 C 79 % 1011,3 hPa 0,0 l/m 19,5 km/h (3 Bft) O-NO 65 2 min 0,000 mm 1,1 UV-I 461 W/m 11,6 C 10,1 C 24,1 km/h (4 Bft) 98,00 %
05.11.2018 11:22 15,2 C 10,0 C 18,3 C 78 % 1011,2 hPa 0,0 l/m 21,0 km/h (4 Bft) O 84 2 min 0,000 mm 1,0 UV-I 424 W/m 11,4 C 9,8 C 25,7 km/h (4 Bft) 94,00 %
05.11.2018 11:24 15,2 C 10,0 C 18,3 C 79 % 1011,2 hPa 0,0 l/m 21,2 km/h (4 Bft) O-NO 72 2 min 0,000 mm 1,0 UV-I 424 W/m 11,6 C 9,7 C 29,0 km/h (5 Bft) 95,74 %
05.11.2018 11:26 15,2 C 10,0 C 18,3 C 79 % 1011,2 hPa 0,0 l/m 20,3 km/h (4 Bft) O 87 2 min 0,000 mm 1,0 UV-I 446 W/m 11,6 C 9,9 C 29,0 km/h (5 Bft) 96,00 %
05.11.2018 11:28 15,3 C 10,0 C 18,3 C 79 % 1011,2 hPa 0,0 l/m 21,9 km/h (4 Bft) O-NO 69 2 min 0,000 mm 1,0 UV-I 402 W/m 11,7 C 9,7 C 32,2 km/h (5 Bft) 95,74 %
05.11.2018 11:30 15,3 C 10,0 C 18,3 C 79 % 1011,1 hPa 0,0 l/m 20,3 km/h (4 Bft) O-NO 71 2 min 0,000 mm 1,0 UV-I 387 W/m 11,7 C 10,1 C 27,4 km/h (4 Bft) 94,29 %
05.11.2018 11:32 15,4 C 10,0 C 18,9 C 80 % 1011,1 hPa 0,0 l/m 19,6 km/h (3 Bft) O 79 2 min 0,000 mm 1,0 UV-I 422 W/m 12,0 C 10,4 C 25,7 km/h (4 Bft) 95,74 %
05.11.2018 11:34 15,5 C 10,0 C 18,3 C 78 % 1011,0 hPa 0,0 l/m 20,7 km/h (4 Bft) O 81 2 min 0,000 mm 1,0 UV-I 377 W/m 11,7 C 10,2 C 27,4 km/h (4 Bft) 95,74 %
05.11.2018 11:36 15,6 C 10,0 C 18,3 C 79 % 1011,0 hPa 0,0 l/m 18,5 km/h (3 Bft) O-NO 78 2 min 0,000 mm 1,0 UV-I 390 W/m 12,0 C 10,9 C 25,7 km/h (4 Bft) 96,23 %
05.11.2018 11:38 15,6 C 10,0 C 17,8 C 78 % 1011,0 hPa 0,0 l/m 22,9 km/h (4 Bft) O-NO 69 2 min 0,000 mm 1,0 UV-I 410 W/m 11,8 C 9,9 C 32,2 km/h (5 Bft) 88,00 %
05.11.2018 11:40 15,6 C 10,0 C 18,3 C 78 % 1011,0 hPa 0,0 l/m 22,0 km/h (4 Bft) O 86 2 min 0,000 mm 1,1 UV-I 448 W/m 11,8 C 10,1 C 29,0 km/h (5 Bft) 95,74 %
05.11.2018 11:42 15,7 C 10,0 C 18,3 C 78 % 1011,0 hPa 0,0 l/m 16,5 km/h (3 Bft) O 86 2 min 0,000 mm 1,1 UV-I 490 W/m 11,9 C 11,6 C 27,4 km/h (4 Bft) 95,74 %
05.11.2018 11:44 15,8 C 10,0 C 18,9 C 77 % 1011,0 hPa 0,0 l/m 16,1 km/h (3 Bft) O 88 2 min 0,000 mm 1,1 UV-I 482 W/m 11,8 C 11,8 C 22,5 km/h (4 Bft) 95,74 %
05.11.2018 11:46 16,1 C 10,0 C 18,9 C 78 % 1011,0 hPa 0,0 l/m 17,7 km/h (3 Bft) O 89 2 min 0,000 mm 1,2 UV-I 559 W/m 12,3 C 11,7 C 30,6 km/h (5 Bft) 95,83 %
05.11.2018 11:48 16,2 C 10,0 C 18,9 C 76 % 1011,0 hPa 0,0 l/m 23,2 km/h (4 Bft) O 97 2 min 0,000 mm 1,2 UV-I 545 W/m 12,0 C 10,6 C 30,6 km/h (5 Bft) 95,74 %
05.11.2018 11:50 16,3 C 10,0 C 18,9 C 75 % 1010,9 hPa 0,0 l/m 21,8 km/h (4 Bft) O 95 2 min 0,000 mm 1,2 UV-I 549 W/m 11,9 C 11,0 C 29,0 km/h (5 Bft) 97,37 %
05.11.2018 11:52 16,3 C 10,0 C 18,9 C 75 % 1010,9 hPa 0,0 l/m 17,7 km/h (3 Bft) O-NO 66 2 min 0,000 mm 1,2 UV-I 567 W/m 11,9 C 12,0 C 30,6 km/h (5 Bft) 97,87 %
05.11.2018 11:54 16,5 C 10,0 C 19,4 C 76 % 1010,9 hPa 0,0 l/m 18,5 km/h (3 Bft) O 94 2 min 0,000 mm 1,1 UV-I 546 W/m 12,3 C 12,0 C 29,0 km/h (5 Bft) 97,87 %
05.11.2018 11:56 16,6 C 10,0 C 19,4 C 74 % 1010,9 hPa 0,0 l/m 22,6 km/h (4 Bft) O 93 2 min 0,000 mm 1,1 UV-I 535 W/m 11,9 C 11,2 C 32,2 km/h (5 Bft) 98,00 %
05.11.2018 11:58 16,6 C 10,0 C 19,4 C 73 % 1010,9 hPa 0,0 l/m 23,0 km/h (4 Bft) O-SO 115 2 min 0,000 mm 1,1 UV-I 509 W/m 11,7 C 11,2 C 29,0 km/h (5 Bft) 95,12 %
05.11.2018 12:00 16,6 C 10,0 C 19,4 C 73 % 1010,9 hPa 0,0 l/m 29,0 km/h (5 Bft) O-SO 105 2 min 0,305 mm 1,1 UV-I 509 W/m 11,7 C 10,1 C 40,2 km/h (6 Bft) 95,74 %
05.11.2018 12:02 16,6 C 10,0 C 18,9 C 73 % 1010,8 hPa 0,0 l/m 24,8 km/h (4 Bft) O-SO 120 2 min 0,000 mm 1,0 UV-I 470 W/m 11,7 C 10,8 C 37,0 km/h (5 Bft) 97,87 %
05.11.2018 12:04 16,6 C 10,0 C 18,9 C 74 % 1010,8 hPa 0,0 l/m 18,2 km/h (3 Bft) O-SO 102 2 min 0,000 mm 1,0 UV-I 446 W/m 11,9 C 12,2 C 37,0 km/h (5 Bft) 97,87 %
05.11.2018 12:06 16,6 C 10,0 C 18,9 C 73 % 1010,8 hPa 0,0 l/m 24,7 km/h (4 Bft) O-SO 113 2 min 0,000 mm 1,0 UV-I 453 W/m 11,7 C 10,8 C 33,8 km/h (5 Bft) 97,87 %
05.11.2018 12:08 16,5 C 10,0 C 18,9 C 73 % 1010,8 hPa 0,0 l/m 24,5 km/h (4 Bft) O 88 2 min 0,000 mm 1,0 UV-I 498 W/m 11,6 C 10,7 C 35,4 km/h (5 Bft) 97,87 %
05.11.2018 12:10 16,6 C 10,0 C 18,9 C 74 % 1010,8 hPa 0,0 l/m 21,0 km/h (4 Bft) O 80 2 min 0,000 mm 1,0 UV-I 485 W/m 11,9 C 11,6 C 27,4 km/h (4 Bft) 98,00 %
05.11.2018 12:12 16,6 C 10,0 C 18,9 C 74 % 1010,8 hPa 0,0 l/m 19,1 km/h (3 Bft) O 80 2 min 0,000 mm 1,0 UV-I 472 W/m 11,9 C 12,0 C 30,6 km/h (5 Bft) 97,87 %
05.11.2018 12:14 16,7 C 10,0 C 19,4 C 75 % 1010,7 hPa 0,0 l/m 18,7 km/h (3 Bft) O-NO 67 2 min 0,000 mm 1,0 UV-I 476 W/m 12,2 C 12,3 C 25,7 km/h (4 Bft) 97,87 %
05.11.2018 12:16 16,7 C 10,0 C 18,9 C 74 % 1010,7 hPa 0,0 l/m 22,8 km/h (4 Bft) O 86 2 min 0,000 mm 1,0 UV-I 441 W/m 12,0 C 11,3 C 30,6 km/h (5 Bft) 95,74 %
05.11.2018 12:18 16,6 C 10,0 C 18,9 C 75 % 1010,7 hPa 0,0 l/m 22,1 km/h (4 Bft) O 80 2 min 0,000 mm 0,9 UV-I 419 W/m 12,1 C 11,3 C 27,4 km/h (4 Bft) 97,87 %
05.11.2018 12:20 16,6 C 10,0 C 18,9 C 75 % 1010,7 hPa 0,0 l/m 18,8 km/h (3 Bft) O 90 2 min 0,000 mm 0,9 UV-I 396 W/m 12,1 C 12,1 C 25,7 km/h (4 Bft) 96,00 %
05.11.2018 12:22 16,6 C 10,0 C 18,9 C 76 % 1010,6 hPa 0,0 l/m 20,6 km/h (4 Bft) O-SO 103 2 min 0,000 mm 0,9 UV-I 414 W/m 12,3 C 11,7 C 30,6 km/h (5 Bft) 98,00 %
05.11.2018 12:24 16,7 C 10,0 C 18,9 C 75 % 1010,6 hPa 0,0 l/m 19,6 km/h (3 Bft) O 100 2 min 0,000 mm 0,9 UV-I 402 W/m 12,2 C 12,0 C 25,7 km/h (4 Bft) 94,44 %
05.11.2018 12:26 16,7 C 10,0 C 18,9 C 75 % 1010,5 hPa 0,0 l/m 19,7 km/h (3 Bft) O-NO 72 2 min 0,000 mm 0,9 UV-I 391 W/m 12,2 C 12,0 C 30,6 km/h (5 Bft) 95,74 %
05.11.2018 12:28 16,6 C 10,0 C 18,3 C 74 % 1010,5 hPa 0,0 l/m 26,0 km/h (4 Bft) O 98 2 min 0,000 mm 0,9 UV-I 377 W/m 11,9 C 10,6 C 35,4 km/h (5 Bft) 95,74 %
05.11.2018 12:30 16,5 C 10,0 C 18,3 C 74 % 1010,4 hPa 0,0 l/m 30,4 km/h (5 Bft) O-SO 117 2 min 0,000 mm 0,9 UV-I 384 W/m 11,8 C 9,7 C 45,1 km/h (6 Bft) 97,87 %
05.11.2018 12:32 16,4 C 10,0 C 18,3 C 73 % 1010,5 hPa 0,0 l/m 28,9 km/h (5 Bft) O 98 2 min 0,000 mm 0,9 UV-I 379 W/m 11,5 C 9,8 C 45,1 km/h (6 Bft) 94,00 %
05.11.2018 12:34 16,3 C 10,0 C 17,8 C 74 % 1010,4 hPa 0,0 l/m 24,7 km/h (4 Bft) O-SO 109 2 min 0,000 mm 0,9 UV-I 368 W/m 11,7 C 10,4 C 33,8 km/h (5 Bft) 98,00 %
05.11.2018 12:36 16,3 C 10,0 C 18,3 C 74 % 1010,3 hPa 0,0 l/m 26,7 km/h (4 Bft) O 79 2 min 0,000 mm 0,9 UV-I 380 W/m 11,7 C 10,1 C 35,4 km/h (5 Bft) 96,00 %
05.11.2018 12:38 16,2 C 10,0 C 17,8 C 74 % 1010,3 hPa 0,0 l/m 24,9 km/h (4 Bft) O 95 2 min 0,000 mm 0,9 UV-I 388 W/m 11,6 C 10,3 C 33,8 km/h (5 Bft) 97,87 %
05.11.2018 12:40 16,2 C 10,0 C 18,3 C 75 % 1010,3 hPa 0,0 l/m 23,6 km/h (4 Bft) O 83 2 min 0,000 mm 0,9 UV-I 403 W/m 11,8 C 10,5 C 32,2 km/h (5 Bft) 97,87 %
05.11.2018 12:42 16,3 C 10,0 C 18,3 C 76 % 1010,3 hPa 0,0 l/m 20,1 km/h (4 Bft) O 80 2 min 0,000 mm 0,9 UV-I 421 W/m 12,1 C 11,4 C 30,6 km/h (5 Bft) 95,74 %
05.11.2018 12:44 16,3 C 10,0 C 18,9 C 75 % 1010,2 hPa 0,0 l/m 17,7 km/h (3 Bft) O 99 2 min 0,000 mm 0,9 UV-I 363 W/m 11,9 C 12,0 C 24,1 km/h (4 Bft) 97,37 %
05.11.2018 12:46 16,4 C 10,0 C 18,9 C 75 % 1010,2 hPa 0,0 l/m 20,4 km/h (4 Bft) O 82 2 min 0,000 mm 0,9 UV-I 380 W/m 12,0 C 11,5 C 30,6 km/h (5 Bft) 98,00 %
05.11.2018 12:48 16,4 C 10,0 C 18,9 C 76 % 1010,2 hPa 0,0 l/m 19,2 km/h (3 Bft) O-NO 66 2 min 0,000 mm 0,9 UV-I 416 W/m 12,2 C 11,7 C 29,0 km/h (5 Bft) 97,56 %
05.11.2018 12:50 16,5 C 10,0 C 18,9 C 76 % 1010,1 hPa 0,0 l/m 18,4 km/h (3 Bft) O 88 2 min 0,000 mm 0,9 UV-I 385 W/m 12,3 C 12,1 C 24,1 km/h (4 Bft) 98,00 %
05.11.2018 12:52 16,5 C 10,0 C 18,9 C 76 % 1010,0 hPa 0,0 l/m 19,4 km/h (3 Bft) NO 53 2 min 0,000 mm 0,9 UV-I 369 W/m 12,3 C 11,8 C 29,0 km/h (5 Bft) 97,87 %
05.11.2018 12:54 16,5 C 10,0 C 18,9 C 75 % 1010,1 hPa 0,0 l/m 22,0 km/h (4 Bft) O 92 2 min 0,000 mm 0,8 UV-I 329 W/m 12,1 C 11,2 C 38,6 km/h (5 Bft) 98,00 %
05.11.2018 12:56 16,4 C 10,0 C 18,9 C 74 % 1010,0 hPa 0,0 l/m 25,8 km/h (4 Bft) O 86 2 min 0,000 mm 0,8 UV-I 350 W/m 11,8 C 10,4 C 45,1 km/h (6 Bft) 97,87 %
05.11.2018 12:58 16,4 C 10,0 C 18,3 C 74 % 1010,0 hPa 0,0 l/m 20,0 km/h (4 Bft) O-NO 73 2 min 0,000 mm 0,8 UV-I 309 W/m 11,8 C 11,6 C 30,6 km/h (5 Bft) 97,87 %
05.11.2018 13:00 16,3 C 10,0 C 18,3 C 74 % 1009,9 hPa 0,0 l/m 23,0 km/h (4 Bft) O 101 2 min 0,000 mm 0,8 UV-I 373 W/m 11,7 C 10,8 C 37,0 km/h (5 Bft) 97,92 %
05.11.2018 13:02 16,3 C 10,0 C 18,3 C 74 % 1009,9 hPa 0,0 l/m 27,5 km/h (4 Bft) O-NO 69 2 min 0,279 mm 0,8 UV-I 386 W/m 11,7 C 9,9 C 43,5 km/h (6 Bft) 96,00 %
05.11.2018 13:04 16,3 C 10,0 C 18,3 C 74 % 1009,9 hPa 0,0 l/m 33,0 km/h (5 Bft) O 92 2 min 0,000 mm 0,8 UV-I 384 W/m 11,7 C 9,1 C 43,5 km/h (6 Bft) 94,74 %
05.11.2018 13:06 16,3 C 10,0 C 18,3 C 74 % 1009,8 hPa 0,0 l/m 26,9 km/h (4 Bft) O 88 2 min 0,000 mm 0,9 UV-I 397 W/m 11,7 C 10,0 C 38,6 km/h (5 Bft) 97,87 %
05.11.2018 13:09 16,3 C 10,0 C 18,3 C 75 % 1009,8 hPa 0,0 l/m 26,3 km/h (4 Bft) O 86 3 min 0,000 mm 0,9 UV-I 424 W/m 11,9 C 10,1 C 40,2 km/h (6 Bft) 95,89 %
05.11.2018 13:10 16,3 C 10,0 C 18,3 C 75 % 1009,8 hPa 0,0 l/m 25,4 km/h (4 Bft) O 88 1 min 0,000 mm 0,9 UV-I 410 W/m 11,9 C 10,3 C 33,8 km/h (5 Bft) 100,00 %
05.11.2018 13:12 16,4 C 10,0 C 18,3 C 75 % 1009,8 hPa 0,0 l/m 22,1 km/h (4 Bft) NO 55 2 min 0,000 mm 0,9 UV-I 412 W/m 12,0 C 11,1 C 33,8 km/h (5 Bft) 100,00 %
05.11.2018 13:14 16,4 C 10,0 C 18,9 C 75 % 1009,8 hPa 0,0 l/m 23,1 km/h (4 Bft) O 80 2 min 0,000 mm 0,9 UV-I 420 W/m 12,0 C 10,9 C 37,0 km/h (5 Bft) 100,00 %
05.11.2018 13:16 16,6 C 10,6 C 18,9 C 75 % 1009,7 hPa 0,0 l/m 23,1 km/h (4 Bft) O 81 2 min 0,000 mm 0,9 UV-I 455 W/m 12,1 C 11,1 C 29,0 km/h (5 Bft) 100,00 %
05.11.2018 13:18 16,7 C 10,0 C 18,9 C 76 % 1009,8 hPa 0,0 l/m 19,9 km/h (4 Bft) O 97 2 min 0,000 mm 0,9 UV-I 445 W/m 12,4 C 12,0 C 27,4 km/h (4 Bft) 97,87 %
05.11.2018 13:20 16,8 C 10,0 C 18,9 C 76 % 1009,7 hPa 0,0 l/m 24,4 km/h (4 Bft) O 96 2 min 0,000 mm 0,9 UV-I 446 W/m 12,5 C 11,2 C 45,1 km/h (6 Bft) 100,00 %
05.11.2018 13:22 16,8 C 10,0 C 18,9 C 74 % 1009,7 hPa 0,0 l/m 27,9 km/h (4 Bft) O-SO 111 2 min 0,000 mm 0,8 UV-I 427 W/m 12,1 C 10,5 C 48,3 km/h (6 Bft) 100,00 %
05.11.2018 13:24 16,8 C 10,0 C 18,9 C 74 % 1009,7 hPa 0,0 l/m 26,8 km/h (4 Bft) O-SO 111 2 min 0,000 mm 0,8 UV-I 402 W/m 12,1 C 10,7 C 35,4 km/h (5 Bft) 100,00 %
05.11.2018 13:26 16,8 C 10,6 C 18,3 C 74 % 1009,7 hPa 0,0 l/m 26,3 km/h (4 Bft) O 83 2 min 0,000 mm 0,8 UV-I 347 W/m 12,1 C 10,8 C 33,8 km/h (5 Bft) 100,00 %
05.11.2018 13:28 16,8 C 10,0 C 18,3 C 74 % 1009,7 hPa 0,0 l/m 27,3 km/h (4 Bft) O 93 2 min 0,000 mm 0,7 UV-I 323 W/m 12,1 C 10,6 C 37,0 km/h (5 Bft) 100,00 %
05.11.2018 13:30 16,8 C 10,0 C 18,3 C 73 % 1009,7 hPa 0,0 l/m 25,6 km/h (4 Bft) O 93 2 min 0,000 mm 0,7 UV-I 350 W/m 11,9 C 10,9 C 35,4 km/h (5 Bft) 97,87 %
05.11.2018 13:32 16,8 C 10,0 C 18,3 C 74 % 1009,7 hPa 0,0 l/m 26,6 km/h (4 Bft) O 94 2 min 0,000 mm 0,7 UV-I 297 W/m 12,1 C 10,8 C 40,2 km/h (6 Bft) 100,00 %
05.11.2018 13:34 16,8 C 10,0 C 17,8 C 74 % 1009,7 hPa 0,0 l/m 24,1 km/h (4 Bft) O-NO 75 2 min 0,000 mm 0,7 UV-I 315 W/m 12,1 C 11,2 C 33,8 km/h (5 Bft) 100,00 %
05.11.2018 13:36 16,8 C 10,0 C 18,3 C 75 % 1009,6 hPa 0,0 l/m 21,8 km/h (4 Bft) O 88 2 min 0,000 mm 0,7 UV-I 376 W/m 12,3 C 11,7 C 32,2 km/h (5 Bft) 97,87 %
05.11.2018 13:38 16,8 C 10,0 C 18,9 C 75 % 1009,6 hPa 0,0 l/m 23,6 km/h (4 Bft) O 92 2 min 0,000 mm 0,7 UV-I 394 W/m 12,3 C 11,3 C 32,2 km/h (5 Bft) 100,00 %
05.11.2018 13:40 16,8 C 10,0 C 18,9 C 75 % 1009,7 hPa 0,0 l/m 22,6 km/h (4 Bft) O 95 2 min 0,000 mm 0,7 UV-I 421 W/m 12,3 C 11,5 C 30,6 km/h (5 Bft) 100,00 %
05.11.2018 13:42 16,9 C 10,0 C 18,9 C 75 % 1009,7 hPa 0,0 l/m 20,1 km/h (4 Bft) O-NO 65 2 min 0,000 mm 0,7 UV-I 394 W/m 12,4 C 12,2 C 27,4 km/h (4 Bft) 97,87 %
05.11.2018 13:44 16,9 C 10,6 C 18,9 C 74 % 1009,5 hPa 0,0 l/m 22,1 km/h (4 Bft) O-NO 69 2 min 0,000 mm 0,7 UV-I 375 W/m 12,2 C 11,7 C 30,6 km/h (5 Bft) 97,87 %
05.11.2018 13:46 16,9 C 10,0 C 18,9 C 74 % 1009,6 hPa 0,0 l/m 23,7 km/h (4 Bft) O-NO 67 2 min 0,000 mm 0,7 UV-I 342 W/m 12,2 C 11,4 C 35,4 km/h (5 Bft) 100,00 %
05.11.2018 13:49 16,9 C 10,0 C 18,9 C 75 % 1009,6 hPa 0,0 l/m 23,4 km/h (4 Bft) O 80 3 min 0,000 mm 0,7 UV-I 356 W/m 12,4 C 11,5 C 35,4 km/h (5 Bft) 97,26 %
05.11.2018 13:50 16,9 C 10,0 C 18,9 C 74 % 1009,6 hPa 0,0 l/m 27,1 km/h (4 Bft) O 89 1 min 0,000 mm 0,6 UV-I 349 W/m 12,2 C 10,8 C 33,8 km/h (5 Bft) 100,00 %
05.11.2018 13:52 16,8 C 10,0 C 18,3 C 74 % 1009,6 hPa 0,0 l/m 25,4 km/h (4 Bft) O-NO 71 2 min 0,000 mm 0,6 UV-I 306 W/m 12,1 C 11,0 C 33,8 km/h (5 Bft) 100,00 %
05.11.2018 13:54 16,8 C 10,6 C 18,3 C 75 % 1009,5 hPa 0,0 l/m 28,0 km/h (4 Bft) O-NO 71 2 min 0,000 mm 0,6 UV-I 327 W/m 12,3 C 10,5 C 38,6 km/h (5 Bft) 100,00 %
05.11.2018 13:56 16,7 C 10,0 C 18,3 C 75 % 1009,6 hPa 0,0 l/m 22,2 km/h (4 Bft) O-NO 74 2 min 0,000 mm 0,6 UV-I 326 W/m 12,2 C 11,5 C 29,0 km/h (5 Bft) 97,87 %
05.11.2018 13:58 16,7 C 10,0 C 17,8 C 75 % 1009,7 hPa 0,0 l/m 27,2 km/h (4 Bft) O-NO 69 2 min 0,000 mm 0,6 UV-I 306 W/m 12,2 C 10,5 C 37,0 km/h (5 Bft) 100,00 %
05.11.2018 14:00 16,7 C 10,0 C 17,8 C 75 % 1009,7 hPa 0,0 l/m 22,7 km/h (4 Bft) O 79 2 min 0,000 mm 0,6 UV-I 326 W/m 12,2 C 11,4 C 32,2 km/h (5 Bft) 100,00 %
05.11.2018 14:02 16,6 C 10,0 C 17,8 C 75 % 1009,7 hPa 0,0 l/m 27,3 km/h (4 Bft) O-NO 74 2 min 0,279 mm 0,5 UV-I 308 W/m 12,1 C 10,4 C 35,4 km/h (5 Bft) 100,00 %
05.11.2018 14:04 16,6 C 10,0 C 17,8 C 75 % 1009,8 hPa 0,0 l/m 25,2 km/h (4 Bft) O-NO 76 2 min 0,000 mm 0,5 UV-I 319 W/m 12,1 C 10,7 C 37,0 km/h (5 Bft) 100,00 %
05.11.2018 14:06 16,6 C 10,0 C 18,3 C 75 % 1009,7 hPa 0,0 l/m 21,4 km/h (4 Bft) NO 54 2 min 0,000 mm 0,5 UV-I 313 W/m 12,1 C 11,5 C 32,2 km/h (5 Bft) 100,00 %
05.11.2018 14:08 16,6 C 10,0 C 18,3 C 76 % 1009,8 hPa 0,0 l/m 15,5 km/h (3 Bft) O-NO 59 2 min 0,000 mm 0,5 UV-I 301 W/m 12,3 C 13,0 C 20,9 km/h (4 Bft) 100,00 %
05.11.2018 14:10 16,6 C 10,0 C 18,3 C 76 % 1009,8 hPa 0,0 l/m 16,7 km/h (3 Bft) O-NO 71 2 min 0,000 mm 0,5 UV-I 262 W/m 12,3 C 12,6 C 27,4 km/h (4 Bft) 97,87 %
05.11.2018 14:12 16,6 C 10,0 C 17,8 C 76 % 1009,7 hPa 0,0 l/m 27,7 km/h (4 Bft) O-NO 70 2 min 0,000 mm 0,5 UV-I 233 W/m 12,3 C 10,3 C 37,0 km/h (5 Bft) 97,87 %
05.11.2018 14:14 16,5 C 10,0 C 17,8 C 75 % 1009,7 hPa 0,0 l/m 23,5 km/h (4 Bft) O-NO 73 2 min 0,000 mm 0,5 UV-I 233 W/m 12,1 C 10,9 C 32,2 km/h (5 Bft) 94,00 %
05.11.2018 14:16 16,4 C 10,0 C 17,2 C 75 % 1009,7 hPa 0,0 l/m 24,9 km/h (4 Bft) O 79 2 min 0,000 mm 0,3 UV-I 258 W/m 12,0 C 10,5 C 33,8 km/h (5 Bft) 93,62 %
05.11.2018 14:19 16,3 C 10,6 C 17,2 C 76 % 1009,7 hPa 0,0 l/m 20,9 km/h (4 Bft) O 91 3 min 0,000 mm 0,0 UV-I 251 W/m 12,1 C 11,2 C 30,6 km/h (5 Bft) 92,31 %
05.11.2018 14:20 16,3 C 10,0 C 17,2 C 76 % 1009,7 hPa 0,0 l/m 19,8 km/h (3 Bft) O 84 1 min 0,000 mm 0,0 UV-I 256 W/m 12,1 C 11,5 C 24,1 km/h (4 Bft) 100,00 %
05.11.2018 14:22 16,2 C 10,0 C 17,2 C 77 % 1009,8 hPa 0,0 l/m 18,2 km/h (3 Bft) O-NO 65 2 min 0,000 mm 0,0 UV-I 273 W/m 12,2 C 11,7 C 27,4 km/h (4 Bft) 93,62 %
05.11.2018 14:24 16,2 C 10,6 C 17,2 C 76 % 1009,7 hPa 0,0 l/m 19,5 km/h (3 Bft) NO 34 2 min 0,000 mm 0,0 UV-I 268 W/m 12,0 C 11,4 C 29,0 km/h (5 Bft) 95,74 %
05.11.2018 14:26 16,2 C 10,0 C 17,2 C 76 % 1009,8 hPa 0,0 l/m 24,5 km/h (4 Bft) O-NO 69 2 min 0,000 mm 0,0 UV-I 256 W/m 12,0 C 10,3 C 35,4 km/h (5 Bft) 95,74 %
05.11.2018 14:28 16,2 C 10,0 C 17,2 C 77 % 1009,9 hPa 0,0 l/m 13,1 km/h (3 Bft) O 83 2 min 0,000 mm 0,0 UV-I 242 W/m 12,2 C 13,3 C 20,9 km/h (4 Bft) 95,74 %
05.11.2018 14:30 16,2 C 10,0 C 17,2 C 77 % 1009,8 hPa 0,0 l/m 14,6 km/h (3 Bft) NO 51 2 min 0,000 mm 0,0 UV-I 216 W/m 12,2 C 12,8 C 19,3 km/h (3 Bft) 93,62 %
05.11.2018 14:32 16,2 C 10,0 C 17,2 C 77 % 1009,8 hPa 0,0 l/m 16,3 km/h (3 Bft) O-SO 103 2 min 0,000 mm 0,0 UV-I 227 W/m 12,2 C 12,3 C 25,7 km/h (4 Bft) 92,00 %
05.11.2018 14:34 16,2 C 10,0 C 17,2 C 76 % 1009,8 hPa 0,0 l/m 21,9 km/h (4 Bft) O-NO 58 2 min 0,000 mm 0,0 UV-I 229 W/m 12,0 C 10,9 C 30,6 km/h (5 Bft) 93,62 %
05.11.2018 14:36 16,2 C 10,0 C 17,2 C 77 % 1009,8 hPa 0,0 l/m 14,5 km/h (3 Bft) NO 44 2 min 0,000 mm 0,0 UV-I 232 W/m 12,2 C 12,8 C 20,9 km/h (4 Bft) 95,74 %
05.11.2018 14:38 16,2 C 10,6 C 17,2 C 77 % 1009,8 hPa 0,0 l/m 15,1 km/h (3 Bft) O 88 2 min 0,000 mm 0,0 UV-I 223 W/m 12,2 C 12,6 C 22,5 km/h (4 Bft) 97,87 %
05.11.2018 14:40 16,2 C 10,0 C 16,7 C 77 % 1009,7 hPa 0,0 l/m 14,3 km/h (3 Bft) O-NO 67 2 min 0,000 mm 0,0 UV-I 203 W/m 12,2 C 12,9 C 22,5 km/h (4 Bft) 93,62 %
05.11.2018 14:42 16,1 C 10,0 C 16,7 C 77 % 1009,7 hPa 0,0 l/m 16,8 km/h (3 Bft) O-SO 111 2 min 0,000 mm 0,0 UV-I 200 W/m 12,1 C 12,0 C 22,5 km/h (4 Bft) 100,00 %
05.11.2018 14:44 16,1 C 10,0 C 16,7 C 78 % 1009,8 hPa 0,0 l/m 16,9 km/h (3 Bft) O-SO 113 2 min 0,000 mm 0,0 UV-I 198 W/m 12,3 C 12,0 C 25,7 km/h (4 Bft) 100,00 %
05.11.2018 14:46 16,1 C 10,6 C 16,7 C 78 % 1009,7 hPa 0,0 l/m 23,6 km/h (4 Bft) O-NO 69 2 min 0,000 mm 0,0 UV-I 203 W/m 12,3 C 10,4 C 30,6 km/h (5 Bft) 97,87 %
05.11.2018 14:48 16,0 C 10,0 C 16,7 C 78 % 1009,7 hPa 0,0 l/m 19,5 km/h (3 Bft) O 85 2 min 0,000 mm 0,0 UV-I 198 W/m 12,2 C 11,2 C 25,7 km/h (4 Bft) 97,87 %
05.11.2018 14:50 15,9 C 10,6 C 16,7 C 78 % 1009,7 hPa 0,0 l/m 21,0 km/h (4 Bft) O-SO 114 2 min 0,000 mm 0,0 UV-I 193 W/m 12,1 C 10,7 C 35,4 km/h (5 Bft) 100,00 %
05.11.2018 14:52 15,9 C 10,0 C 16,7 C 78 % 1009,7 hPa 0,0 l/m 20,9 km/h (4 Bft) O-SO 105 2 min 0,000 mm 0,0 UV-I 180 W/m 12,1 C 10,7 C 29,0 km/h (5 Bft) 97,87 %
05.11.2018 14:54 15,9 C 10,0 C 16,7 C 78 % 1009,7 hPa 0,0 l/m 20,0 km/h (4 Bft) O-NO 69 2 min 0,000 mm 0,0 UV-I 168 W/m 12,1 C 10,9 C 25,7 km/h (4 Bft) 100,00 %
05.11.2018 14:56 15,8 C 10,0 C 16,1 C 78 % 1009,7 hPa 0,0 l/m 19,0 km/h (3 Bft) O 86 2 min 0,000 mm 0,0 UV-I 167 W/m 12,0 C 11,0 C 24,1 km/h (4 Bft) 100,00 %
05.11.2018 14:58 15,8 C 10,0 C 16,1 C 79 % 1009,7 hPa 0,0 l/m 21,1 km/h (4 Bft) O 99 2 min 0,000 mm 0,0 UV-I 174 W/m 12,2 C 10,5 C 29,0 km/h (5 Bft) 97,87 %
05.11.2018 15:00 15,8 C 10,0 C 16,1 C 79 % 1009,7 hPa 0,0 l/m 22,2 km/h (4 Bft) O 95 2 min 0,178 mm 0,0 UV-I 176 W/m 12,2 C 10,3 C 30,6 km/h (5 Bft) 98,00 %
05.11.2018 15:02 15,8 C 10,0 C 16,1 C 78 % 1009,5 hPa 0,0 l/m 24,7 km/h (4 Bft) O 84 2 min 0,000 mm 0,0 UV-I 172 W/m 12,0 C 9,8 C 35,4 km/h (5 Bft) 100,00 %
05.11.2018 15:04 15,8 C 10,6 C 16,1 C 78 % 1009,6 hPa 0,0 l/m 20,3 km/h (4 Bft) O-SO 107 2 min 0,000 mm 0,0 UV-I 179 W/m 12,0 C 10,7 C 29,0 km/h (5 Bft) 100,00 %
05.11.2018 15:06 15,7 C 10,6 C 16,1 C 78 % 1009,5 hPa 0,0 l/m 22,9 km/h (4 Bft) O-NO 62 2 min 0,000 mm 0,0 UV-I 173 W/m 11,9 C 10,0 C 30,6 km/h (5 Bft) 100,00 %
05.11.2018 15:08 15,7 C 10,6 C 16,1 C 78 % 1009,5 hPa 0,0 l/m 24,0 km/h (4 Bft) O 98 2 min 0,000 mm 0,0 UV-I 147 W/m 11,9 C 9,8 C 30,6 km/h (5 Bft) 100,00 %
05.11.2018 15:10 15,6 C 10,0 C 15,6 C 78 % 1009,5 hPa 0,0 l/m 22,5 km/h (4 Bft) O-SO 116 2 min 0,000 mm 0,0 UV-I 140 W/m 11,8 C 9,9 C 32,2 km/h (5 Bft) 100,00 %
05.11.2018 15:12 15,6 C 10,0 C 15,6 C 78 % 1009,6 hPa 0,0 l/m 23,6 km/h (4 Bft) O 98 2 min 0,000 mm 0,0 UV-I 143 W/m 11,8 C 9,7 C 30,6 km/h (5 Bft) 100,00 %
05.11.2018 15:14 15,5 C 10,0 C 15,6 C 78 % 1009,6 hPa 0,0 l/m 22,6 km/h (4 Bft) SO 137 2 min 0,000 mm 0,0 UV-I 135 W/m 11,7 C 9,8 C 32,2 km/h (5 Bft) 100,00 %
05.11.2018 15:16 15,4 C 10,6 C 15,6 C 79 % 1009,7 hPa 0,0 l/m 20,8 km/h (4 Bft) O 97 2 min 0,000 mm 0,0 UV-I 140 W/m 11,8 C 10,1 C 29,0 km/h (5 Bft) 100,00 %
05.11.2018 15:18 15,4 C 10,6 C 15,6 C 79 % 1009,6 hPa 0,0 l/m 20,2 km/h (4 Bft) O-SO 102 2 min 0,000 mm 0,0 UV-I 143 W/m 11,8 C 10,2 C 27,4 km/h (4 Bft) 100,00 %
05.11.2018 15:20 15,3 C 10,0 C 15,6 C 79 % 1009,6 hPa 0,0 l/m 17,7 km/h (3 Bft) O 89 2 min 0,000 mm 0,0 UV-I 138 W/m 11,7 C 10,7 C 25,7 km/h (4 Bft) 100,00 %
05.11.2018 15:22 15,3 C 10,0 C 15,6 C 80 % 1009,7 hPa 0,0 l/m 18,8 km/h (3 Bft) O 79 2 min 0,000 mm 0,0 UV-I 134 W/m 11,9 C 10,4 C 25,7 km/h (4 Bft) 97,87 %
05.11.2018 15:24 15,3 C 10,0 C 15,6 C 80 % 1009,8 hPa 0,0 l/m 14,8 km/h (3 Bft) O 101 2 min 0,000 mm 0,0 UV-I 138 W/m 11,9 C 11,6 C 25,7 km/h (4 Bft) 98,00 %
05.11.2018 15:26 15,3 C 10,0 C 15,6 C 80 % 1009,7 hPa 0,0 l/m 15,6 km/h (3 Bft) O 99 2 min 0,000 mm 0,0 UV-I 148 W/m 11,9 C 11,4 C 25,7 km/h (4 Bft) 100,00 %
05.11.2018 15:28 15,3 C 10,0 C 15,6 C 80 % 1009,6 hPa 0,0 l/m 22,2 km/h (4 Bft) O 86 2 min 0,000 mm 0,0 UV-I 144 W/m 11,9 C 9,6 C 38,6 km/h (5 Bft) 97,87 %
05.11.2018 15:30 15,3 C 10,0 C 15,0 C 79 % 1009,5 hPa 0,0 l/m 21,7 km/h (4 Bft) O-SO 108 2 min 0,000 mm 0,0 UV-I 133 W/m 11,7 C 9,7 C 32,2 km/h (5 Bft) 100,00 %
05.11.2018 15:32 15,2 C 10,6 C 15,0 C 79 % 1009,5 hPa 0,0 l/m 19,6 km/h (3 Bft) O 95 2 min 0,000 mm 0,0 UV-I 116 W/m 11,6 C 10,1 C 32,2 km/h (5 Bft) 97,87 %
05.11.2018 15:34 15,2 C 10,6 C 15,0 C 79 % 1009,7 hPa 0,0 l/m 16,2 km/h (3 Bft) O-SO 118 2 min 0,000 mm 0,0 UV-I 106 W/m 11,6 C 11,1 C 22,5 km/h (4 Bft) 94,00 %
05.11.2018 15:36 15,1 C 10,0 C 15,0 C 80 % 1009,8 hPa 0,0 l/m 13,7 km/h (3 Bft) O-SO 105 2 min 0,000 mm 0,0 UV-I 102 W/m 11,7 C 11,8 C 25,7 km/h (4 Bft) 97,87 %
05.11.2018 15:38 15,1 C 10,0 C 15,0 C 80 % 1009,9 hPa 0,0 l/m 17,7 km/h (3 Bft) O-SO 109 2 min 0,000 mm 0,0 UV-I 97 W/m 11,7 C 10,5 C 27,4 km/h (4 Bft) 100,00 %
05.11.2018 15:40 15,0 C 10,0 C 15,0 C 80 % 1010,0 hPa 0,0 l/m 13,0 km/h (3 Bft) SO 135 2 min 0,000 mm 0,0 UV-I 90 W/m 11,6 C 11,9 C 19,3 km/h (3 Bft) 100,00 %
05.11.2018 15:42 14,9 C 10,0 C 15,0 C 80 % 1010,0 hPa 0,0 l/m 15,0 km/h (3 Bft) O-SO 115 2 min 0,000 mm 0,0 UV-I 86 W/m 11,5 C 11,1 C 20,9 km/h (4 Bft) 97,87 %
05.11.2018 15:44 14,9 C 10,0 C 14,4 C 80 % 1009,9 hPa 0,0 l/m 18,0 km/h (3 Bft) O 91 2 min 0,000 mm 0,0 UV-I 87 W/m 11,5 C 10,2 C 29,0 km/h (5 Bft) 97,87 %
05.11.2018 15:46 14,8 C 10,0 C 14,4 C 80 % 1010,0 hPa 0,0 l/m 19,4 km/h (3 Bft) O 88 2 min 0,000 mm 0,0 UV-I 107 W/m 11,4 C 9,6 C 29,0 km/h (5 Bft) 95,74 %
05.11.2018 15:48 14,8 C 10,0 C 14,4 C 80 % 1009,9 hPa 0,0 l/m 18,0 km/h (3 Bft) O-SO 103 2 min 0,000 mm 0,0 UV-I 119 W/m 11,4 C 10,0 C 25,7 km/h (4 Bft) 97,37 %
05.11.2018 15:50 14,8 C 10,6 C 14,4 C 81 % 1009,9 hPa 0,0 l/m 18,4 km/h (3 Bft) O-SO 113 2 min 0,000 mm 0,0 UV-I 125 W/m 11,6 C 9,9 C 27,4 km/h (4 Bft) 95,74 %
05.11.2018 15:52 14,7 C 10,0 C 14,4 C 81 % 1009,9 hPa 0,0 l/m 19,8 km/h (3 Bft) O 97 2 min 0,000 mm 0,0 UV-I 120 W/m 11,5 C 9,4 C 29,0 km/h (5 Bft) 96,00 %
05.11.2018 15:54 14,7 C 10,0 C 14,4 C 81 % 1009,9 hPa 0,0 l/m 18,5 km/h (3 Bft) O-NO 74 2 min 0,000 mm 0,0 UV-I 116 W/m 11,5 C 9,8 C 30,6 km/h (5 Bft) 95,74 %
05.11.2018 15:56 14,7 C 10,0 C 14,4 C 81 % 1009,8 hPa 0,0 l/m 24,7 km/h (4 Bft) O-SO 105 2 min 0,000 mm 0,0 UV-I 111 W/m 11,5 C 8,3 C 41,8 km/h (6 Bft) 94,00 %
05.11.2018 15:58 14,6 C 10,0 C 14,4 C 81 % 1009,8 hPa 0,0 l/m 24,2 km/h (4 Bft) O 90 2 min 0,000 mm 0,0 UV-I 105 W/m 11,4 C 8,2 C 33,8 km/h (5 Bft) 97,37 %
05.11.2018 16:00 14,5 C 10,0 C 13,9 C 81 % 1009,8 hPa 0,0 l/m 24,0 km/h (4 Bft) S-SO 160 2 min 0,000 mm 0,0 UV-I 96 W/m 11,3 C 8,1 C 30,6 km/h (5 Bft) 93,62 %
05.11.2018 16:02 14,4 C 10,0 C 13,9 C 81 % 1010,0 hPa 0,0 l/m 22,2 km/h (4 Bft) O-SO 123 2 min 0,127 mm 0,0 UV-I 92 W/m 11,2 C 8,4 C 30,6 km/h (5 Bft) 94,00 %
05.11.2018 16:04 14,4 C 10,0 C 13,9 C 82 % 1010,0 hPa 0,0 l/m 18,7 km/h (3 Bft) O 86 2 min 0,000 mm 0,0 UV-I 89 W/m 11,4 C 9,3 C 24,1 km/h (4 Bft) 96,23 %
05.11.2018 16:06 14,3 C 10,0 C 13,9 C 82 % 1009,9 hPa 0,0 l/m 18,5 km/h (3 Bft) O-NO 68 2 min 0,000 mm 0,0 UV-I 81 W/m 11,3 C 9,3 C 24,1 km/h (4 Bft) 95,74 %
05.11.2018 16:08 14,3 C 10,0 C 13,9 C 82 % 1010,0 hPa 0,0 l/m 17,7 km/h (3 Bft) O-NO 62 2 min 0,000 mm 0,0 UV-I 68 W/m 11,3 C 9,5 C 22,5 km/h (4 Bft) 95,74 %
05.11.2018 16:10 14,2 C 10,0 C 13,9 C 82 % 1010,0 hPa 0,0 l/m 19,1 km/h (3 Bft) O-NO 70 2 min 0,000 mm 0,0 UV-I 68 W/m 11,2 C 9,0 C 25,7 km/h (4 Bft) 95,74 %
05.11.2018 16:12 14,2 C 10,0 C 13,9 C 82 % 1010,1 hPa 0,0 l/m 20,0 km/h (4 Bft) O-NO 77 2 min 0,000 mm 0,0 UV-I 60 W/m 11,2 C 8,7 C 25,7 km/h (4 Bft) 94,87 %
05.11.2018 16:14 14,2 C 10,6 C 13,3 C 82 % 1010,1 hPa 0,0 l/m 17,4 km/h (3 Bft) O-NO 59 2 min 0,000 mm 0,0 UV-I 58 W/m 11,2 C 9,4 C 24,1 km/h (4 Bft) 91,49 %
05.11.2018 16:16 14,1 C 10,6 C 13,3 C 83 % 1010,0 hPa 0,0 l/m 17,3 km/h (3 Bft) O-NO 69 2 min 0,000 mm 0,0 UV-I 54 W/m 11,3 C 9,4 C 24,1 km/h (4 Bft) 96,00 %
05.11.2018 16:18 14,0 C 10,6 C 13,3 C 83 % 1010,1 hPa 0,0 l/m 15,1 km/h (3 Bft) O-NO 65 2 min 0,000 mm 0,0 UV-I 49 W/m 11,2 C 9,9 C 22,5 km/h (4 Bft) 96,00 %
05.11.2018 16:20 13,9 C 10,0 C 13,3 C 83 % 1010,0 hPa 0,0 l/m 15,5 km/h (3 Bft) O-NO 69 2 min 0,000 mm 0,0 UV-I 45 W/m 11,1 C 9,7 C 22,5 km/h (4 Bft) 92,00 %
05.11.2018 16:22 13,9 C 10,0 C 13,3 C 83 % 1010,0 hPa 0,0 l/m 14,7 km/h (3 Bft) O-NO 62 2 min 0,000 mm 0,0 UV-I 39 W/m 11,1 C 10,0 C 22,5 km/h (4 Bft) 92,11 %
05.11.2018 16:24 13,9 C 10,6 C 13,3 C 83 % 1009,9 hPa 0,0 l/m 14,0 km/h (3 Bft) O-NO 68 2 min 0,000 mm 0,0 UV-I 31 W/m 11,1 C 10,2 C 20,9 km/h (4 Bft) 93,62 %
05.11.2018 16:26 13,8 C 10,0 C 12,8 C 84 % 1009,9 hPa 0,0 l/m 16,0 km/h (3 Bft) O-NO 76 2 min 0,000 mm 0,0 UV-I 25 W/m 11,1 C 9,4 C 20,9 km/h (4 Bft) 93,62 %
05.11.2018 16:28 13,8 C 10,0 C 12,8 C 84 % 1010,0 hPa 0,0 l/m 15,8 km/h (3 Bft) O-NO 69 2 min 0,000 mm 0,0 UV-I 16 W/m 11,1 C 9,5 C 22,5 km/h (4 Bft) 95,74 %
05.11.2018 16:30 13,8 C 10,0 C 12,8 C 84 % 1010,1 hPa 0,0 l/m 13,5 km/h (3 Bft) NO 42 0 min 0,000 mm 0,0 UV-I 10 W/m 11,1 C 10,3 C 19,3 km/h (3 Bft) 95,74 %
05.11.2018 16:32 13,7 C 10,0 C 12,8 C 84 % 1010,0 hPa 0,0 l/m 14,1 km/h (3 Bft) NO 51 0 min 0,000 mm 0,0 UV-I 5 W/m 11,0 C 9,9 C 19,3 km/h (3 Bft) 98,00 %
05.11.2018 16:34 13,6 C 10,6 C 12,8 C 84 % 1010,1 hPa 0,0 l/m 14,3 km/h (3 Bft) O-NO 70 0 min 0,000 mm 0,0 UV-I 19 W/m 10,9 C 9,7 C 19,3 km/h (3 Bft) 94,29 %
05.11.2018 16:36 13,6 C 10,0 C 12,8 C 84 % 1010,2 hPa 0,0 l/m 14,9 km/h (3 Bft) O-NO 62 0 min 0,000 mm 0,0 UV-I 17 W/m 10,9 C 9,5 C 20,9 km/h (4 Bft) 96,77 %
05.11.2018 16:38 13,6 C 10,0 C 12,8 C 84 % 1010,2 hPa 0,0 l/m 15,1 km/h (3 Bft) O-NO 70 0 min 0,000 mm 0,0 UV-I 15 W/m 10,9 C 9,5 C 20,9 km/h (4 Bft) 93,62 %
05.11.2018 16:40 13,6 C 10,0 C 12,8 C 84 % 1010,1 hPa 0,0 l/m 15,6 km/h (3 Bft) O-NO 61 0 min 0,000 mm 0,0 UV-I 12 W/m 10,9 C 9,3 C 24,1 km/h (4 Bft) 97,87 %
05.11.2018 16:42 13,6 C 10,0 C 12,2 C 84 % 1010,2 hPa 0,0 l/m 14,8 km/h (3 Bft) O 93 0 min 0,000 mm 0,0 UV-I 11 W/m 10,9 C 9,6 C 20,9 km/h (4 Bft) 95,74 %
05.11.2018 16:44 13,6 C 10,0 C 12,2 C 84 % 1010,1 hPa 0,0 l/m 14,4 km/h (3 Bft) O 91 0 min 0,000 mm 0,0 UV-I 12 W/m 10,9 C 9,7 C 19,3 km/h (3 Bft) 97,87 %
05.11.2018 16:46 13,6 C 10,0 C 12,2 C 84 % 1010,1 hPa 0,0 l/m 13,3 km/h (3 Bft) O 80 0 min 0,000 mm 0,0 UV-I 12 W/m 10,9 C 10,1 C 19,3 km/h (3 Bft) 97,22 %
05.11.2018 16:48 13,5 C 10,0 C 12,2 C 85 % 1010,1 hPa 0,0 l/m 14,7 km/h (3 Bft) O 90 0 min 0,000 mm 0,0 UV-I 12 W/m 11,0 C 9,5 C 19,3 km/h (3 Bft) 98,18 %
05.11.2018 16:50 13,5 C 10,0 C 12,2 C 85 % 1010,1 hPa 0,0 l/m 15,2 km/h (3 Bft) O 84 0 min 0,000 mm 0,0 UV-I 12 W/m 11,0 C 9,3 C 20,9 km/h (4 Bft) 97,87 %
05.11.2018 16:52 13,4 C 10,0 C 12,2 C 85 % 1010,2 hPa 0,0 l/m 12,1 km/h (2 Bft) O 92 0 min 0,000 mm 0,0 UV-I 10 W/m 10,9 C 10,4 C 17,7 km/h (3 Bft) 98,00 %
05.11.2018 16:54 13,4 C 10,0 C 12,2 C 85 % 1010,2 hPa 0,0 l/m 16,4 km/h (3 Bft) O-NO 63 0 min 0,000 mm 0,0 UV-I 0 W/m 10,9 C 8,8 C 22,5 km/h (4 Bft) 97,87 %
05.11.2018 16:56 13,4 C 10,0 C 12,2 C 85 % 1010,1 hPa 0,0 l/m 17,1 km/h (3 Bft) O 90 0 min 0,000 mm 0,0 UV-I 4 W/m 10,9 C 8,5 C 24,1 km/h (4 Bft) 97,87 %
05.11.2018 16:58 13,4 C 10,0 C 12,2 C 85 % 1010,1 hPa 0,0 l/m 14,7 km/h (3 Bft) O-SO 102 0 min 0,000 mm 0,0 UV-I 0 W/m 10,9 C 9,4 C 19,3 km/h (3 Bft) 97,87 %
05.11.2018 17:00 13,3 C 10,0 C 12,2 C 85 % 1010,1 hPa 0,0 l/m 17,5 km/h (3 Bft) O-SO 121 0 min 0,000 mm 0,0 UV-I 0 W/m 10,8 C 8,3 C 24,1 km/h (4 Bft) 97,87 %
05.11.2018 17:02 13,3 C 10,0 C 12,2 C 85 % 1010,0 hPa 0,0 l/m 17,8 km/h (3 Bft) O 96 0 min 0,051 mm 0,0 UV-I 0 W/m 10,8 C 8,2 C 25,7 km/h (4 Bft) 100,00 %
05.11.2018 17:04 13,3 C 10,0 C 12,2 C 85 % 1010,1 hPa 0,0 l/m 18,2 km/h (3 Bft) O 90 0 min 0,000 mm 0,0 UV-I 0 W/m 10,8 C 8,1 C 27,4 km/h (4 Bft) 100,00 %
05.11.2018 17:06 13,2 C 10,0 C 12,2 C 85 % 1010,1 hPa 0,0 l/m 15,0 km/h (3 Bft) O-SO 105 0 min 0,000 mm 0,0 UV-I 0 W/m 10,7 C 9,0 C 19,3 km/h (3 Bft) 98,00 %
05.11.2018 17:08 13,2 C 10,0 C 12,2 C 86 % 1010,1 hPa 0,0 l/m 19,9 km/h (4 Bft) O 90 0 min 0,000 mm 0,0 UV-I 0 W/m 10,9 C 7,4 C 25,7 km/h (4 Bft) 95,74 %
05.11.2018 17:10 13,2 C 10,0 C 12,2 C 86 % 1010,1 hPa 0,0 l/m 19,8 km/h (3 Bft) O 97 0 min 0,000 mm 0,0 UV-I 0 W/m 10,9 C 7,5 C 27,4 km/h (4 Bft) 95,74 %
05.11.2018 17:12 13,2 C 10,0 C 12,2 C 86 % 1010,0 hPa 0,0 l/m 21,6 km/h (4 Bft) O-SO 105 0 min 0,000 mm 0,0 UV-I 0 W/m 10,9 C 7,0 C 30,6 km/h (5 Bft) 95,74 %
05.11.2018 17:14 13,1 C 10,0 C 11,7 C 86 % 1010,0 hPa 0,0 l/m 21,5 km/h (4 Bft) O-SO 113 0 min 0,000 mm 0,0 UV-I 0 W/m 10,8 C 6,9 C 30,6 km/h (5 Bft) 97,87 %
05.11.2018 17:16 13,1 C 10,0 C 11,7 C 86 % 1010,1 hPa 0,0 l/m 18,9 km/h (3 Bft) O 82 0 min 0,000 mm 0,0 UV-I 0 W/m 10,8 C 7,6 C 25,7 km/h (4 Bft) 97,87 %
05.11.2018 17:18 13,1 C 10,0 C 11,7 C 86 % 1010,1 hPa 0,0 l/m 20,3 km/h (4 Bft) O 101 0 min 0,000 mm 0,0 UV-I 0 W/m 10,8 C 7,2 C 25,7 km/h (4 Bft) 96,00 %
05.11.2018 17:20 13,0 C 10,0 C 11,7 C 86 % 1010,1 hPa 0,0 l/m 17,6 km/h (3 Bft) O 90 0 min 0,000 mm 0,0 UV-I 0 W/m 10,7 C 7,9 C 27,4 km/h (4 Bft) 97,87 %
05.11.2018 17:22 12,9 C 10,0 C 11,7 C 86 % 1010,1 hPa 0,0 l/m 17,2 km/h (3 Bft) O-SO 122 0 min 0,000 mm 0,0 UV-I 0 W/m 10,6 C 7,9 C 24,1 km/h (4 Bft) 97,87 %
05.11.2018 17:24 12,9 C 10,0 C 11,7 C 86 % 1010,1 hPa 0,0 l/m 17,3 km/h (3 Bft) O 80 0 min 0,000 mm 0,0 UV-I 0 W/m 10,6 C 7,9 C 24,1 km/h (4 Bft) 98,00 %
05.11.2018 17:26 12,9 C 10,0 C 11,7 C 86 % 1010,1 hPa 0,0 l/m 19,4 km/h (3 Bft) O 93 0 min 0,000 mm 0,0 UV-I 0 W/m 10,6 C 7,2 C 25,7 km/h (4 Bft) 93,75 %
05.11.2018 17:28 12,8 C 10,0 C 11,7 C 87 % 1010,3 hPa 0,0 l/m 16,3 km/h (3 Bft) O-SO 105 0 min 0,000 mm 0,0 UV-I 0 W/m 10,7 C 8,1 C 24,1 km/h (4 Bft) 97,37 %
05.11.2018 17:30 12,8 C 10,0 C 11,7 C 87 % 1010,3 hPa 0,0 l/m 16,8 km/h (3 Bft) O-SO 109 0 min 0,000 mm 0,0 UV-I 0 W/m 10,7 C 7,9 C 20,9 km/h (4 Bft) 100,00 %
05.11.2018 17:32 12,8 C 10,6 C 11,7 C 87 % 1010,3 hPa 0,0 l/m 19,1 km/h (3 Bft) O-SO 110 0 min 0,000 mm 0,0 UV-I 0 W/m 10,7 C 7,2 C 27,4 km/h (4 Bft) 100,00 %
05.11.2018 17:34 12,8 C 10,0 C 11,7 C 87 % 1010,3 hPa 0,0 l/m 13,8 km/h (3 Bft) O 88 0 min 0,000 mm 0,0 UV-I 0 W/m 10,7 C 9,0 C 19,3 km/h (3 Bft) 97,87 %
05.11.2018 17:36 12,7 C 10,0 C 11,7 C 87 % 1010,3 hPa 0,0 l/m 16,0 km/h (3 Bft) O 86 0 min 0,000 mm 0,0 UV-I 0 W/m 10,6 C 8,0 C 20,9 km/h (4 Bft) 100,00 %
05.11.2018 17:38 12,7 C 10,0 C 11,7 C 87 % 1010,3 hPa 0,0 l/m 14,0 km/h (3 Bft) O 88 0 min 0,000 mm 0,0 UV-I 0 W/m 10,6 C 8,8 C 19,3 km/h (3 Bft) 98,00 %
05.11.2018 17:40 12,7 C 10,0 C 11,7 C 87 % 1010,3 hPa 0,0 l/m 14,3 km/h (3 Bft) O 88 0 min 0,000 mm 0,0 UV-I 0 W/m 10,6 C 8,7 C 19,3 km/h (3 Bft) 100,00 %
05.11.2018 17:42 12,6 C 10,0 C 11,7 C 87 % 1010,3 hPa 0,0 l/m 12,8 km/h (3 Bft) O 86 0 min 0,000 mm 0,0 UV-I 0 W/m 10,5 C 9,2 C 19,3 km/h (3 Bft) 97,37 %
05.11.2018 17:44 12,6 C 10,0 C 11,7 C 87 % 1010,3 hPa 0,0 l/m 15,5 km/h (3 Bft) O-SO 102 0 min 0,000 mm 0,0 UV-I 0 W/m 10,5 C 8,1 C 20,9 km/h (4 Bft) 97,87 %
05.11.2018 17:46 12,5 C 10,0 C 11,1 C 87 % 1010,2 hPa 0,0 l/m 15,3 km/h (3 Bft) O-SO 108 0 min 0,000 mm 0,0 UV-I 0 W/m 10,4 C 8,1 C 24,1 km/h (4 Bft) 97,87 %
05.11.2018 17:48 12,5 C 10,0 C 11,1 C 88 % 1010,3 hPa 0,0 l/m 16,4 km/h (3 Bft) O 92 0 min 0,000 mm 0,0 UV-I 0 W/m 10,6 C 7,7 C 22,5 km/h (4 Bft) 97,87 %
05.11.2018 17:50 12,4 C 10,0 C 11,1 C 88 % 1010,2 hPa 0,0 l/m 15,7 km/h (3 Bft) O 98 0 min 0,000 mm 0,0 UV-I 0 W/m 10,5 C 7,8 C 20,9 km/h (4 Bft) 100,00 %
05.11.2018 17:52 12,4 C 10,6 C 11,1 C 88 % 1010,3 hPa 0,0 l/m 18,8 km/h (3 Bft) O-SO 105 0 min 0,000 mm 0,0 UV-I 0 W/m 10,5 C 6,7 C 25,7 km/h (4 Bft) 100,00 %
05.11.2018 17:54 12,4 C 10,0 C 11,1 C 88 % 1010,2 hPa 0,0 l/m 19,5 km/h (3 Bft) O-SO 113 0 min 0,000 mm 0,0 UV-I 0 W/m 10,5 C 6,5 C 24,1 km/h (4 Bft) 100,00 %
05.11.2018 17:56 12,4 C 10,0 C 11,1 C 88 % 1010,2 hPa 0,0 l/m 14,4 km/h (3 Bft) O-SO 109 0 min 0,000 mm 0,0 UV-I 0 W/m 10,5 C 8,3 C 25,7 km/h (4 Bft) 100,00 %
05.11.2018 17:58 12,4 C 10,0 C 11,1 C 88 % 1010,2 hPa 0,0 l/m 19,6 km/h (3 Bft) O 86 0 min 0,000 mm 0,0 UV-I 0 W/m 10,5 C 6,5 C 25,7 km/h (4 Bft) 100,00 %
05.11.2018 18:00 12,4 C 10,0 C 11,1 C 88 % 1010,2 hPa 0,0 l/m 16,3 km/h (3 Bft) O 82 0 min 0,025 mm 0,0 UV-I 0 W/m 10,5 C 7,6 C 25,7 km/h (4 Bft) 100,00 %
05.11.2018 18:02 12,3 C 10,0 C 11,1 C 88 % 1010,2 hPa 0,0 l/m 14,1 km/h (3 Bft) O 92 0 min 0,000 mm 0,0 UV-I 0 W/m 10,4 C 8,3 C 19,3 km/h (3 Bft) 100,00 %
05.11.2018 18:04 12,3 C 10,0 C 11,1 C 88 % 1010,3 hPa 0,0 l/m 13,0 km/h (3 Bft) O 82 0 min 0,000 mm 0,0 UV-I 0 W/m 10,4 C 8,7 C 17,7 km/h (3 Bft) 100,00 %
05.11.2018 18:06 12,3 C 10,0 C 11,1 C 88 % 1010,3 hPa 0,0 l/m 12,7 km/h (3 Bft) O 94 0 min 0,000 mm 0,0 UV-I 0 W/m 10,4 C 8,9 C 17,7 km/h (3 Bft) 100,00 %
05.11.2018 18:08 12,3 C 10,0 C 11,1 C 88 % 1010,3 hPa 0,0 l/m 11,7 km/h (2 Bft) O-NO 67 0 min 0,000 mm 0,0 UV-I 0 W/m 10,4 C 9,3 C 16,1 km/h (3 Bft) 96,23 %
05.11.2018 18:10 12,2 C 10,0 C 11,1 C 89 % 1010,4 hPa 0,0 l/m 8,9 km/h (2 Bft) O 97 0 min 0,000 mm 0,0 UV-I 0 W/m 10,4 C 10,6 C 14,5 km/h (3 Bft) 97,37 %
05.11.2018 18:12 12,2 C 10,0 C 11,1 C 89 % 1010,3 hPa 0,0 l/m 11,0 km/h (2 Bft) O-NO 72 0 min 0,000 mm 0,0 UV-I 0 W/m 10,4 C 9,5 C 14,5 km/h (3 Bft) 95,74 %
05.11.2018 18:14 12,2 C 10,0 C 11,1 C 89 % 1010,3 hPa 0,0 l/m 11,2 km/h (2 Bft) O 86 0 min 0,000 mm 0,0 UV-I 0 W/m 10,4 C 9,4 C 14,5 km/h (3 Bft) 97,87 %
05.11.2018 18:16 12,2 C 10,0 C 11,1 C 89 % 1010,3 hPa 0,0 l/m 12,0 km/h (2 Bft) O-SO 114 0 min 0,000 mm 0,0 UV-I 0 W/m 10,4 C 9,0 C 16,1 km/h (3 Bft) 98,15 %
05.11.2018 18:18 12,1 C 10,0 C 10,6 C 89 % 1010,3 hPa 0,0 l/m 10,8 km/h (2 Bft) O 99 0 min 0,000 mm 0,0 UV-I 0 W/m 10,3 C 9,5 C 16,1 km/h (3 Bft) 97,37 %
05.11.2018 18:20 12,1 C 10,0 C 10,6 C 89 % 1010,4 hPa 0,0 l/m 11,1 km/h (2 Bft) O-SO 104 0 min 0,000 mm 0,0 UV-I 0 W/m 10,3 C 9,4 C 16,1 km/h (3 Bft) 98,00 %
05.11.2018 18:22 12,1 C 10,0 C 10,6 C 89 % 1010,3 hPa 0,0 l/m 11,9 km/h (2 Bft) O-SO 109 0 min 0,000 mm 0,0 UV-I 0 W/m 10,3 C 9,0 C 17,7 km/h (3 Bft) 95,74 %
05.11.2018 18:24 12,1 C 10,0 C 10,6 C 89 % 1010,3 hPa 0,0 l/m 12,1 km/h (2 Bft) O-SO 115 0 min 0,000 mm 0,0 UV-I 0 W/m 10,3 C 8,9 C 17,7 km/h (3 Bft) 97,87 %
05.11.2018 18:26 12,1 C 10,0 C 10,6 C 89 % 1010,3 hPa 0,0 l/m 13,6 km/h (3 Bft) O 100 0 min 0,000 mm 0,0 UV-I 0 W/m 10,3 C 8,2 C 19,3 km/h (3 Bft) 94,00 %
05.11.2018 18:28 12,2 C 10,0 C 10,6 C 89 % 1010,2 hPa 0,0 l/m 15,2 km/h (3 Bft) O 101 0 min 0,000 mm 0,0 UV-I 0 W/m 10,4 C 7,7 C 20,9 km/h (4 Bft) 95,74 %
05.11.2018 18:30 12,2 C 10,0 C 10,6 C 89 % 1010,3 hPa 0,0 l/m 12,1 km/h (2 Bft) O 101 0 min 0,000 mm 0,0 UV-I 0 W/m 10,4 C 9,0 C 17,7 km/h (3 Bft) 96,00 %
05.11.2018 18:32 12,2 C 10,0 C 10,6 C 89 % 1010,3 hPa 0,0 l/m 14,3 km/h (3 Bft) O 82 0 min 0,000 mm 0,0 UV-I 0 W/m 10,4 C 8,1 C 19,3 km/h (3 Bft) 95,74 %
05.11.2018 18:34 12,2 C 10,0 C 11,1 C 89 % 1010,3 hPa 0,0 l/m 11,4 km/h (2 Bft) O 81 0 min 0,000 mm 0,0 UV-I 0 W/m 10,4 C 9,3 C 17,7 km/h (3 Bft) 94,44 %
05.11.2018 18:36 12,2 C 10,0 C 10,6 C 89 % 1010,4 hPa 0,0 l/m 11,8 km/h (2 Bft) O-NO 75 0 min 0,000 mm 0,0 UV-I 0 W/m 10,4 C 9,1 C 14,5 km/h (3 Bft) 96,00 %
05.11.2018 18:38 12,1 C 10,6 C 10,6 C 89 % 1010,4 hPa 0,0 l/m 11,5 km/h (2 Bft) NO 49 0 min 0,000 mm 0,0 UV-I 0 W/m 10,3 C 9,2 C 16,1 km/h (3 Bft) 92,00 %
05.11.2018 18:40 11,9 C 10,0 C 10,6 C 89 % 1010,3 hPa 0,0 l/m 11,3 km/h (2 Bft) NO 48 0 min 0,000 mm 0,0 UV-I 0 W/m 10,1 C 9,0 C 16,1 km/h (3 Bft) 97,87 %
05.11.2018 18:42 11,8 C 10,0 C 10,6 C 89 % 1010,3 hPa 0,0 l/m 12,5 km/h (3 Bft) O-NO 67 0 min 0,000 mm 0,0 UV-I 0 W/m 10,0 C 8,4 C 16,1 km/h (3 Bft) 93,62 %
05.11.2018 18:44 11,8 C 10,0 C 10,6 C 89 % 1010,3 hPa 0,0 l/m 10,2 km/h (2 Bft) O-NO 71 0 min 0,000 mm 0,0 UV-I 0 W/m 10,0 C 9,5 C 14,5 km/h (3 Bft) 95,74 %
05.11.2018 18:46 11,7 C 10,0 C 10,6 C 90 % 1010,2 hPa 0,0 l/m 11,6 km/h (2 Bft) O 89 0 min 0,000 mm 0,0 UV-I 0 W/m 10,1 C 8,7 C 16,1 km/h (3 Bft) 95,74 %
05.11.2018 18:48 11,7 C 10,0 C 10,6 C 90 % 1010,3 hPa 0,0 l/m 12,1 km/h (2 Bft) O-NO 62 0 min 0,000 mm 0,0 UV-I 0 W/m 10,1 C 8,4 C 17,7 km/h (3 Bft) 96,00 %
05.11.2018 18:50 11,7 C 10,0 C 10,6 C 90 % 1010,3 hPa 0,0 l/m 11,3 km/h (2 Bft) NO 49 0 min 0,000 mm 0,0 UV-I 0 W/m 10,1 C 8,8 C 16,1 km/h (3 Bft) 93,62 %
05.11.2018 18:52 11,6 C 10,0 C 10,6 C 90 % 1010,4 hPa 0,0 l/m 11,8 km/h (2 Bft) O-NO 70 0 min 0,000 mm 0,0 UV-I 0 W/m 10,0 C 8,5 C 16,1 km/h (3 Bft) 97,87 %
05.11.2018 18:54 11,6 C 10,0 C 10,6 C 90 % 1010,3 hPa 0,0 l/m 10,0 km/h (2 Bft) O-NO 69 0 min 0,000 mm 0,0 UV-I 0 W/m 10,0 C 9,4 C 12,9 km/h (3 Bft) 100,00 %
05.11.2018 18:56 11,6 C 10,0 C 10,6 C 90 % 1010,3 hPa 0,0 l/m 13,1 km/h (3 Bft) O-NO 69 0 min 0,000 mm 0,0 UV-I 0 W/m 10,0 C 7,9 C 16,1 km/h (3 Bft) 100,00 %
05.11.2018 18:58 11,7 C 10,0 C 10,6 C 90 % 1010,1 hPa 0,0 l/m 13,4 km/h (3 Bft) O 87 0 min 0,000 mm 0,0 UV-I 0 W/m 10,1 C 7,8 C 17,7 km/h (3 Bft) 95,74 %
05.11.2018 19:00 11,7 C 10,0 C 10,6 C 90 % 1010,2 hPa 0,0 l/m 13,6 km/h (3 Bft) O-NO 69 0 min 0,026 mm 0,0 UV-I 0 W/m 10,1 C 7,8 C 17,7 km/h (3 Bft) 97,87 %
05.11.2018 19:02 11,6 C 10,0 C 10,6 C 90 % 1010,2 hPa 0,0 l/m 12,6 km/h (3 Bft) O-NO 78 0 min 0,000 mm 0,0 UV-I 0 W/m 10,0 C 8,1 C 16,1 km/h (3 Bft) 98,11 %
05.11.2018 19:04 11,6 C 10,0 C 10,6 C 90 % 1010,1 hPa 0,0 l/m 13,6 km/h (3 Bft) O 84 0 min 0,000 mm 0,0 UV-I 0 W/m 10,0 C 7,6 C 17,7 km/h (3 Bft) 100,00 %
05.11.2018 19:06 11,6 C 10,0 C 10,6 C 90 % 1010,1 hPa 0,0 l/m 13,9 km/h (3 Bft) O 88 0 min 0,000 mm 0,0 UV-I 0 W/m 10,0 C 7,5 C 19,3 km/h (3 Bft) 100,00 %
05.11.2018 19:08 11,6 C 10,0 C 10,6 C 90 % 1010,0 hPa 0,0 l/m 14,6 km/h (3 Bft) O-SO 104 0 min 0,000 mm 0,0 UV-I 0 W/m 10,0 C 7,2 C 19,3 km/h (3 Bft) 95,12 %
05.11.2018 19:10 11,6 C 10,0 C 10,6 C 90 % 1010,0 hPa 0,0 l/m 16,7 km/h (3 Bft) O 92 0 min 0,000 mm 0,0 UV-I 0 W/m 10,0 C 6,4 C 22,5 km/h (4 Bft) 100,00 %
05.11.2018 19:12 11,6 C 10,0 C 10,6 C 91 % 1010,0 hPa 0,0 l/m 16,5 km/h (3 Bft) O-SO 112 0 min 0,000 mm 0,0 UV-I 0 W/m 10,2 C 6,5 C 20,9 km/h (4 Bft) 100,00 %
05.11.2018 19:14 11,6 C 10,0 C 10,6 C 91 % 1010,0 hPa 0,0 l/m 15,6 km/h (3 Bft) O-SO 103 0 min 0,000 mm 0,0 UV-I 0 W/m 10,2 C 6,8 C 22,5 km/h (4 Bft) 95,74 %
05.11.2018 19:16 11,7 C 10,0 C 10,6 C 90 % 1010,1 hPa 0,0 l/m 13,4 km/h (3 Bft) O-NO 64 0 min 0,000 mm 0,0 UV-I 0 W/m 10,1 C 7,8 C 17,7 km/h (3 Bft) 100,00 %
05.11.2018 19:18 11,7 C 10,0 C 10,6 C 90 % 1010,1 hPa 0,0 l/m 11,4 km/h (2 Bft) O-NO 77 0 min 0,000 mm 0,0 UV-I 0 W/m 10,1 C 8,8 C 14,5 km/h (3 Bft) 97,87 %
05.11.2018 19:20 11,6 C 10,0 C 10,6 C 90 % 1010,1 hPa 0,0 l/m 9,5 km/h (2 Bft) NO 54 0 min 0,000 mm 0,0 UV-I 0 W/m 10,0 C 9,6 C 16,1 km/h (3 Bft) 97,87 %
05.11.2018 19:22 11,5 C 10,0 C 10,6 C 90 % 1010,2 hPa 0,0 l/m 8,3 km/h (2 Bft) NO 46 0 min 0,000 mm 0,0 UV-I 0 W/m 9,9 C 10,2 C 9,7 km/h (2 Bft) 100,00 %
05.11.2018 19:24 11,4 C 10,0 C 10,0 C 90 % 1010,3 hPa 0,0 l/m 10,2 km/h (2 Bft) N-NO 18 0 min 0,000 mm 0,0 UV-I 0 W/m 9,8 C 9,0 C 16,1 km/h (3 Bft) 100,00 %
05.11.2018 19:26 11,3 C 10,0 C 10,0 C 91 % 1010,4 hPa 0,0 l/m 9,0 km/h (2 Bft) N-NO 26 0 min 0,000 mm 0,0 UV-I 0 W/m 9,9 C 9,6 C 12,9 km/h (3 Bft) 98,00 %
05.11.2018 19:28 11,2 C 10,0 C 10,0 C 91 % 1010,4 hPa 0,0 l/m 8,0 km/h (2 Bft) NO 37 0 min 0,000 mm 0,0 UV-I 0 W/m 9,8 C 10,1 C 12,9 km/h (3 Bft) 97,87 %
05.11.2018 19:30 11,2 C 10,0 C 10,0 C 91 % 1010,4 hPa 0,0 l/m 9,1 km/h (2 Bft) NO 46 0 min 0,000 mm 0,0 UV-I 0 W/m 9,8 C 9,4 C 11,3 km/h (2 Bft) 100,00 %
05.11.2018 19:32 11,2 C 10,0 C 10,0 C 91 % 1010,5 hPa 0,0 l/m 9,0 km/h (2 Bft) O-NO 69 0 min 0,000 mm 0,0 UV-I 0 W/m 9,8 C 9,5 C 12,9 km/h (3 Bft) 97,87 %
05.11.2018 19:34 11,3 C 10,0 C 10,0 C 91 % 1010,4 hPa 0,0 l/m 9,7 km/h (2 Bft) O-NO 72 0 min 0,000 mm 0,0 UV-I 0 W/m 9,9 C 9,2 C 12,9 km/h (3 Bft) 100,00 %
05.11.2018 19:36 11,4 C 10,0 C 10,0 C 91 % 1010,2 hPa 0,0 l/m 10,5 km/h (2 Bft) O-NO 75 0 min 0,000 mm 0,0 UV-I 0 W/m 10,0 C 8,9 C 14,5 km/h (3 Bft) 100,00 %
05.11.2018 19:38 11,4 C 10,0 C 10,0 C 91 % 1010,4 hPa 0,0 l/m 11,0 km/h (2 Bft) O-NO 63 0 min 0,000 mm 0,0 UV-I 0 W/m 10,0 C 8,6 C 16,1 km/h (3 Bft) 95,74 %
05.11.2018 19:40 11,4 C 10,0 C 10,0 C 90 % 1010,4 hPa 0,0 l/m 7,8 km/h (2 Bft) NO 44 0 min 0,000 mm 0,0 UV-I 0 W/m 9,8 C 10,5 C 12,9 km/h (3 Bft) 100,00 %
05.11.2018 19:42 11,3 C 10,0 C 10,0 C 90 % 1010,4 hPa 0,0 l/m 10,1 km/h (2 Bft) N-NO 19 0 min 0,000 mm 0,0 UV-I 0 W/m 9,7 C 9,0 C 12,9 km/h (3 Bft) 97,87 %
05.11.2018 19:44 11,1 C 10,0 C 10,0 C 90 % 1010,6 hPa 0,0 l/m 10,2 km/h (2 Bft) N-NO 25 0 min 0,000 mm 0,0 UV-I 0 W/m 9,5 C 8,7 C 12,9 km/h (3 Bft) 97,37 %
05.11.2018 19:46 10,9 C 10,0 C 10,0 C 91 % 1010,6 hPa 0,0 l/m 11,4 km/h (2 Bft) NO 34 0 min 0,000 mm 0,0 UV-I 0 W/m 9,5 C 7,8 C 14,5 km/h (3 Bft) 97,87 %
05.11.2018 19:48 11,0 C 10,0 C 10,0 C 91 % 1010,5 hPa 0,0 l/m 13,2 km/h (3 Bft) NO 43 0 min 0,000 mm 0,0 UV-I 0 W/m 9,6 C 7,1 C 17,7 km/h (3 Bft) 100,00 %
05.11.2018 19:50 11,1 C 10,0 C 10,0 C 91 % 1010,5 hPa 0,0 l/m 11,8 km/h (2 Bft) O-NO 64 0 min 0,000 mm 0,0 UV-I 0 W/m 9,7 C 7,9 C 14,5 km/h (3 Bft) 100,00 %
05.11.2018 19:52 11,1 C 10,0 C 10,0 C 91 % 1010,5 hPa 0,0 l/m 11,2 km/h (2 Bft) NO 46 0 min 0,000 mm 0,0 UV-I 0 W/m 9,7 C 8,2 C 16,1 km/h (3 Bft) 98,04 %
05.11.2018 19:54 11,1 C 10,0 C 10,0 C 91 % 1010,5 hPa 0,0 l/m 11,3 km/h (2 Bft) NO 49 0 min 0,000 mm 0,0 UV-I 0 W/m 9,7 C 8,1 C 16,1 km/h (3 Bft) 93,62 %
05.11.2018 19:56 11,1 C 10,0 C 10,0 C 91 % 1010,4 hPa 0,0 l/m 10,6 km/h (2 Bft) NO 54 0 min 0,000 mm 0,0 UV-I 0 W/m 9,7 C 8,5 C 14,5 km/h (3 Bft) 97,37 %
05.11.2018 19:58 11,1 C 10,0 C 10,0 C 91 % 1010,5 hPa 0,0 l/m 8,9 km/h (2 Bft) O-NO 70 0 min 0,000 mm 0,0 UV-I 0 W/m 9,7 C 9,4 C 14,5 km/h (3 Bft) 93,62 %
05.11.2018 20:00 11,1 C 10,0 C 10,0 C 91 % 1010,5 hPa 0,0 l/m 8,9 km/h (2 Bft) O-NO 65 0 min 0,000 mm 0,0 UV-I 0 W/m 9,7 C 9,4 C 16,1 km/h (3 Bft) 95,74 %
05.11.2018 20:02 11,1 C 10,0 C 10,0 C 91 % 1010,5 hPa 0,0 l/m 9,8 km/h (2 Bft) O-NO 69 0 min 0,025 mm 0,0 UV-I 0 W/m 9,7 C 8,9 C 12,9 km/h (3 Bft) 95,74 %
05.11.2018 20:04 11,2 C 10,0 C 10,0 C 91 % 1010,5 hPa 0,0 l/m 8,8 km/h (2 Bft) O-NO 59 0 min 0,000 mm 0,0 UV-I 0 W/m 9,8 C 9,6 C 12,9 km/h (3 Bft) 91,49 %
05.11.2018 20:06 11,2 C 10,0 C 10,0 C 91 % 1010,4 hPa 0,0 l/m 8,9 km/h (2 Bft) NO 56 0 min 0,000 mm 0,0 UV-I 0 W/m 9,8 C 9,6 C 12,9 km/h (3 Bft) 91,49 %
05.11.2018 20:09 11,2 C 10,0 C 10,0 C 90 % 1010,5 hPa 0,0 l/m 10,2 km/h (2 Bft) NO 54 0 min 0,000 mm 0,0 UV-I 0 W/m 9,6 C 8,8 C 14,5 km/h (3 Bft) 92,96 %
05.11.2018 20:10 11,2 C 10,0 C 10,0 C 90 % 1010,5 hPa 0,0 l/m 8,1 km/h (2 Bft) O-NO 66 0 min 0,000 mm 0,0 UV-I 0 W/m 9,6 C 10,0 C 11,3 km/h (2 Bft) 86,96 %
05.11.2018 20:12 11,1 C 10,0 C 10,0 C 90 % 1010,5 hPa 0,0 l/m 9,2 km/h (2 Bft) O-NO 59 0 min 0,000 mm 0,0 UV-I 0 W/m 9,5 C 9,3 C 12,9 km/h (3 Bft) 91,49 %
05.11.2018 20:14 11,1 C 10,0 C 9,4 C 90 % 1010,5 hPa 0,0 l/m 8,5 km/h (2 Bft) NO 50 0 min 0,000 mm 0,0 UV-I 0 W/m 9,5 C 9,7 C 12,9 km/h (3 Bft) 94,00 %
05.11.2018 20:16 10,9 C 10,0 C 9,4 C 91 % 1010,5 hPa 0,0 l/m 6,0 km/h (2 Bft) O-NO 59 0 min 0,000 mm 0,0 UV-I 0 W/m 9,5 C 10,9 C 9,7 km/h (2 Bft) 91,49 %
05.11.2018 20:18 10,9 C 10,0 C 9,4 C 91 % 1010,6 hPa 0,0 l/m 4,4 km/h (1 Bft) O 92 0 min 0,000 mm 0,0 UV-I 0 W/m 9,5 C 10,9 C 8,0 km/h (2 Bft) 88,00 %
05.11.2018 20:20 10,9 C 10,0 C 8,9 C 91 % 1010,6 hPa 0,0 l/m 6,2 km/h (2 Bft) O-NO 60 0 min 0,000 mm 0,0 UV-I 0 W/m 9,5 C 10,9 C 9,7 km/h (2 Bft) 95,74 %
05.11.2018 20:22 10,9 C 10,0 C 8,9 C 90 % 1010,5 hPa 0,0 l/m 8,8 km/h (2 Bft) NO 51 0 min 0,000 mm 0,0 UV-I 0 W/m 9,3 C 9,3 C 11,3 km/h (2 Bft) 89,47 %
05.11.2018 20:24 10,8 C 10,0 C 9,4 C 91 % 1010,5 hPa 0,0 l/m 8,9 km/h (2 Bft) NO 42 0 min 0,000 mm 0,0 UV-I 0 W/m 9,4 C 9,1 C 12,9 km/h (3 Bft) 94,44 %
05.11.2018 20:26 10,8 C 10,0 C 9,4 C 91 % 1010,5 hPa 0,0 l/m 10,4 km/h (2 Bft) NO 36 0 min 0,000 mm 0,0 UV-I 0 W/m 9,4 C 8,3 C 16,1 km/h (3 Bft) 93,75 %
05.11.2018 20:28 10,8 C 10,0 C 9,4 C 91 % 1010,6 hPa 0,0 l/m 9,8 km/h (2 Bft) NO 38 0 min 0,000 mm 0,0 UV-I 0 W/m 9,4 C 8,6 C 11,3 km/h (2 Bft) 95,74 %
05.11.2018 20:30 10,8 C 10,0 C 9,4 C 91 % 1010,6 hPa 0,0 l/m 8,3 km/h (2 Bft) NO 38 0 min 0,000 mm 0,0 UV-I 0 W/m 9,4 C 9,5 C 11,3 km/h (2 Bft) 95,83 %
05.11.2018 20:32 10,7 C 10,0 C 9,4 C 91 % 1010,6 hPa 0,0 l/m 7,8 km/h (2 Bft) NO 46 0 min 0,000 mm 0,0 UV-I 0 W/m 9,3 C 9,7 C 9,7 km/h (2 Bft) 96,00 %
05.11.2018 20:34 10,6 C 10,0 C 9,4 C 91 % 1010,7 hPa 0,0 l/m 7,7 km/h (2 Bft) NO 40 0 min 0,000 mm 0,0 UV-I 0 W/m 9,2 C 9,7 C 8,0 km/h (2 Bft) 95,74 %
05.11.2018 20:36 10,6 C 10,0 C 9,4 C 91 % 1010,6 hPa 0,0 l/m 8,6 km/h (2 Bft) NO 45 0 min 0,000 mm 0,0 UV-I 0 W/m 9,2 C 9,1 C 11,3 km/h (2 Bft) 93,62 %
05.11.2018 20:38 10,6 C 10,0 C 9,4 C 92 % 1010,6 hPa 0,0 l/m 9,0 km/h (2 Bft) NO 40 0 min 0,000 mm 0,0 UV-I 0 W/m 9,4 C 8,8 C 14,5 km/h (3 Bft) 97,37 %
05.11.2018 20:40 10,5 C 10,0 C 8,9 C 92 % 1010,7 hPa 0,0 l/m 9,1 km/h (2 Bft) O-NO 59 0 min 0,000 mm 0,0 UV-I 0 W/m 9,3 C 8,7 C 12,9 km/h (3 Bft) 93,62 %
05.11.2018 20:42 10,4 C 10,0 C 8,9 C 92 % 1010,7 hPa 0,0 l/m 8,7 km/h (2 Bft) NO 46 0 min 0,000 mm 0,0 UV-I 0 W/m 9,2 C 8,8 C 11,3 km/h (2 Bft) 93,62 %
05.11.2018 20:44 10,4 C 10,0 C 8,9 C 92 % 1010,7 hPa 0,0 l/m 8,9 km/h (2 Bft) O-NO 63 0 min 0,000 mm 0,0 UV-I 0 W/m 9,2 C 8,7 C 14,5 km/h (3 Bft) 97,87 %
05.11.2018 20:46 10,4 C 10,0 C 8,9 C 92 % 1010,7 hPa 0,0 l/m 9,0 km/h (2 Bft) O-NO 57 0 min 0,000 mm 0,0 UV-I 0 W/m 9,2 C 8,6 C 11,3 km/h (2 Bft) 95,74 %
05.11.2018 20:48 10,4 C 10,0 C 8,9 C 92 % 1010,7 hPa 0,0 l/m 9,2 km/h (2 Bft) O-NO 74 0 min 0,000 mm 0,0 UV-I 0 W/m 9,2 C 8,5 C 12,9 km/h (3 Bft) 97,87 %
05.11.2018 20:50 10,6 C 10,0 C 8,9 C 92 % 1010,7 hPa 0,0 l/m 8,6 km/h (2 Bft) NO 49 0 min 0,000 mm 0,0 UV-I 0 W/m 9,4 C 9,1 C 12,9 km/h (3 Bft) 95,74 %
05.11.2018 20:52 10,8 C 10,0 C 9,4 C 91 % 1010,6 hPa 0,0 l/m 10,2 km/h (2 Bft) O-NO 70 0 min 0,000 mm 0,0 UV-I 0 W/m 9,4 C 8,4 C 14,5 km/h (3 Bft) 98,00 %
05.11.2018 20:54 10,9 C 10,0 C 9,4 C 91 % 1010,6 hPa 0,0 l/m 11,6 km/h (2 Bft) O-NO 75 0 min 0,000 mm 0,0 UV-I 0 W/m 9,5 C 7,7 C 14,5 km/h (3 Bft) 97,87 %
05.11.2018 20:56 11,1 C 10,0 C 9,4 C 91 % 1010,6 hPa 0,0 l/m 11,2 km/h (2 Bft) O 86 0 min 0,000 mm 0,0 UV-I 0 W/m 9,7 C 8,2 C 16,1 km/h (3 Bft) 97,87 %
05.11.2018 20:58 11,2 C 10,0 C 9,4 C 90 % 1010,6 hPa 0,0 l/m 14,2 km/h (3 Bft) O 96 0 min 0,000 mm 0,0 UV-I 0 W/m 9,6 C 6,9 C 16,1 km/h (3 Bft) 97,87 %
05.11.2018 21:00 11,2 C 10,0 C 9,4 C 90 % 1010,6 hPa 0,0 l/m 14,5 km/h (3 Bft) O-NO 60 0 min 0,000 mm 0,0 UV-I 0 W/m 9,6 C 6,8 C 20,9 km/h (4 Bft) 95,74 %
05.11.2018 21:02 11,3 C 10,0 C 10,0 C 90 % 1010,6 hPa 0,0 l/m 13,9 km/h (3 Bft) O-NO 67 0 min 0,000 mm 0,0 UV-I 0 W/m 9,7 C 7,2 C 19,3 km/h (3 Bft) 100,00 %
05.11.2018 21:04 11,3 C 10,0 C 10,0 C 89 % 1010,6 hPa 0,0 l/m 14,3 km/h (3 Bft) O-NO 58 0 min 0,000 mm 0,0 UV-I 0 W/m 9,6 C 7,0 C 17,7 km/h (3 Bft) 97,87 %
05.11.2018 21:06 11,4 C 10,0 C 10,0 C 89 % 1010,6 hPa 0,0 l/m 13,7 km/h (3 Bft) O-NO 67 0 min 0,000 mm 0,0 UV-I 0 W/m 9,7 C 7,4 C 17,7 km/h (3 Bft) 100,00 %
05.11.2018 21:09 11,4 C 10,0 C 10,0 C 89 % 1010,6 hPa 0,0 l/m 13,3 km/h (3 Bft) O-NO 70 0 min 0,000 mm 0,0 UV-I 0 W/m 9,7 C 7,5 C 17,7 km/h (3 Bft) 100,00 %
05.11.2018 21:10 11,3 C 10,0 C 10,0 C 89 % 1010,6 hPa 0,0 l/m 13,6 km/h (3 Bft) O-NO 70 0 min 0,000 mm 0,0 UV-I 0 W/m 9,6 C 7,3 C 17,7 km/h (3 Bft) 100,00 %
05.11.2018 21:12 11,4 C 10,0 C 10,0 C 89 % 1010,6 hPa 0,0 l/m 12,8 km/h (3 Bft) O-NO 64 0 min 0,000 mm 0,0 UV-I 0 W/m 9,7 C 7,8 C 16,1 km/h (3 Bft) 100,00 %
05.11.2018 21:14 11,3 C 10,0 C 10,0 C 88 % 1010,6 hPa 0,0 l/m 12,7 km/h (3 Bft) O-NO 69 0 min 0,000 mm 0,0 UV-I 0 W/m 9,4 C 7,7 C 16,1 km/h (3 Bft) 97,87 %
05.11.2018 21:16 11,3 C 10,0 C 10,0 C 88 % 1010,7 hPa 0,0 l/m 12,7 km/h (3 Bft) O 82 0 min 0,000 mm 0,0 UV-I 0 W/m 9,4 C 7,7 C 16,1 km/h (3 Bft) 95,74 %
05.11.2018 21:18 11,4 C 10,0 C 10,0 C 88 % 1010,7 hPa 0,0 l/m 12,1 km/h (2 Bft) O-NO 78 0 min 0,000 mm 0,0 UV-I 0 W/m 9,5 C 8,1 C 16,1 km/h (3 Bft) 97,87 %
05.11.2018 21:20 11,3 C 10,0 C 10,0 C 88 % 1010,7 hPa 0,0 l/m 12,3 km/h (3 Bft) O-NO 69 0 min 0,000 mm 0,0 UV-I 0 W/m 9,4 C 7,9 C 16,1 km/h (3 Bft) 100,00 %
05.11.2018 21:22 11,3 C 10,0 C 10,0 C 88 % 1010,6 hPa 0,0 l/m 11,8 km/h (2 Bft) O-NO 69 0 min 0,000 mm 0,0 UV-I 0 W/m 9,4 C 8,1 C 14,5 km/h (3 Bft) 97,87 %
05.11.2018 21:24 11,4 C 10,0 C 9,4 C 88 % 1010,6 hPa 0,0 l/m 9,8 km/h (2 Bft) O-NO 67 0 min 0,000 mm 0,0 UV-I 0 W/m 9,5 C 9,3 C 14,5 km/h (3 Bft) 97,87 %
05.11.2018 21:26 11,3 C 10,0 C 9,4 C 88 % 1010,5 hPa 0,0 l/m 10,6 km/h (2 Bft) O 83 0 min 0,000 mm 0,0 UV-I 0 W/m 9,4 C 8,7 C 14,5 km/h (3 Bft) 97,87 %
05.11.2018 21:28 11,4 C 10,0 C 10,0 C 88 % 1010,6 hPa 0,0 l/m 12,5 km/h (3 Bft) O 87 0 min 0,000 mm 0,0 UV-I 0 W/m 9,5 C 7,9 C 16,1 km/h (3 Bft) 96,00 %
05.11.2018 21:30 11,5 C 10,0 C 10,0 C 88 % 1010,6 hPa 0,0 l/m 12,2 km/h (2 Bft) O-NO 76 0 min 0,000 mm 0,0 UV-I 0 W/m 9,6 C 8,1 C 16,1 km/h (3 Bft) 91,49 %
05.11.2018 21:32 11,5 C 10,0 C 10,0 C 87 % 1010,6 hPa 0,0 l/m 10,5 km/h (2 Bft) O 100 0 min 0,000 mm 0,0 UV-I 0 W/m 9,4 C 9,0 C 16,1 km/h (3 Bft) 97,87 %
05.11.2018 21:34 11,4 C 10,0 C 10,0 C 88 % 1010,6 hPa 0,0 l/m 10,2 km/h (2 Bft) O-NO 73 0 min 0,000 mm 0,0 UV-I 0 W/m 9,5 C 9,0 C 16,1 km/h (3 Bft) 97,87 %
05.11.2018 21:36 11,4 C 10,0 C 9,4 C 88 % 1010,7 hPa 0,0 l/m 10,4 km/h (2 Bft) O 81 0 min 0,000 mm 0,0 UV-I 0 W/m 9,5 C 8,9 C 14,5 km/h (3 Bft) 97,87 %
05.11.2018 21:38 11,4 C 10,0 C 9,4 C 88 % 1010,7 hPa 0,0 l/m 9,6 km/h (2 Bft) O-NO 76 0 min 0,000 mm 0,0 UV-I 0 W/m 9,5 C 9,4 C 14,5 km/h (3 Bft) 100,00 %
05.11.2018 21:40 11,4 C 10,0 C 9,4 C 87 % 1010,7 hPa 0,0 l/m 11,7 km/h (2 Bft) O-SO 106 0 min 0,000 mm 0,0 UV-I 0 W/m 9,3 C 8,3 C 16,1 km/h (3 Bft) 98,00 %
05.11.2018 21:42 11,4 C 10,0 C 9,4 C 88 % 1010,7 hPa 0,0 l/m 12,3 km/h (3 Bft) O 87 0 min 0,000 mm 0,0 UV-I 0 W/m 9,5 C 8,0 C 17,7 km/h (3 Bft) 100,00 %
05.11.2018 21:44 11,4 C 10,0 C 10,0 C 88 % 1010,7 hPa 0,0 l/m 12,6 km/h (3 Bft) O 83 0 min 0,000 mm 0,0 UV-I 0 W/m 9,5 C 7,8 C 17,7 km/h (3 Bft) 97,87 %
05.11.2018 21:46 11,4 C 10,0 C 10,0 C 88 % 1010,7 hPa 0,0 l/m 12,3 km/h (3 Bft) O 80 0 min 0,000 mm 0,0 UV-I 0 W/m 9,5 C 8,0 C 14,5 km/h (3 Bft) 95,74 %
05.11.2018 21:48 11,3 C 10,0 C 9,4 C 87 % 1010,7 hPa 0,0 l/m 13,8 km/h (3 Bft) O-NO 73 0 min 0,000 mm 0,0 UV-I 0 W/m 9,2 C 7,2 C 16,1 km/h (3 Bft) 100,00 %
05.11.2018 21:50 11,3 C 10,0 C 9,4 C 88 % 1010,6 hPa 0,0 l/m 13,6 km/h (3 Bft) O-NO 76 0 min 0,000 mm 0,0 UV-I 0 W/m 9,4 C 7,3 C 16,1 km/h (3 Bft) 100,00 %
05.11.2018 21:52 11,2 C 10,0 C 9,4 C 88 % 1010,6 hPa 0,0 l/m 10,9 km/h (2 Bft) O-NO 64 0 min 0,000 mm 0,0 UV-I 0 W/m 9,3 C 8,4 C 14,5 km/h (3 Bft) 97,87 %
05.11.2018 21:54 11,1 C 10,0 C 9,4 C 88 % 1010,6 hPa 0,0 l/m 7,9 km/h (2 Bft) O-NO 68 0 min 0,000 mm 0,0 UV-I 0 W/m 9,2 C 10,1 C 9,7 km/h (2 Bft) 100,00 %
05.11.2018 21:56 11,1 C 10,0 C 9,4 C 88 % 1010,7 hPa 0,0 l/m 7,9 km/h (2 Bft) O-NO 69 0 min 0,000 mm 0,0 UV-I 0 W/m 9,2 C 10,1 C 11,3 km/h (2 Bft) 97,87 %
05.11.2018 21:58 11,0 C 10,0 C 9,4 C 89 % 1010,7 hPa 0,0 l/m 7,8 km/h (2 Bft) O 80 0 min 0,000 mm 0,0 UV-I 0 W/m 9,3 C 10,0 C 12,9 km/h (3 Bft) 100,00 %
05.11.2018 22:00 11,1 C 10,0 C 9,4 C 89 % 1010,6 hPa 0,0 l/m 9,1 km/h (2 Bft) O-NO 73 0 min 0,026 mm 0,0 UV-I 0 W/m 9,4 C 9,3 C 12,9 km/h (3 Bft) 97,87 %
05.11.2018 22:02 11,1 C 10,0 C 9,4 C 88 % 1010,7 hPa 0,0 l/m 8,1 km/h (2 Bft) O 86 0 min 0,000 mm 0,0 UV-I 0 W/m 9,2 C 9,9 C 12,9 km/h (3 Bft) 100,00 %
05.11.2018 22:04 11,1 C 10,0 C 9,4 C 88 % 1010,7 hPa 0,0 l/m 8,6 km/h (2 Bft) O 81 0 min 0,000 mm 0,0 UV-I 0 W/m 9,2 C 9,6 C 12,9 km/h (3 Bft) 100,00 %
05.11.2018 22:06 11,1 C 10,0 C 8,9 C 88 % 1010,7 hPa 0,0 l/m 10,5 km/h (2 Bft) O 95 0 min 0,000 mm 0,0 UV-I 0 W/m 9,2 C 8,5 C 14,5 km/h (3 Bft) 100,00 %
05.11.2018 22:08 11,1 C 10,0 C 8,9 C 88 % 1010,6 hPa 0,0 l/m 11,8 km/h (2 Bft) O 90 0 min 0,000 mm 0,0 UV-I 0 W/m 9,2 C 7,9 C 17,7 km/h (3 Bft) 97,87 %
05.11.2018 22:10 11,1 C 10,0 C 8,9 C 88 % 1010,6 hPa 0,0 l/m 11,5 km/h (2 Bft) O-SO 104 0 min 0,000 mm 0,0 UV-I 0 W/m 9,2 C 8,0 C 14,5 km/h (3 Bft) 100,00 %
05.11.2018 22:12 11,0 C 10,0 C 8,9 C 88 % 1010,6 hPa 0,0 l/m 12,5 km/h (3 Bft) O 89 0 min 0,000 mm 0,0 UV-I 0 W/m 9,1 C 7,4 C 16,1 km/h (3 Bft) 97,87 %
05.11.2018 22:14 11,1 C 10,0 C 8,9 C 89 % 1010,6 hPa 0,0 l/m 13,2 km/h (3 Bft) O-NO 65 0 min 0,000 mm 0,0 UV-I 0 W/m 9,4 C 7,2 C 17,7 km/h (3 Bft) 97,87 %
05.11.2018 22:16 11,1 C 10,0 C 9,4 C 89 % 1010,6 hPa 0,0 l/m 13,3 km/h (3 Bft) O 99 0 min 0,000 mm 0,0 UV-I 0 W/m 9,4 C 7,2 C 17,7 km/h (3 Bft) 97,87 %
05.11.2018 22:18 11,2 C 10,0 C 9,4 C 88 % 1010,7 hPa 0,0 l/m 13,9 km/h (3 Bft) O-SO 103 0 min 0,000 mm 0,0 UV-I 0 W/m 9,3 C 7,0 C 17,7 km/h (3 Bft) 97,22 %
05.11.2018 22:20 11,2 C 10,0 C 9,4 C 88 % 1010,7 hPa 0,0 l/m 11,8 km/h (2 Bft) O-SO 102 0 min 0,000 mm 0,0 UV-I 0 W/m 9,3 C 8,0 C 14,5 km/h (3 Bft) 96,72 %
05.11.2018 22:22 11,3 C 10,0 C 9,4 C 88 % 1010,7 hPa 0,0 l/m 13,6 km/h (3 Bft) O-SO 107 0 min 0,000 mm 0,0 UV-I 0 W/m 9,4 C 7,3 C 16,1 km/h (3 Bft) 93,75 %
05.11.2018 22:24 11,3 C 10,0 C 9,4 C 88 % 1010,7 hPa 0,0 l/m 12,7 km/h (3 Bft) O-SO 107 0 min 0,000 mm 0,0 UV-I 0 W/m 9,4 C 7,7 C 17,7 km/h (3 Bft) 98,00 %
05.11.2018 22:26 11,3 C 10,0 C 9,4 C 88 % 1010,6 hPa 0,0 l/m 11,3 km/h (2 Bft) O-SO 113 0 min 0,000 mm 0,0 UV-I 0 W/m 9,4 C 8,4 C 17,7 km/h (3 Bft) 95,74 %
05.11.2018 22:28 11,3 C 10,0 C 9,4 C 87 % 1010,6 hPa 0,0 l/m 10,7 km/h (2 Bft) O 86 0 min 0,000 mm 0,0 UV-I 0 W/m 9,2 C 8,7 C 14,5 km/h (3 Bft) 95,12 %
05.11.2018 22:30 11,3 C 10,0 C 9,4 C 87 % 1010,6 hPa 0,0 l/m 11,3 km/h (2 Bft) O 82 0 min 0,000 mm 0,0 UV-I 0 W/m 9,2 C 8,4 C 14,5 km/h (3 Bft) 97,87 %
05.11.2018 22:32 11,3 C 10,0 C 9,4 C 87 % 1010,7 hPa 0,0 l/m 10,1 km/h (2 Bft) O 81 0 min 0,000 mm 0,0 UV-I 0 W/m 9,2 C 9,0 C 14,5 km/h (3 Bft) 98,00 %
05.11.2018 22:34 11,2 C 10,0 C 9,4 C 87 % 1010,6 hPa 0,0 l/m 8,7 km/h (2 Bft) O-NO 65 0 min 0,000 mm 0,0 UV-I 0 W/m 9,1 C 9,7 C 12,9 km/h (3 Bft) 98,00 %
05.11.2018 22:36 11,0 C 10,0 C 9,4 C 87 % 1010,6 hPa 0,0 l/m 6,9 km/h (2 Bft) O-NO 64 0 min 0,000 mm 0,0 UV-I 0 W/m 8,9 C 10,7 C 11,3 km/h (2 Bft) 94,74 %
05.11.2018 22:38 10,7 C 10,0 C 8,9 C 87 % 1010,7 hPa 0,0 l/m 6,6 km/h (2 Bft) O-NO 63 0 min 0,000 mm 0,0 UV-I 0 W/m 8,6 C 10,6 C 9,7 km/h (2 Bft) 96,00 %
05.11.2018 22:40 10,5 C 10,0 C 8,9 C 88 % 1010,6 hPa 0,0 l/m 6,7 km/h (2 Bft) O-NO 74 0 min 0,000 mm 0,0 UV-I 0 W/m 8,6 C 10,3 C 9,7 km/h (2 Bft) 98,00 %
05.11.2018 22:42 10,4 C 10,0 C 8,9 C 89 % 1010,7 hPa 0,0 l/m 6,3 km/h (2 Bft) O-NO 69 0 min 0,000 mm 0,0 UV-I 0 W/m 8,7 C 10,4 C 8,0 km/h (2 Bft) 95,74 %
05.11.2018 22:44 10,2 C 10,0 C 8,3 C 89 % 1010,7 hPa 0,0 l/m 5,3 km/h (1 Bft) O-NO 59 0 min 0,000 mm 0,0 UV-I 0 W/m 8,5 C 10,2 C 6,4 km/h (2 Bft) 92,00 %
05.11.2018 22:46 10,3 C 10,0 C 8,3 C 90 % 1010,7 hPa 0,0 l/m 6,1 km/h (2 Bft) O-NO 73 0 min 0,000 mm 0,0 UV-I 0 W/m 8,7 C 10,3 C 8,0 km/h (2 Bft) 97,37 %
05.11.2018 22:48 10,3 C 10,0 C 8,3 C 90 % 1010,8 hPa 0,0 l/m 6,4 km/h (2 Bft) O 82 0 min 0,000 mm 0,0 UV-I 0 W/m 8,7 C 10,3 C 11,3 km/h (2 Bft) 98,00 %
05.11.2018 22:50 10,4 C 10,0 C 8,3 C 90 % 1010,8 hPa 0,0 l/m 4,9 km/h (1 Bft) O 84 0 min 0,000 mm 0,0 UV-I 0 W/m 8,8 C 10,4 C 6,4 km/h (2 Bft) 95,74 %
05.11.2018 22:52 10,6 C 10,0 C 8,3 C 90 % 1010,8 hPa 0,0 l/m 5,0 km/h (1 Bft) NO 52 0 min 0,000 mm 0,0 UV-I 0 W/m 9,0 C 10,6 C 6,4 km/h (2 Bft) 97,87 %
05.11.2018 22:54 10,6 C 10,0 C 8,3 C 89 % 1010,8 hPa 0,0 l/m 5,5 km/h (1 Bft) O-NO 71 0 min 0,000 mm 0,0 UV-I 0 W/m 8,9 C 10,6 C 8,0 km/h (2 Bft) 97,87 %
05.11.2018 22:56 10,4 C 10,0 C 8,3 C 89 % 1010,8 hPa 0,0 l/m 5,8 km/h (2 Bft) NO 34 0 min 0,000 mm 0,0 UV-I 0 W/m 8,7 C 10,4 C 6,4 km/h (2 Bft) 98,00 %
05.11.2018 22:58 10,3 C 10,0 C 8,3 C 89 % 1010,8 hPa 0,0 l/m 6,2 km/h (2 Bft) NO 54 0 min 0,000 mm 0,0 UV-I 0 W/m 8,6 C 10,3 C 8,0 km/h (2 Bft) 97,87 %
05.11.2018 23:00 10,2 C 10,0 C 8,3 C 89 % 1010,8 hPa 0,0 l/m 7,0 km/h (2 Bft) NO 52 0 min 0,000 mm 0,0 UV-I 0 W/m 8,5 C 9,8 C 9,7 km/h (2 Bft) 100,00 %
05.11.2018 23:02 10,2 C 10,0 C 7,8 C 90 % 1010,8 hPa 0,0 l/m 7,1 km/h (2 Bft) O-NO 65 0 min 0,025 mm 0,0 UV-I 0 W/m 8,6 C 9,7 C 9,7 km/h (2 Bft) 95,74 %
05.11.2018 23:04 10,1 C 10,0 C 7,8 C 90 % 1010,8 hPa 0,0 l/m 6,9 km/h (2 Bft) O-NO 69 0 min 0,000 mm 0,0 UV-I 0 W/m 8,5 C 9,7 C 8,0 km/h (2 Bft) 100,00 %
05.11.2018 23:06 10,1 C 10,0 C 7,8 C 90 % 1010,8 hPa 0,0 l/m 6,5 km/h (2 Bft) NO 46 0 min 0,000 mm 0,0 UV-I 0 W/m 8,5 C 10,1 C 8,0 km/h (2 Bft) 97,87 %
05.11.2018 23:09 9,9 C 10,0 C 7,8 C 90 % 1010,8 hPa 0,0 l/m 5,2 km/h (1 Bft) NO 46 0 min 0,000 mm 0,0 UV-I 0 W/m 8,3 C 9,9 C 8,0 km/h (2 Bft) 98,63 %
05.11.2018 23:10 9,8 C 10,0 C 7,8 C 90 % 1010,8 hPa 0,0 l/m 4,4 km/h (1 Bft) NO 52 0 min 0,000 mm 0,0 UV-I 0 W/m 8,2 C 9,8 C 6,4 km/h (2 Bft) 95,83 %
05.11.2018 23:12 9,8 C 10,0 C 7,8 C 91 % 1010,8 hPa 0,0 l/m 6,4 km/h (2 Bft) NO 49 0 min 0,000 mm 0,0 UV-I 0 W/m 8,4 C 9,8 C 8,0 km/h (2 Bft) 98,00 %
05.11.2018 23:14 9,7 C 10,0 C 7,8 C 90 % 1010,8 hPa 0,0 l/m 7,8 km/h (2 Bft) NO 49 0 min 0,000 mm 0,0 UV-I 0 W/m 8,1 C 8,7 C 9,7 km/h (2 Bft) 100,00 %
05.11.2018 23:16 9,7 C 10,0 C 7,8 C 91 % 1010,8 hPa 0,0 l/m 5,8 km/h (2 Bft) O-NO 58 0 min 0,000 mm 0,0 UV-I 0 W/m 8,3 C 9,7 C 9,7 km/h (2 Bft) 100,00 %
05.11.2018 23:19 9,7 C 10,0 C 7,8 C 92 % 1010,8 hPa 0,0 l/m 4,9 km/h (1 Bft) O-NO 69 0 min 0,000 mm 0,0 UV-I 0 W/m 8,5 C 9,7 C 6,4 km/h (2 Bft) 100,00 %
05.11.2018 23:20 9,7 C 10,0 C 7,2 C 92 % 1010,8 hPa 0,0 l/m 6,4 km/h (2 Bft) O-NO 69 0 min 0,000 mm 0,0 UV-I 0 W/m 8,5 C 9,7 C 8,0 km/h (2 Bft) 100,00 %
05.11.2018 23:22 9,9 C 10,0 C 7,8 C 92 % 1010,8 hPa 0,0 l/m 7,0 km/h (2 Bft) O 88 0 min 0,000 mm 0,0 UV-I 0 W/m 8,7 C 9,5 C 11,3 km/h (2 Bft) 100,00 %
05.11.2018 23:24 10,0 C 10,0 C 7,8 C 91 % 1010,8 hPa 0,0 l/m 5,6 km/h (1 Bft) O-NO 71 0 min 0,000 mm 0,0 UV-I 0 W/m 8,6 C 10,0 C 9,7 km/h (2 Bft) 100,00 %
05.11.2018 23:26 10,0 C 10,0 C 7,8 C 91 % 1010,9 hPa 0,0 l/m 3,1 km/h (1 Bft) NO 56 0 min 0,000 mm 0,0 UV-I 0 W/m 8,6 C 10,0 C 4,8 km/h (1 Bft) 100,00 %
05.11.2018 23:29 9,9 C 10,0 C 7,8 C 91 % 1010,9 hPa 0,0 l/m 4,7 km/h (1 Bft) NO 42 0 min 0,000 mm 0,0 UV-I 0 W/m 8,5 C 9,9 C 9,7 km/h (2 Bft) 100,00 %
05.11.2018 23:30 9,9 C 10,0 C 7,8 C 91 % 1010,9 hPa 0,0 l/m 7,7 km/h (2 Bft) NO 42 0 min 0,000 mm 0,0 UV-I 0 W/m 8,5 C 9,0 C 9,7 km/h (2 Bft) 100,00 %
05.11.2018 23:32 9,7 C 10,0 C 7,8 C 91 % 1010,9 hPa 0,0 l/m 7,2 km/h (2 Bft) O-NO 63 0 min 0,000 mm 0,0 UV-I 0 W/m 8,3 C 9,1 C 9,7 km/h (2 Bft) 100,00 %
05.11.2018 23:34 9,7 C 10,0 C 7,2 C 91 % 1010,9 hPa 0,0 l/m 6,4 km/h (2 Bft) NO 53 0 min 0,000 mm 0,0 UV-I 0 W/m 8,3 C 9,7 C 8,0 km/h (2 Bft) 98,00 %
05.11.2018 23:36 9,6 C 10,0 C 7,2 C 91 % 1010,9 hPa 0,0 l/m 5,2 km/h (1 Bft) O-NO 69 0 min 0,000 mm 0,0 UV-I 0 W/m 8,2 C 9,6 C 6,4 km/h (2 Bft) 97,87 %
05.11.2018 23:38 9,7 C 10,0 C 7,2 C 92 % 1010,9 hPa 0,0 l/m 6,8 km/h (2 Bft) O-NO 69 0 min 0,000 mm 0,0 UV-I 0 W/m 8,5 C 9,4 C 8,0 km/h (2 Bft) 100,00 %
05.11.2018 23:40 9,8 C 10,0 C 7,8 C 92 % 1010,9 hPa 0,0 l/m 6,2 km/h (2 Bft) O-NO 62 0 min 0,000 mm 0,0 UV-I 0 W/m 8,6 C 9,8 C 8,0 km/h (2 Bft) 97,87 %
05.11.2018 23:42 10,0 C 10,0 C 7,8 C 92 % 1010,9 hPa 0,0 l/m 7,4 km/h (2 Bft) O-NO 78 0 min 0,000 mm 0,0 UV-I 0 W/m 8,8 C 9,3 C 9,7 km/h (2 Bft) 100,00 %
05.11.2018 23:44 10,1 C 10,0 C 7,8 C 92 % 1010,9 hPa 0,0 l/m 6,1 km/h (2 Bft) O-NO 78 0 min 0,000 mm 0,0 UV-I 0 W/m 8,9 C 10,1 C 8,0 km/h (2 Bft) 100,00 %
05.11.2018 23:46 10,2 C 10,0 C 7,8 C 91 % 1011,0 hPa 0,0 l/m 6,0 km/h (2 Bft) O-NO 71 0 min 0,000 mm 0,0 UV-I 0 W/m 8,8 C 10,2 C 8,0 km/h (2 Bft) 98,00 %
05.11.2018 23:48 10,1 C 10,0 C 7,8 C 91 % 1011,0 hPa 0,0 l/m 5,1 km/h (1 Bft) O 86 0 min 0,000 mm 0,0 UV-I 0 W/m 8,7 C 10,1 C 6,4 km/h (2 Bft) 96,00 %
05.11.2018 23:50 10,1 C 10,0 C 7,8 C 91 % 1011,0 hPa 0,0 l/m 4,3 km/h (1 Bft) NO 54 0 min 0,000 mm 0,0 UV-I 0 W/m 8,7 C 10,1 C 6,4 km/h (2 Bft) 97,87 %
05.11.2018 23:52 10,1 C 10,0 C 7,8 C 91 % 1011,0 hPa 0,0 l/m 5,2 km/h (1 Bft) NO 54 0 min 0,000 mm 0,0 UV-I 0 W/m 8,7 C 10,1 C 6,4 km/h (2 Bft) 100,00 %
05.11.2018 23:54 9,9 C 10,0 C 7,2 C 91 % 1011,0 hPa 0,0 l/m 5,1 km/h (1 Bft) O-NO 68 0 min 0,000 mm 0,0 UV-I 0 W/m 8,5 C 9,9 C 6,4 km/h (2 Bft) 95,74 %
05.11.2018 23:56 9,8 C 10,0 C 7,2 C 91 % 1010,9 hPa 0,0 l/m 7,5 km/h (2 Bft) NO 47 0 min 0,000 mm 0,0 UV-I 0 W/m 8,4 C 9,0 C 9,7 km/h (2 Bft) 93,62 %
05.11.2018 23:58 9,6 C 10,0 C 7,2 C 90 % 1010,9 hPa 0,0 l/m 4,9 km/h (1 Bft) NO 51 0 min 0,000 mm 0,0 UV-I 0 W/m 8,0 C 9,6 C 6,4 km/h (2 Bft) 95,12 %
_ Min-Zeit 06:38 00:00 03:58 11:58 13:44 - 04:02 - - - - - - 23:58 07:30 00:44 00:02
Minimum _ 8,9 C 10,0 C 6,7 C 73 % 1009,5 hPa - 0,1 km/h (0 Bft) - - - - - - 8,0 C 3,0 C 1,6 km/h (1 Bft) 13,33 %
_ Max-Zeit 13:42 13:16 11:54 01:22 00:02 00:00 13:04 - - 13:09 12:00 11:46 11:52 13:20 14:28 13:22 00:06
Maximum _ 16,9 C 10,6 C 19,4 C 98 % 1013,4 hPa 0,0 l/m 33,0 km/h
O (5 Bft)
- - 3 min 0,305 mm 1,2 UV-I 567 W/m 12,5 C 13,3 C 48,3 km/h
O (6 Bft)
100,00 %
Durchschnitt _ 12,0 C 10,0 C 11,4 C 88 % 1011,2 hPa #0,0 l/m 12,2 km/h (2 Bft) O - #8:10 h #1,905 mm 0,8 UV-I 259 W/m 10,1 C 9,1 C 17,5 km/h (3 Bft) 97,10 %